Darstellungsparameter: Aktuell verwendete Einstellungen:
Skalierung der Graphiken ... ?
xyx+y,   Skalierungsfaktor:      Skalierung: Modus: x, Faktor: 1
Darstellungszeitraum ... ?
Vom - - bis: - -   Zeitraum: 30.06.2019 - 29.06.2020
Min/Max/Avg-Anzeige ... ?
Zeige MMA aktuell
Zeige MMA Monat
Zeige MMA alles
Zeige --A aktuell
Zeige --A Monat
Zeige --A alles
Keine MMA-Anzeige
MMA:
Average (ber die Originaldaten)
MMA-Basis: 23.02.2003 - 03.08.2020
Quicknavigation für Darstellung... ?
Tage:      1T, 2T, 3T, 5T -1T -2T -3T -5T +1T +2T +3T +5T
Wochen: 1W, 2W, 3W -1W -2W -3W +1W +2W +3W
Monate: 1M, 3M, 6M -1M -3M -6M +1M +3M +6M
Jahre:    1J, 3J, 5J, 10J -1J -3J -5J -10J +1J +3J +5J +10J
Nutze für die Darstellung ... ?
Originaldaten oder ...
Mittelwerte Minima Maxima auf...
Stundenbasis Tagesbasis Wochenbasis
Monatsbasis Jahresbasis      Datenbasis: Mittelwerte auf Stundenbasis
Darstellen als:
Statistik (Auto) Statistik J:M      Darstellung:
Zur Graphik,    zurück zur Übersicht aller Sensoren.
 
Tabellarische Datenbersicht: ?
 
Sensor: Nr:Datum:Temp:Abs-Feuchte:Windchill:Wind:
Aussen-T/F 1 30-06-2019 00:00:00 18.93333 C 10.69 g/m*3 18.93 C 0 km/h
2 30-06-2019 01:00:00 17.525 C 10.78 g/m*3 17.52 C 0 km/h
3 30-06-2019 02:00:00 16.75 C 10.77 g/m*3 16.75 C 0 km/h
4 30-06-2019 03:00:00 16.10833 C 10.8 g/m*3 16.11 C 0 km/h
5 30-06-2019 04:00:00 15.58333 C 10.81 g/m*3 15.58 C 0.26667 km/h
6 30-06-2019 05:00:00 15.05 C 10.75 g/m*3 15.05 C 0 km/h
7 30-06-2019 06:00:00 14.85 C 10.99 g/m*3 14.85 C 0 km/h
8 30-06-2019 07:00:00 15.44167 C 11.57 g/m*3 15.44 C 0.13333 km/h
9 30-06-2019 08:00:00 17.025 C 12.52 g/m*3 17.02 C 0 km/h
10 30-06-2019 09:00:00 19.65833 C 13.82 g/m*3 19.66 C 0 km/h
11 30-06-2019 10:00:00 25.225 C 15.09 g/m*3 25.23 C 5.64167 km/h
12 30-06-2019 11:00:00 30.59167 C 14.17 g/m*3 30.59 C 12.76667 km/h
13 30-06-2019 12:00:00 32.48333 C 13.85 g/m*3 32.48 C 8.61667 km/h
14 30-06-2019 13:00:00 34.6 C 13.55 g/m*3 34.6 C 11.7 km/h
15 30-06-2019 14:00:00 36.00833 C 14.3 g/m*3 36.01 C 15.03333 km/h
16 30-06-2019 15:00:00 35.5 C 16.53 g/m*3 35.5 C 14.9 km/h
17 30-06-2019 16:00:00 35.49167 C 18.25 g/m*3 35.49 C 10.75 km/h
18 30-06-2019 17:00:00 35.875 C 18.86 g/m*3 35.88 C 8.34167 km/h
19 30-06-2019 18:00:00 34.975 C 18.29 g/m*3 34.98 C 10.23333 km/h
20 30-06-2019 19:00:00 32.65833 C 17.71 g/m*3 32.66 C 11.01667 km/h
21 30-06-2019 20:00:00 29.35 C 17.22 g/m*3 29.35 C 13.43333 km/h
22 30-06-2019 21:00:00 27.18333 C 16.25 g/m*3 27.18 C 8.6 km/h
23 30-06-2019 22:00:00 26.25833 C 15.72 g/m*3 26.26 C 7.10833 km/h
24 30-06-2019 23:00:00 24.55833 C 15.04 g/m*3 24.56 C 2.66667 km/h
25 01-07-2019 00:00:00 22.68333 C 14.75 g/m*3 22.68 C 1.46667 km/h
Sensor: Nr:Datum:Temp:Abs-Feuchte:Windchill:Wind:
Aussen-T/F 26 01-07-2019 01:00:00 22.36667 C 14.49 g/m*3 22.37 C 4.025 km/h
27 01-07-2019 02:00:00 21.63333 C 14.05 g/m*3 21.63 C 1.06667 km/h
28 01-07-2019 03:00:00 20.98333 C 13.19 g/m*3 20.98 C 2.68333 km/h
29 01-07-2019 04:00:00 20.34167 C 12.65 g/m*3 20.34 C 0 km/h
30 01-07-2019 05:00:00 19.65833 C 12.38 g/m*3 19.66 C 0.66667 km/h
31 01-07-2019 06:00:00 19.68333 C 12.03 g/m*3 19.68 C 1.06667 km/h
32 01-07-2019 07:00:00 19.675 C 12.02 g/m*3 19.68 C 4.40833 km/h
33 01-07-2019 08:00:00 19.79167 C 12.06 g/m*3 19.79 C 2.4 km/h
34 01-07-2019 09:00:00 20.24167 C 12.14 g/m*3 20.24 C 4.675 km/h
35 01-07-2019 10:00:00 21.20833 C 12.76 g/m*3 21.21 C 6.84167 km/h
36 01-07-2019 11:00:00 21.78333 C 13.27 g/m*3 21.78 C 9.80833 km/h
37 01-07-2019 12:00:00 23.16667 C 13.02 g/m*3 23.17 C 8.61667 km/h
38 01-07-2019 13:00:00 24.89167 C 11.65 g/m*3 24.89 C 13.83333 km/h
39 01-07-2019 14:00:00 25.55833 C 12.15 g/m*3 25.56 C 10.61667 km/h
40 01-07-2019 15:00:00 26.675 C 11.92 g/m*3 26.68 C 13.7 km/h
41 01-07-2019 16:00:00 26.89167 C 11.34 g/m*3 26.89 C 13.3 km/h
42 01-07-2019 17:00:00 27.04167 C 10.86 g/m*3 27.04 C 15.43333 km/h
43 01-07-2019 18:00:00 26.3 C 10.89 g/m*3 26.3 C 13.96667 km/h
44 01-07-2019 19:00:00 25.96667 C 10.39 g/m*3 25.97 C 11.96667 km/h
45 01-07-2019 20:00:00 24.53333 C 10.46 g/m*3 24.53 C 8.05 km/h
46 01-07-2019 21:00:00 22.55833 C 10.25 g/m*3 22.56 C 7.25 km/h
47 01-07-2019 22:00:00 20.825 C 10.38 g/m*3 20.83 C 2.93333 km/h
48 01-07-2019 23:00:00 20.03333 C 10.29 g/m*3 20.03 C 8.33333 km/h
49 02-07-2019 00:00:00 18.85833 C 10.21 g/m*3 18.86 C 2.8 km/h
50 02-07-2019 01:00:00 16.89167 C 10.11 g/m*3 16.89 C 2 km/h
Sensor: Nr:Datum:Temp:Abs-Feuchte:Windchill:Wind:
Aussen-T/F 51 02-07-2019 02:00:00 15.85 C 10.04 g/m*3 15.85 C 1.73333 km/h
52 02-07-2019 03:00:00 15.49167 C 9.94 g/m*3 15.49 C 2.95 km/h
53 02-07-2019 04:00:00 14.525 C 9.82 g/m*3 14.53 C 0.26667 km/h
54 02-07-2019 05:00:00 13.45 C 9.71 g/m*3 13.45 C 0.13333 km/h
55 02-07-2019 06:00:00 13.10833 C 9.76 g/m*3 13.11 C 0 km/h
56 02-07-2019 07:00:00 13.23333 C 10.01 g/m*3 13.23 C 0 km/h
57 02-07-2019 08:00:00 14.925 C 10.47 g/m*3 14.93 C 3.75 km/h
58 02-07-2019 09:00:00 17.48333 C 10.48 g/m*3 17.48 C 8.45 km/h
59 02-07-2019 10:00:00 19 C 10.23 g/m*3 19 C 9.01667 km/h
60 02-07-2019 11:00:00 19.60833 C 10.23 g/m*3 19.61 C 6.01667 km/h
61 02-07-2019 12:00:00 20.48333 C 9.79 g/m*3 20.48 C 9 km/h
62 02-07-2019 13:00:00 21.46667 C 9.68 g/m*3 21.47 C 10.075 km/h
63 02-07-2019 14:00:00 22.31667 C 9.72 g/m*3 22.32 C 9.11667 km/h
64 02-07-2019 15:00:00 23.00833 C 9.78 g/m*3 23.01 C 9.14167 km/h
65 02-07-2019 16:00:00 24.98333 C 9.26 g/m*3 24.98 C 11.83333 km/h
66 02-07-2019 17:00:00 25.49167 C 9.11 g/m*3 25.49 C 11.83333 km/h
67 02-07-2019 18:00:00 24.36667 C 9.18 g/m*3 24.37 C 9.675 km/h
68 02-07-2019 19:00:00 24.775 C 8.77 g/m*3 24.78 C 9.83333 km/h
69 02-07-2019 20:00:00 22.95 C 8.56 g/m*3 22.95 C 10.35833 km/h
70 02-07-2019 21:00:00 20.825 C 8.81 g/m*3 20.83 C 2.66667 km/h
71 02-07-2019 22:00:00 17.64167 C 8.76 g/m*3 17.64 C 0.26667 km/h
72 02-07-2019 23:00:00 16.3 C 8.64 g/m*3 16.3 C 0.13333 km/h
73 03-07-2019 00:00:00 14.80833 C 8.63 g/m*3 14.81 C 0 km/h
74 03-07-2019 01:00:00 13.23333 C 8.49 g/m*3 13.23 C 0 km/h
75 03-07-2019 02:00:00 12.30833 C 8.39 g/m*3 12.31 C 0 km/h
Sensor: Nr:Datum:Temp:Abs-Feuchte:Windchill:Wind:
Aussen-T/F 76 03-07-2019 03:00:00 11.475 C 8.3 g/m*3 11.48 C 0 km/h
77 03-07-2019 04:00:00 10.65 C 8.15 g/m*3 10.65 C 0 km/h
78 03-07-2019 05:00:00 10.10833 C 8.12 g/m*3 10.11 C 0 km/h
79 03-07-2019 06:00:00 10.13333 C 8.34 g/m*3 10.13 C 0 km/h
80 03-07-2019 07:00:00 10.91667 C 8.83 g/m*3 10.92 C 0 km/h
81 03-07-2019 08:00:00 12.31667 C 9.37 g/m*3 12.32 C 0 km/h
82 03-07-2019 09:00:00 14.475 C 9.56 g/m*3 14.48 C 0.8 km/h
83 03-07-2019 10:00:00 18.01667 C 9.37 g/m*3 18.02 C 3.86667 km/h
84 03-07-2019 11:00:00 19.95 C 8.76 g/m*3 19.95 C 9.4 km/h
85 03-07-2019 12:00:00 20.75833 C 8.81 g/m*3 20.76 C 9.55 km/h
86 03-07-2019 13:00:00 21.4 C 8.75 g/m*3 21.4 C 11.69167 km/h
87 03-07-2019 14:00:00 21.975 C 8.98 g/m*3 21.98 C 11.96667 km/h
88 03-07-2019 15:00:00 22.625 C 9.09 g/m*3 22.63 C 10.89167 km/h
89 03-07-2019 16:00:00 24.44167 C 8.9 g/m*3 24.44 C 11.43333 km/h
90 03-07-2019 17:00:00 24.56667 C 8.56 g/m*3 24.57 C 13.43333 km/h
91 03-07-2019 18:00:00 24.70833 C 8.49 g/m*3 24.71 C 13.3 km/h
92 03-07-2019 19:00:00 23.79167 C 8.35 g/m*3 23.79 C 13.7 km/h
93 03-07-2019 20:00:00 22.35833 C 8.3 g/m*3 22.36 C 10.5 km/h
94 03-07-2019 21:00:00 20.40833 C 8.22 g/m*3 20.41 C 5.91667 km/h
95 03-07-2019 22:00:00 17.54167 C 8.23 g/m*3 17.54 C 1.46667 km/h
96 03-07-2019 23:00:00 15.46667 C 8.16 g/m*3 15.47 C 0.13333 km/h
97 04-07-2019 00:00:00 14.2 C 8.05 g/m*3 14.2 C 0.26667 km/h
98 04-07-2019 01:00:00 13.48333 C 7.96 g/m*3 13.48 C 0.13333 km/h
99 04-07-2019 02:00:00 12.625 C 7.94 g/m*3 12.63 C 0 km/h
100 04-07-2019 03:00:00 11.24167 C 7.84 g/m*3 11.24 C 0 km/h
Sensor: Nr:Datum:Temp:Abs-Feuchte:Windchill:Wind:
Aussen-T/F 101 04-07-2019 04:00:00 10.78333 C 7.87 g/m*3 10.78 C 0 km/h
102 04-07-2019 05:00:00 10.51667 C 7.94 g/m*3 10.52 C 0 km/h
103 04-07-2019 06:00:00 10.28333 C 8.01 g/m*3 10.28 C 0 km/h
104 04-07-2019 07:00:00 10.55 C 8.37 g/m*3 10.55 C 0 km/h
105 04-07-2019 08:00:00 11.76667 C 8.81 g/m*3 11.77 C 0 km/h
106 04-07-2019 09:00:00 14.4 C 9.04 g/m*3 14.4 C 2.94167 km/h
107 04-07-2019 10:00:00 18.125 C 8.68 g/m*3 18.13 C 6.99167 km/h
108 04-07-2019 11:00:00 19.58333 C 8.28 g/m*3 19.58 C 7.38333 km/h
109 04-07-2019 12:00:00 20.4 C 8.02 g/m*3 20.4 C 8.33333 km/h
110 04-07-2019 13:00:00 21.63333 C 7.9 g/m*3 21.63 C 8.475 km/h
111 04-07-2019 14:00:00 22.71667 C 7.68 g/m*3 22.72 C 6.825 km/h
112 04-07-2019 15:00:00 24.7 C 7.6 g/m*3 24.7 C 9.41667 km/h
113 04-07-2019 16:00:00 26.80833 C 8 g/m*3 26.81 C 8.6 km/h
114 04-07-2019 17:00:00 26.9 C 8.17 g/m*3 26.9 C 9.4 km/h
115 04-07-2019 18:00:00 27.35 C 8.07 g/m*3 27.35 C 8.74167 km/h
116 04-07-2019 19:00:00 26.94167 C 8.12 g/m*3 26.94 C 7.36667 km/h
117 04-07-2019 20:00:00 24.95 C 8.3 g/m*3 24.95 C 5.61667 km/h
118 04-07-2019 21:00:00 21.60833 C 9 g/m*3 21.61 C 0.8 km/h
119 04-07-2019 22:00:00 18.56667 C 8.48 g/m*3 18.57 C 0.13333 km/h
120 04-07-2019 23:00:00 17.39167 C 8.44 g/m*3 17.39 C 0.13333 km/h
121 05-07-2019 00:00:00 16.41667 C 8.59 g/m*3 16.42 C 0.13333 km/h
122 05-07-2019 01:00:00 15.18333 C 8.54 g/m*3 15.18 C 0 km/h
123 05-07-2019 02:00:00 14.13333 C 8.41 g/m*3 14.13 C 0 km/h
124 05-07-2019 03:00:00 13.70833 C 8.68 g/m*3 13.71 C 1.06667 km/h
125 05-07-2019 04:00:00 14.08333 C 8.95 g/m*3 14.08 C 2.93333 km/h
Sensor: Nr:Datum:Temp:Abs-Feuchte:Windchill:Wind:
Aussen-T/F 126 05-07-2019 05:00:00 13.75833 C 8.86 g/m*3 13.76 C 0.93333 km/h
127 05-07-2019 06:00:00 13.93333 C 9.17 g/m*3 13.93 C 1.33333 km/h
128 05-07-2019 07:00:00 14.55 C 9.41 g/m*3 14.55 C 3.60833 km/h
129 05-07-2019 08:00:00 15.8 C 9.77 g/m*3 15.8 C 5.61667 km/h
130 05-07-2019 09:00:00 17.29167 C 9.95 g/m*3 17.29 C 3.06667 km/h
131 05-07-2019 10:00:00 20.225 C 10.27 g/m*3 20.23 C 4.40833 km/h
132 05-07-2019 11:00:00 21.94167 C 10.28 g/m*3 21.94 C 5.76667 km/h
133 05-07-2019 12:00:00 22.84167 C 10.24 g/m*3 22.84 C 5.775 km/h
134 05-07-2019 13:00:00 24.38333 C 10.1 g/m*3 24.38 C 9.825 km/h
135 05-07-2019 14:00:00 25.5 C 10.12 g/m*3 25.5 C 7.65 km/h
136 05-07-2019 15:00:00 27.45 C 9.98 g/m*3 27.45 C 9.68333 km/h
137 05-07-2019 16:00:00 28.91667 C 9.96 g/m*3 28.92 C 10.09167 km/h
138 05-07-2019 17:00:00 29.6 C 10.02 g/m*3 29.6 C 9.94167 km/h
139 05-07-2019 18:00:00 29.41667 C 10.28 g/m*3 29.42 C 11.025 km/h
140 05-07-2019 19:00:00 27.68333 C 10.33 g/m*3 27.68 C 8.75 km/h
141 05-07-2019 20:00:00 26.10833 C 10.45 g/m*3 26.11 C 4.26667 km/h
142 05-07-2019 21:00:00 23.225 C 10.96 g/m*3 23.23 C 0.26667 km/h
143 05-07-2019 22:00:00 21.18333 C 10.88 g/m*3 21.18 C 0.26667 km/h
144 05-07-2019 23:00:00 20.4 C 11.09 g/m*3 20.4 C 0 km/h
145 06-07-2019 00:00:00 18.45833 C 11.03 g/m*3 18.46 C 0 km/h
146 06-07-2019 01:00:00 17.60833 C 10.97 g/m*3 17.61 C 0.26667 km/h
147 06-07-2019 02:00:00 17.05833 C 11.07 g/m*3 17.06 C 0 km/h
148 06-07-2019 03:00:00 16.875 C 11.13 g/m*3 16.88 C 0.53333 km/h
149 06-07-2019 04:00:00 16.16667 C 10.96 g/m*3 16.17 C 0.66667 km/h
150 06-07-2019 05:00:00 15.425 C 10.77 g/m*3 15.43 C 0.13333 km/h
Sensor: Nr:Datum:Temp:Abs-Feuchte:Windchill:Wind:
Aussen-T/F 151 06-07-2019 06:00:00 15.18333 C 10.97 g/m*3 15.18 C 0 km/h
152 06-07-2019 07:00:00 15.18333 C 11.03 g/m*3 15.18 C 2.40833 km/h
153 06-07-2019 08:00:00 16.78333 C 11.6 g/m*3 16.78 C 5.34167 km/h
154 06-07-2019 09:00:00 19.425 C 11.97 g/m*3 19.43 C 4.26667 km/h
155 06-07-2019 10:00:00 22.16667 C 12.25 g/m*3 22.17 C 4.15 km/h
156 06-07-2019 11:00:00 24.41667 C 11.79 g/m*3 24.42 C 6.85 km/h
157 06-07-2019 12:00:00 25.48333 C 11.83 g/m*3 25.48 C 8.075 km/h
158 06-07-2019 13:00:00 26.84167 C 11.1 g/m*3 26.84 C 9.81667 km/h
159 06-07-2019 14:00:00 28.7 C 9.07 g/m*3 28.7 C 11.81667 km/h
160 06-07-2019 15:00:00 30.95833 C 7.21 g/m*3 30.96 C 15.83333 km/h
161 06-07-2019 16:00:00 29.08333 C 6.25 g/m*3 29.08 C 13.16667 km/h
162 06-07-2019 17:00:00 27.89167 C 7.79 g/m*3 27.89 C 16.36667 km/h
163 06-07-2019 18:00:00 22.825 C 10.53 g/m*3 22.83 C 11.79167 km/h
164 06-07-2019 19:00:00 21.60833 C 10.61 g/m*3 21.61 C 6.3 km/h
165 06-07-2019 20:00:00 20.35833 C 11.37 g/m*3 20.36 C 5.08333 km/h
166 06-07-2019 21:00:00 19.75833 C 11.39 g/m*3 19.76 C 3.6 km/h
167 06-07-2019 22:00:00 19.86667 C 12.2 g/m*3 19.87 C 6.43333 km/h
168 06-07-2019 23:00:00 20.35833 C 12.6 g/m*3 20.36 C 9.68333 km/h
169 07-07-2019 00:00:00 18.93333 C 12.04 g/m*3 18.93 C 7.11667 km/h
170 07-07-2019 01:00:00 17.88333 C 11.81 g/m*3 17.88 C 7.39167 km/h
171 07-07-2019 02:00:00 17.33333 C 11 g/m*3 17.33 C 6.175 km/h
172 07-07-2019 03:00:00 17 C 10.94 g/m*3 17 C 4.53333 km/h
173 07-07-2019 04:00:00 16.825 C 10.86 g/m*3 16.83 C 4.94167 km/h
174 07-07-2019 05:00:00 16.47 C 11.07 g/m*3 16.47 C 6.77 km/h
175 07-07-2019 06:00:00 14.96 C 11.51 g/m*3 14.96 C 0.48 km/h
Sensor: Nr:Datum:Temp:Abs-Feuchte:Windchill:Wind:
Aussen-T/F 176 07-07-2019 07:00:00 14.65 C 11.66 g/m*3 14.65 C 1.2 km/h
177 07-07-2019 08:00:00 14.28182 C 11.51 g/m*3 14.28 C 0.72727 km/h
178 07-07-2019 09:00:00 14.78333 C 11.92 g/m*3 14.78 C 2.80833 km/h
179 07-07-2019 10:00:00 15.38333 C 11.31 g/m*3 15.38 C 8.60833 km/h
180 07-07-2019 11:00:00 16.50833 C 10.6 g/m*3 16.51 C 9.95833 km/h
181 07-07-2019 12:00:00 17.73333 C 10.22 g/m*3 17.73 C 9.15 km/h
182 07-07-2019 13:00:00 18.5 C 9.88 g/m*3 18.5 C 12.225 km/h
183 07-07-2019 14:00:00 19.25833 C 9.21 g/m*3 19.26 C 12.36667 km/h
184 07-07-2019 15:00:00 20.91667 C 8.84 g/m*3 20.92 C 14.23333 km/h
185 07-07-2019 16:00:00 21.78333 C 8.37 g/m*3 21.78 C 12.88333 km/h
186 07-07-2019 17:00:00 21.475 C 8.3 g/m*3 21.48 C 12.76667 km/h
187 07-07-2019 18:00:00 21.775 C 8.51 g/m*3 21.78 C 13.16667 km/h
188 07-07-2019 19:00:00 21.325 C 8.31 g/m*3 21.33 C 11.29167 km/h
189 07-07-2019 20:00:00 20 C 8.3 g/m*3 20 C 9.54167 km/h
190 07-07-2019 21:00:00 18.65 C 8.39 g/m*3 18.65 C 5.20833 km/h
191 07-07-2019 22:00:00 15.64167 C 8.83 g/m*3 15.64 C 0 km/h
192 07-07-2019 23:00:00 13.85 C 8.83 g/m*3 13.85 C 0.4 km/h
193 08-07-2019 00:00:00 12.875 C 8.72 g/m*3 12.88 C 0.26667 km/h
194 08-07-2019 01:00:00 11.89167 C 8.6 g/m*3 11.89 C 0 km/h
195 08-07-2019 02:00:00 11.05 C 8.41 g/m*3 11.05 C 0 km/h
196 08-07-2019 03:00:00 10.94167 C 8.33 g/m*3 10.94 C 0.26667 km/h
197 08-07-2019 04:00:00 10.78333 C 8.29 g/m*3 10.78 C 0.53333 km/h
198 08-07-2019 05:00:00 9.89167 C 8.1 g/m*3 9.89 C 0 km/h
199 08-07-2019 06:00:00 9.55833 C 8.18 g/m*3 9.56 C 0 km/h
200 08-07-2019 07:00:00 9.975 C 8.54 g/m*3 9.98 C 0 km/h
Sensor: Nr:Datum:Temp:Abs-Feuchte:Windchill:Wind:
Aussen-T/F 201 08-07-2019 08:00:00 11.225 C 9.15 g/m*3 11.23 C 0.53333 km/h
202 08-07-2019 09:00:00 14.18333 C 9.01 g/m*3 14.18 C 8.45 km/h
203 08-07-2019 10:00:00 15.65833 C 8.36 g/m*3 15.66 C 9.28333 km/h
204 08-07-2019 11:00:00 16.14167 C 8.5 g/m*3 16.14 C 10.36667 km/h
205 08-07-2019 12:00:00 16.68333 C 8.46 g/m*3 16.68 C 11.43333 km/h
206 08-07-2019 13:00:00 17.05833 C 8.45 g/m*3 17.06 C 9.69167 km/h
207 08-07-2019 14:00:00 17.33333 C 8.51 g/m*3 17.33 C 8.33333 km/h
208 08-07-2019 15:00:00 17.49167 C 8.62 g/m*3 17.49 C 10.36667 km/h
209 08-07-2019 16:00:00 18.025 C 8.77 g/m*3 18.02 C 9.825 km/h
210 08-07-2019 17:00:00 18.16667 C 8.87 g/m*3 18.17 C 10.36667 km/h
211 08-07-2019 18:00:00 18.04167 C 8.82 g/m*3 18.04 C 9.68333 km/h
212 08-07-2019 19:00:00 17.75833 C 8.79 g/m*3 17.76 C 7.94167 km/h
213 08-07-2019 20:00:00 17.69167 C 8.82 g/m*3 17.69 C 6.025 km/h
214 08-07-2019 21:00:00 16.26667 C 9.01 g/m*3 16.27 C 2.8 km/h
215 08-07-2019 22:00:00 13.975 C 9.01 g/m*3 13.98 C 0 km/h
216 08-07-2019 23:00:00 14.11667 C 9.16 g/m*3 14.12 C 0.53333 km/h
217 09-07-2019 00:00:00 13.29167 C 9.16 g/m*3 13.29 C 0.13333 km/h
218 09-07-2019 01:00:00 12.7 C 9.06 g/m*3 12.7 C 0 km/h
219 09-07-2019 02:00:00 11.88333 C 8.87 g/m*3 11.88 C 0 km/h
220 09-07-2019 03:00:00 11.11667 C 8.79 g/m*3 11.12 C 0 km/h
221 09-07-2019 04:00:00 10.43333 C 8.53 g/m*3 10.43 C 0 km/h
222 09-07-2019 05:00:00 9.80833 C 8.37 g/m*3 9.81 C 0 km/h
223 09-07-2019 06:00:00 9.725 C 8.43 g/m*3 9.73 C 0 km/h
224 09-07-2019 07:00:00 10.91667 C 9.03 g/m*3 10.92 C 0.8 km/h
225 09-07-2019 08:00:00 12.98333 C 9.22 g/m*3 12.98 C 1.6 km/h
Sensor: Nr:Datum:Temp:Abs-Feuchte:Windchill:Wind:
Aussen-T/F 226 09-07-2019 09:00:00 14.2 C 9.26 g/m*3 14.2 C 3.475 km/h
227 09-07-2019 10:00:00 14.9 C 9.01 g/m*3 14.9 C 4.4 km/h
228 09-07-2019 11:00:00 16.09167 C 8.28 g/m*3 16.09 C 9.95 km/h
229 09-07-2019 12:00:00 16.86667 C 8.13 g/m*3 16.87 C 9.55 km/h
230 09-07-2019 13:00:00 17.68333 C 7.9 g/m*3 17.68 C 11.16667 km/h
231 09-07-2019 14:00:00 18.6 C 7.83 g/m*3 18.6 C 11.69167 km/h
232 09-07-2019 15:00:00 19.73333 C 7.81 g/m*3 19.73 C 12.225 km/h
233 09-07-2019 16:00:00 20.475 C 7.77 g/m*3 20.48 C 10.9 km/h
234 09-07-2019 17:00:00 21.725 C 7.55 g/m*3 21.73 C 12.36667 km/h
235 09-07-2019 18:00:00 21.06667 C 7.31 g/m*3 21.07 C 11.56667 km/h
236 09-07-2019 19:00:00 20.98333 C 7.46 g/m*3 20.98 C 9.825 km/h
237 09-07-2019 20:00:00 19.525 C 7.82 g/m*3 19.52 C 3.06667 km/h
238 09-07-2019 21:00:00 17.04167 C 8.24 g/m*3 17.04 C 0.26667 km/h
239 09-07-2019 22:00:00 14.95 C 7.99 g/m*3 14.95 C 0.26667 km/h
240 09-07-2019 23:00:00 13.10833 C 8.2 g/m*3 13.11 C 0 km/h
241 10-07-2019 00:00:00 12.05 C 8.03 g/m*3 12.05 C 0 km/h
242 10-07-2019 01:00:00 11.01667 C 7.82 g/m*3 11.02 C 0 km/h
243 10-07-2019 02:00:00 10.01667 C 7.63 g/m*3 10.02 C 0 km/h
244 10-07-2019 03:00:00 9.05 C 7.49 g/m*3 9.05 C 0 km/h
245 10-07-2019 04:00:00 8.5 C 7.43 g/m*3 8.5 C 0 km/h
246 10-07-2019 05:00:00 8.23333 C 7.43 g/m*3 8.23 C 0 km/h
247 10-07-2019 06:00:00 8.10833 C 7.47 g/m*3 8.11 C 0 km/h
248 10-07-2019 07:00:00 8.46667 C 7.72 g/m*3 8.47 C 0 km/h
249 10-07-2019 08:00:00 10 C 8.47 g/m*3 10 C 0 km/h
250 10-07-2019 09:00:00 12.49167 C 8.99 g/m*3 12.49 C 1.33333 km/h
Sensor: Nr:Datum:Temp:Abs-Feuchte:Windchill:Wind:
Aussen-T/F 251 10-07-2019 10:00:00 16.09167 C 9.38 g/m*3 16.09 C 2.53333 km/h
252 10-07-2019 11:00:00 18.40833 C 8.59 g/m*3 18.41 C 5.49167 km/h
253 10-07-2019 12:00:00 19.80833 C 7.29 g/m*3 19.81 C 7.25833 km/h
254 10-07-2019 13:00:00 21.15833 C 6.55 g/m*3 21.16 C 9.15 km/h
255 10-07-2019 14:00:00 22.70833 C 6.23 g/m*3 22.71 C 10.08333 km/h
256 10-07-2019 15:00:00 24.41667 C 6.29 g/m*3 24.42 C 9.01667 km/h
257 10-07-2019 16:00:00 25.66667 C 6.37 g/m*3 25.67 C 10.35833 km/h
258 10-07-2019 17:00:00 26.63333 C 6.41 g/m*3 26.63 C 9.40833 km/h
259 10-07-2019 18:00:00 26.76667 C 6.54 g/m*3 26.77 C 9.54167 km/h
260 10-07-2019 19:00:00 25.75 C 6.74 g/m*3 25.75 C 9.68333 km/h
261 10-07-2019 20:00:00 23.525 C 7.13 g/m*3 23.53 C 5.63333 km/h
262 10-07-2019 21:00:00 20.74167 C 7.82 g/m*3 20.74 C 0.13333 km/h
263 10-07-2019 22:00:00 19.21667 C 7.96 g/m*3 19.22 C 0 km/h
264 10-07-2019 23:00:00 18.9 C 8.42 g/m*3 18.9 C 2.55 km/h
265 11-07-2019 00:00:00 19.10833 C 8.92 g/m*3 19.11 C 1.2 km/h
266 11-07-2019 01:00:00 17.8 C 9.27 g/m*3 17.8 C 0 km/h
267 11-07-2019 02:00:00 17.175 C 9.63 g/m*3 17.18 C 0 km/h
268 11-07-2019 03:00:00 16.875 C 10.08 g/m*3 16.88 C 0 km/h
269 11-07-2019 04:00:00 16.59167 C 10.26 g/m*3 16.59 C 0 km/h
270 11-07-2019 05:00:00 16.34167 C 10.18 g/m*3 16.34 C 0 km/h
271 11-07-2019 06:00:00 16.39167 C 10.36 g/m*3 16.39 C 0 km/h
272 11-07-2019 07:00:00 17.23333 C 10.53 g/m*3 17.23 C 0.13333 km/h
273 11-07-2019 08:00:00 17.85833 C 10.51 g/m*3 17.86 C 0.4 km/h
274 11-07-2019 09:00:00 18.675 C 10.95 g/m*3 18.68 C 0.66667 km/h
275 11-07-2019 10:00:00 18.7 C 11.31 g/m*3 18.7 C 0.53333 km/h
Sensor: Nr:Datum:Temp:Abs-Feuchte:Windchill:Wind:
Aussen-T/F 276 11-07-2019 11:00:00 18.9 C 11.26 g/m*3 18.9 C 4.975 km/h
277 11-07-2019 12:00:00 17.35 C 12.1 g/m*3 17.35 C 5.63333 km/h
278 11-07-2019 13:00:00 16.31667 C 12.61 g/m*3 16.32 C 2.53333 km/h
279 11-07-2019 14:00:00 16.79167 C 13.25 g/m*3 16.79 C 0.53333 km/h
280 11-07-2019 15:00:00 17.575 C 13.85 g/m*3 17.58 C 2.26667 km/h
281 11-07-2019 16:00:00 19.11667 C 14.66 g/m*3 19.12 C 7.51667 km/h
282 11-07-2019 17:00:00 20.88333 C 15.37 g/m*3 20.88 C 2.8 km/h
283 11-07-2019 18:00:00 19.50833 C 15.13 g/m*3 19.51 C 0.4 km/h
284 11-07-2019 19:00:00 18.3 C 14.55 g/m*3 18.3 C 0.93333 km/h
285 11-07-2019 20:00:00 18.04167 C 14.47 g/m*3 18.04 C 0 km/h
286 11-07-2019 21:00:00 17.44167 C 13.97 g/m*3 17.44 C 0 km/h
287 11-07-2019 22:00:00 16.85 C 13.61 g/m*3 16.85 C 0 km/h
288 11-07-2019 23:00:00 16.43333 C 13.3 g/m*3 16.43 C 0.93333 km/h
289 12-07-2019 00:00:00 16.05 C 13.12 g/m*3 16.05 C 1.6 km/h
290 12-07-2019 01:00:00 15.70833 C 12.85 g/m*3 15.71 C 1.06667 km/h
291 12-07-2019 02:00:00 15.34167 C 12.57 g/m*3 15.34 C 0.26667 km/h
292 12-07-2019 03:00:00 15.31667 C 12.61 g/m*3 15.32 C 0.26667 km/h
293 12-07-2019 04:00:00 14.93333 C 12.31 g/m*3 14.93 C 0 km/h
294 12-07-2019 05:00:00 14.58333 C 12.13 g/m*3 14.58 C 0 km/h
295 12-07-2019 06:00:00 14.75833 C 12.26 g/m*3 14.76 C 0 km/h
296 12-07-2019 07:00:00 15.73333 C 13.03 g/m*3 15.73 C 1.46667 km/h
297 12-07-2019 08:00:00 16.45833 C 13.6 g/m*3 16.46 C 0 km/h
298 12-07-2019 09:00:00 17.45 C 14.48 g/m*3 17.45 C 0.66667 km/h
299 12-07-2019 10:00:00 18.78333 C 15.28 g/m*3 18.78 C 1.73333 km/h
300 12-07-2019 11:00:00 20.325 C 15.63 g/m*3 20.33 C 0.4 km/h
Sensor: Nr:Datum:Temp:Abs-Feuchte:Windchill:Wind:
Aussen-T/F 301 12-07-2019 12:00:00 19.04167 C 14.99 g/m*3 19.04 C 0.8 km/h
302 12-07-2019 13:00:00 17.98333 C 14.46 g/m*3 17.98 C 1.86667 km/h
303 12-07-2019 14:00:00 17.70833 C 14.21 g/m*3 17.71 C 3.06667 km/h
304 12-07-2019 15:00:00 19.6 C 15.04 g/m*3 19.6 C 6.96667 km/h
305 12-07-2019 16:00:00 20.76667 C 15.69 g/m*3 20.77 C 1.06667 km/h
306 12-07-2019 17:00:00 19.975 C 13.79 g/m*3 19.98 C 8.59167 km/h
307 12-07-2019 18:00:00 18.30833 C 13.28 g/m*3 18.31 C 1.46667 km/h
308 12-07-2019 19:00:00 17.55833 C 13.12 g/m*3 17.56 C 4.825 km/h
309 12-07-2019 20:00:00 18.23333 C 13.74 g/m*3 18.23 C 4.025 km/h
310 12-07-2019 21:00:00 17.63333 C 13.07 g/m*3 17.63 C 6.16667 km/h
311 12-07-2019 22:00:00 17.3 C 12.71 g/m*3 17.3 C 7.64167 km/h
312 12-07-2019 23:00:00 16.55 C 12.44 g/m*3 16.55 C 1.73333 km/h
313 13-07-2019 00:00:00 16.34167 C 12.05 g/m*3 16.34 C 4.55 km/h
314 13-07-2019 01:00:00 16.13333 C 12.35 g/m*3 16.13 C 4.14167 km/h
315 13-07-2019 02:00:00 15.51667 C 12.44 g/m*3 15.52 C 0.53333 km/h
316 13-07-2019 03:00:00 15.175 C 12.3 g/m*3 15.18 C 2.14167 km/h
317 13-07-2019 04:00:00 14.99167 C 12.19 g/m*3 14.99 C 1.875 km/h
318 13-07-2019 05:00:00 14.90833 C 12.24 g/m*3 14.91 C 0 km/h
319 13-07-2019 06:00:00 14.75 C 12.12 g/m*3 14.75 C 1.2 km/h
320 13-07-2019 07:00:00 14.93333 C 12.28 g/m*3 14.93 C 1.06667 km/h
321 13-07-2019 08:00:00 15.61667 C 12.8 g/m*3 15.62 C 1.2 km/h
322 13-07-2019 09:00:00 15.83333 C 12.88 g/m*3 15.83 C 1.46667 km/h
323 13-07-2019 10:00:00 16.5 C 12.78 g/m*3 16.5 C 5.9 km/h
324 13-07-2019 11:00:00 17.51667 C 13.18 g/m*3 17.52 C 5.64167 km/h
325 13-07-2019 12:00:00 18.75833 C 13.09 g/m*3 18.76 C 4.675 km/h
Sensor: Nr:Datum:Temp:Abs-Feuchte:Windchill:Wind:
Aussen-T/F 326 13-07-2019 13:00:00 19.725 C 12.91 g/m*3 19.73 C 9.8 km/h
327 13-07-2019 14:00:00 21.15 C 12.8 g/m*3 21.15 C 13.16667 km/h
328 13-07-2019 15:00:00 21.18333 C 13.16 g/m*3 21.18 C 14.35833 km/h
329 13-07-2019 16:00:00 20.90833 C 12.56 g/m*3 20.91 C 13.425 km/h
330 13-07-2019 17:00:00 21.84167 C 12.92 g/m*3 21.84 C 11.7 km/h
331 13-07-2019 18:00:00 22.38333 C 12.75 g/m*3 22.38 C 10.625 km/h
332 13-07-2019 19:00:00 22.70833 C 12.73 g/m*3 22.71 C 9 km/h
333 13-07-2019 20:00:00 20.45833 C 12.45 g/m*3 20.46 C 8.475 km/h
334 13-07-2019 21:00:00 19.2 C 12.74 g/m*3 19.2 C 4.425 km/h
335 13-07-2019 22:00:00 18.225 C 13.24 g/m*3 18.23 C 2.425 km/h
336 13-07-2019 23:00:00 17.21667 C 13.13 g/m*3 17.22 C 0.26667 km/h
337 14-07-2019 00:00:00 16.95 C 12.95 g/m*3 16.95 C 1.06667 km/h
338 14-07-2019 01:00:00 16.975 C 12.8 g/m*3 16.98 C 3.48333 km/h
339 14-07-2019 02:00:00 16.35833 C 12.48 g/m*3 16.36 C 6.04167 km/h
340 14-07-2019 03:00:00 15.44167 C 11.98 g/m*3 15.44 C 4.01667 km/h
341 14-07-2019 04:00:00 15.11667 C 11.74 g/m*3 15.12 C 3.2 km/h
342 14-07-2019 05:00:00 14.85 C 11.47 g/m*3 14.85 C 3.48333 km/h
343 14-07-2019 06:00:00 14.71667 C 11.46 g/m*3 14.72 C 3.2 km/h
344 14-07-2019 07:00:00 14.86667 C 11.04 g/m*3 14.87 C 2 km/h
345 14-07-2019 08:00:00 15.40833 C 11.22 g/m*3 15.41 C 4.80833 km/h
346 14-07-2019 09:00:00 15.26667 C 10.97 g/m*3 15.27 C 6.56667 km/h
347 14-07-2019 10:00:00 16.00833 C 10.6 g/m*3 16.01 C 9.29167 km/h
348 14-07-2019 11:00:00 16.83333 C 10.48 g/m*3 16.83 C 9.28333 km/h
349 14-07-2019 12:00:00 17.53333 C 10.37 g/m*3 17.53 C 9.95833 km/h
350 14-07-2019 13:00:00 17.80833 C 10.15 g/m*3 17.81 C 10.1 km/h
Sensor: Nr:Datum:Temp:Abs-Feuchte:Windchill:Wind:
Aussen-T/F 351 14-07-2019 14:00:00 18.19167 C 9.99 g/m*3 18.19 C 11.16667 km/h
352 14-07-2019 15:00:00 18.925 C 9.91 g/m*3 18.93 C 10.76667 km/h
353 14-07-2019 16:00:00 19.33333 C 9.78 g/m*3 19.33 C 13.3 km/h
354 14-07-2019 17:00:00 19.34167 C 9.74 g/m*3 19.34 C 9.00833 km/h
355 14-07-2019 18:00:00 18.65833 C 9.88 g/m*3 18.66 C 10.35 km/h
356 14-07-2019 19:00:00 18.36667 C 9.73 g/m*3 18.37 C 10.35833 km/h
357 14-07-2019 20:00:00 17.89167 C 10.07 g/m*3 17.89 C 9.94167 km/h
358 14-07-2019 21:00:00 17.45 C 10.02 g/m*3 17.45 C 7.25 km/h
359 14-07-2019 22:00:00 17.125 C 9.93 g/m*3 17.13 C 3.74167 km/h
360 14-07-2019 23:00:00 16.8 C 10.16 g/m*3 16.8 C 3.60833 km/h
361 15-07-2019 00:00:00 16.06667 C 10.5 g/m*3 16.07 C 1.2 km/h
362 15-07-2019 01:00:00 15.63333 C 10.49 g/m*3 15.63 C 2.675 km/h
363 15-07-2019 02:00:00 15.55833 C 10.66 g/m*3 15.56 C 0.13333 km/h
364 15-07-2019 03:00:00 14.99167 C 10.7 g/m*3 14.99 C 0 km/h
365 15-07-2019 04:00:00 15.30833 C 10.22 g/m*3 15.31 C 2.66667 km/h
366 15-07-2019 05:00:00 15.65 C 9.93 g/m*3 15.65 C 4.81667 km/h
367 15-07-2019 06:00:00 15.6 C 9.86 g/m*3 15.6 C 3.33333 km/h
368 15-07-2019 07:00:00 15.69167 C 9.9 g/m*3 15.69 C 5.49167 km/h
369 15-07-2019 08:00:00 15.83333 C 9.99 g/m*3 15.83 C 6.7 km/h
370 15-07-2019 09:00:00 16.53333 C 10.05 g/m*3 16.53 C 6.44167 km/h
371 15-07-2019 10:00:00 16.8 C 10.32 g/m*3 16.8 C 5.48333 km/h
372 15-07-2019 11:00:00 16.84167 C 10.67 g/m*3 16.84 C 7.525 km/h
373 15-07-2019 12:00:00 17.10833 C 10.61 g/m*3 17.11 C 9.7 km/h
374 15-07-2019 13:00:00 17.49167 C 10.39 g/m*3 17.49 C 11.43333 km/h
375 15-07-2019 14:00:00 18.09167 C 10.24 g/m*3 18.09 C 12.49167 km/h
Sensor: Nr:Datum:Temp:Abs-Feuchte:Windchill:Wind:
Aussen-T/F 376 15-07-2019 15:00:00 17.68333 C 10.24 g/m*3 17.68 C 10.75833 km/h
377 15-07-2019 16:00:00 17.11667 C 10.27 g/m*3 17.12 C 8.73333 km/h
378 15-07-2019 17:00:00 16.775 C 10.23 g/m*3 16.77 C 8.74167 km/h
379 15-07-2019 18:00:00 16.69167 C 10.17 g/m*3 16.69 C 6.56667 km/h
380 15-07-2019 19:00:00 16.78333 C 10.14 g/m*3 16.78 C 5.09167 km/h
381 15-07-2019 20:00:00 16.69167 C 10.1 g/m*3 16.69 C 4.01667 km/h
382 15-07-2019 21:00:00 16.34167 C 10.28 g/m*3 16.34 C 2.13333 km/h
383 15-07-2019 22:00:00 15.61667 C 10.58 g/m*3 15.62 C 0 km/h
384 15-07-2019 23:00:00 15.44167 C 10.18 g/m*3 15.44 C 0.93333 km/h
385 16-07-2019 00:00:00 14.75 C 10.08 g/m*3 14.75 C 0 km/h
386 16-07-2019 01:00:00 13.675 C 9.5 g/m*3 13.68 C 0 km/h
387 16-07-2019 02:00:00 12.23333 C 9.25 g/m*3 12.23 C 0 km/h
388 16-07-2019 03:00:00 10.9 C 8.98 g/m*3 10.9 C 0 km/h
389 16-07-2019 04:00:00 10.28333 C 8.83 g/m*3 10.28 C 0 km/h
390 16-07-2019 05:00:00 9.98333 C 8.75 g/m*3 9.98 C 0 km/h
391 16-07-2019 06:00:00 10.125 C 8.94 g/m*3 10.13 C 1.33333 km/h
392 16-07-2019 07:00:00 11.01667 C 9.39 g/m*3 11.02 C 4.4 km/h
393 16-07-2019 08:00:00 12.625 C 10.06 g/m*3 12.63 C 2.4 km/h
394 16-07-2019 09:00:00 14.58333 C 10.52 g/m*3 14.58 C 4.15 km/h
395 16-07-2019 10:00:00 15.51667 C 10.25 g/m*3 15.52 C 6.84167 km/h
396 16-07-2019 11:00:00 15.99167 C 10.17 g/m*3 15.99 C 9.66667 km/h
397 16-07-2019 12:00:00 16.725 C 10.22 g/m*3 16.73 C 10.49167 km/h
398 16-07-2019 13:00:00 17.40833 C 10.29 g/m*3 17.41 C 8.46667 km/h
399 16-07-2019 14:00:00 18.38333 C 10.45 g/m*3 18.38 C 9.95 km/h
400 16-07-2019 15:00:00 20.325 C 10.73 g/m*3 20.33 C 7.78333 km/h
Sensor: Nr:Datum:Temp:Abs-Feuchte:Windchill:Wind:
Aussen-T/F 401 16-07-2019 16:00:00 22.31667 C 10.84 g/m*3 22.32 C 8.325 km/h
402 16-07-2019 17:00:00 22.8 C 10.79 g/m*3 22.8 C 9.55833 km/h
403 16-07-2019 18:00:00 23.075 C 10.73 g/m*3 23.08 C 8.05833 km/h
404 16-07-2019 19:00:00 22.125 C 10.59 g/m*3 22.13 C 8.89167 km/h
405 16-07-2019 20:00:00 20.81667 C 10.57 g/m*3 20.82 C 6.45 km/h
406 16-07-2019 21:00:00 18.30833 C 10.98 g/m*3 18.31 C 0.53333 km/h
407 16-07-2019 22:00:00 15.85 C 10.64 g/m*3 15.85 C 0 km/h
408 16-07-2019 23:00:00 15.08333 C 10.54 g/m*3 15.08 C 0 km/h
409 17-07-2019 00:00:00 14.09167 C 10.23 g/m*3 14.09 C 0 km/h
410 17-07-2019 01:00:00 13.08333 C 10.06 g/m*3 13.08 C 0 km/h
411 17-07-2019 02:00:00 12.40833 C 9.81 g/m*3 12.41 C 0 km/h
412 17-07-2019 03:00:00 11.64167 C 9.54 g/m*3 11.64 C 0 km/h
413 17-07-2019 04:00:00 11.225 C 9.42 g/m*3 11.23 C 0.26667 km/h
414 17-07-2019 05:00:00 10.83333 C 9.29 g/m*3 10.83 C 0 km/h
415 17-07-2019 06:00:00 10.74167 C 9.31 g/m*3 10.74 C 0 km/h
416 17-07-2019 07:00:00 11.51667 C 9.83 g/m*3 11.52 C 0 km/h
417 17-07-2019 08:00:00 12.79167 C 10.58 g/m*3 12.79 C 0 km/h
418 17-07-2019 09:00:00 14.85833 C 11.26 g/m*3 14.86 C 1.86667 km/h
419 17-07-2019 10:00:00 17.23333 C 11.36 g/m*3 17.23 C 5.35833 km/h
420 17-07-2019 11:00:00 18.58333 C 11.4 g/m*3 18.58 C 6.58333 km/h
421 17-07-2019 12:00:00 19.39167 C 11.46 g/m*3 19.39 C 7.375 km/h
422 17-07-2019 13:00:00 20.5 C 11.2 g/m*3 20.5 C 8.88333 km/h
423 17-07-2019 14:00:00 21.69167 C 11.23 g/m*3 21.69 C 9.13333 km/h
424 17-07-2019 15:00:00 22.69167 C 11.71 g/m*3 22.69 C 12.63333 km/h
425 17-07-2019 16:00:00 23.675 C 11.73 g/m*3 23.68 C 11.55833 km/h
Sensor: Nr:Datum:Temp:Abs-Feuchte:Windchill:Wind:
Aussen-T/F 426 17-07-2019 17:00:00 24.575 C 11.91 g/m*3 24.58 C 10.225 km/h
427 17-07-2019 18:00:00 24.24167 C 11.95 g/m*3 24.24 C 11.3 km/h
428 17-07-2019 19:00:00 23.20833 C 12.17 g/m*3 23.21 C 10.23333 km/h
429 17-07-2019 20:00:00 21.525 C 12.13 g/m*3 21.53 C 8.74167 km/h
430 17-07-2019 21:00:00 19.69167 C 11.99 g/m*3 19.69 C 2.68333 km/h
431 17-07-2019 22:00:00 17.05 C 11.61 g/m*3 17.05 C 0.13333 km/h
432 17-07-2019 23:00:00 16.025 C 11.53 g/m*3 16.02 C 0 km/h
433 18-07-2019 00:00:00 15.29167 C 11.24 g/m*3 15.29 C 0 km/h
434 18-07-2019 01:00:00 14.29167 C 10.87 g/m*3 14.29 C 0 km/h
435 18-07-2019 02:00:00 13.69167 C 10.8 g/m*3 13.69 C 0 km/h
436 18-07-2019 03:00:00 13.45833 C 10.76 g/m*3 13.46 C 0 km/h
437 18-07-2019 04:00:00 13.24167 C 10.7 g/m*3 13.24 C 0 km/h
438 18-07-2019 05:00:00 12.675 C 10.35 g/m*3 12.68 C 0 km/h
439 18-07-2019 06:00:00 12.45833 C 10.34 g/m*3 12.46 C 0 km/h
440 18-07-2019 07:00:00 13.25833 C 10.95 g/m*3 13.26 C 0 km/h
441 18-07-2019 08:00:00 14.31667 C 11.46 g/m*3 14.32 C 0.13333 km/h
442 18-07-2019 09:00:00 16.21667 C 12.3 g/m*3 16.22 C 0 km/h
443 18-07-2019 10:00:00 18.83333 C 13.12 g/m*3 18.83 C 0.13333 km/h
444 18-07-2019 11:00:00 21.89167 C 12.42 g/m*3 21.89 C 5.24167 km/h
445 18-07-2019 12:00:00 24.18333 C 11.91 g/m*3 24.18 C 4.675 km/h
446 18-07-2019 13:00:00 25.71667 C 11.76 g/m*3 25.72 C 6.15 km/h
447 18-07-2019 14:00:00 27.20833 C 10.7 g/m*3 27.21 C 10.325 km/h
448 18-07-2019 15:00:00 26.04167 C 10.96 g/m*3 26.04 C 7.525 km/h
449 18-07-2019 16:00:00 24.76667 C 11.91 g/m*3 24.77 C 6.70833 km/h
450 18-07-2019 17:00:00 24.84167 C 12.8 g/m*3 24.84 C 2.675 km/h
Sensor: Nr:Datum:Temp:Abs-Feuchte:Windchill:Wind:
Aussen-T/F 451 18-07-2019 18:00:00 23.975 C 13.63 g/m*3 23.98 C 1.86667 km/h
452 18-07-2019 19:00:00 21.06667 C 13.65 g/m*3 21.07 C 0 km/h
453 18-07-2019 20:00:00 20.86667 C 12.72 g/m*3 20.87 C 0.13333 km/h
454 18-07-2019 21:00:00 20.35 C 12.19 g/m*3 20.35 C 0 km/h
455 18-07-2019 22:00:00 19.66667 C 12.15 g/m*3 19.67 C 0.26667 km/h
456 18-07-2019 23:00:00 19.35833 C 12.07 g/m*3 19.36 C 0 km/h
457 19-07-2019 00:00:00 19.33333 C 12.31 g/m*3 19.33 C 0 km/h
458 19-07-2019 01:00:00 18.45833 C 13.01 g/m*3 18.46 C 0 km/h
459 19-07-2019 02:00:00 17.05833 C 13.06 g/m*3 17.06 C 0 km/h
460 19-07-2019 03:00:00 16.60833 C 13.05 g/m*3 16.61 C 0 km/h
461 19-07-2019 04:00:00 16.375 C 13.02 g/m*3 16.38 C 0 km/h
462 19-07-2019 05:00:00 16.3 C 13.06 g/m*3 16.3 C 0 km/h
463 19-07-2019 06:00:00 16.35 C 13.22 g/m*3 16.35 C 0 km/h
464 19-07-2019 07:00:00 16.7 C 13.54 g/m*3 16.7 C 0 km/h
465 19-07-2019 08:00:00 17.23333 C 14.09 g/m*3 17.23 C 0.4 km/h
466 19-07-2019 09:00:00 18.025 C 14.59 g/m*3 18.02 C 2.55 km/h
467 19-07-2019 10:00:00 19.275 C 14.96 g/m*3 19.27 C 6.16667 km/h
468 19-07-2019 11:00:00 20.475 C 14.87 g/m*3 20.48 C 6.725 km/h
469 19-07-2019 12:00:00 20.04167 C 14.93 g/m*3 20.04 C 2.94167 km/h
470 19-07-2019 13:00:00 21.975 C 14.5 g/m*3 21.98 C 7.54167 km/h
471 19-07-2019 14:00:00 23.525 C 12.9 g/m*3 23.53 C 10.73333 km/h
472 19-07-2019 15:00:00 24.875 C 12.08 g/m*3 24.88 C 10.76667 km/h
473 19-07-2019 16:00:00 25.21667 C 11.79 g/m*3 25.22 C 10.23333 km/h
474 19-07-2019 17:00:00 25.91667 C 12.02 g/m*3 25.92 C 8.2 km/h
475 19-07-2019 18:00:00 25.43333 C 12.05 g/m*3 25.43 C 6.425 km/h
Sensor: Nr:Datum:Temp:Abs-Feuchte:Windchill:Wind:
Aussen-T/F 476 19-07-2019 19:00:00 24.78333 C 13.68 g/m*3 24.78 C 1.6 km/h
477 19-07-2019 20:00:00 23.25833 C 13.4 g/m*3 23.26 C 0.8 km/h
478 19-07-2019 21:00:00 20.90833 C 13.04 g/m*3 20.91 C 0 km/h
479 19-07-2019 22:00:00 19.20833 C 13.05 g/m*3 19.21 C 0 km/h
480 19-07-2019 23:00:00 18.525 C 13.14 g/m*3 18.52 C 0 km/h
481 20-07-2019 00:00:00 17.39167 C 12.76 g/m*3 17.39 C 0 km/h
482 20-07-2019 01:00:00 16.6 C 12.47 g/m*3 16.6 C 0 km/h
483 20-07-2019 02:00:00 15.74167 C 12.14 g/m*3 15.74 C 0 km/h
484 20-07-2019 03:00:00 15.025 C 11.87 g/m*3 15.03 C 0 km/h
485 20-07-2019 04:00:00 14.55833 C 11.66 g/m*3 14.56 C 0 km/h
486 20-07-2019 05:00:00 14.18333 C 11.48 g/m*3 14.18 C 0 km/h
487 20-07-2019 06:00:00 13.96667 C 11.43 g/m*3 13.97 C 0 km/h
488 20-07-2019 07:00:00 14.56667 C 11.96 g/m*3 14.57 C 0 km/h
489 20-07-2019 08:00:00 15.86667 C 12.97 g/m*3 15.87 C 0 km/h
490 20-07-2019 09:00:00 17.73333 C 14.34 g/m*3 17.73 C 0 km/h
491 20-07-2019 10:00:00 21.4 C 16.36 g/m*3 21.4 C 0 km/h
492 20-07-2019 11:00:00 25.8 C 15.23 g/m*3 25.8 C 7.65 km/h
493 20-07-2019 12:00:00 27.775 C 13.81 g/m*3 27.78 C 12.36667 km/h
494 20-07-2019 13:00:00 28.175 C 13.87 g/m*3 28.18 C 8.6 km/h
495 20-07-2019 14:00:00 30.04167 C 13.8 g/m*3 30.04 C 13.96667 km/h
496 20-07-2019 15:00:00 30.8 C 13.85 g/m*3 30.8 C 10.35 km/h
497 20-07-2019 16:00:00 28.94167 C 18.44 g/m*3 28.94 C 5.09167 km/h
498 20-07-2019 17:00:00 28.35 C 16.89 g/m*3 28.35 C 12.75833 km/h
499 20-07-2019 18:00:00 28.925 C 14.11 g/m*3 28.93 C 10.60833 km/h
500 20-07-2019 19:00:00 27.50833 C 14.18 g/m*3 27.51 C 15.16667 km/h
Sensor: Nr:Datum:Temp:Abs-Feuchte:Windchill:Wind:
Aussen-T/F 501 20-07-2019 20:00:00 23.425 C 14.65 g/m*3 23.43 C 3.35 km/h
502 20-07-2019 21:00:00 21.725 C 14.53 g/m*3 21.73 C 0 km/h
503 20-07-2019 22:00:00 20.56667 C 14.31 g/m*3 20.57 C 0 km/h
504 20-07-2019 23:00:00 19.75 C 14.23 g/m*3 19.75 C 0 km/h
505 21-07-2019 00:00:00 19.08333 C 14.03 g/m*3 19.08 C 0 km/h
506 21-07-2019 01:00:00 18.58333 C 13.98 g/m*3 18.58 C 0 km/h
507 21-07-2019 02:00:00 18.875 C 14.19 g/m*3 18.88 C 0 km/h
508 21-07-2019 03:00:00 18.65 C 14.15 g/m*3 18.65 C 0 km/h
509 21-07-2019 04:00:00 17.95 C 13.68 g/m*3 17.95 C 0 km/h
510 21-07-2019 05:00:00 17.46667 C 13.56 g/m*3 17.47 C 0 km/h
511 21-07-2019 06:00:00 17.73333 C 13.86 g/m*3 17.73 C 0 km/h
512 21-07-2019 07:00:00 18.5 C 14.11 g/m*3 18.5 C 0 km/h
513 21-07-2019 08:00:00 19.34167 C 13.37 g/m*3 19.34 C 2.4 km/h
514 21-07-2019 09:00:00 20.30833 C 13.02 g/m*3 20.31 C 7.53333 km/h
515 21-07-2019 10:00:00 21.85833 C 12.75 g/m*3 21.86 C 7.25 km/h
516 21-07-2019 11:00:00 23.79167 C 11.57 g/m*3 23.79 C 11.41667 km/h
517 21-07-2019 12:00:00 24.96667 C 11.74 g/m*3 24.97 C 11.55833 km/h
518 21-07-2019 13:00:00 24.95833 C 12.23 g/m*3 24.96 C 9.15 km/h
519 21-07-2019 14:00:00 26.01667 C 12.45 g/m*3 26.02 C 9.825 km/h
520 21-07-2019 15:00:00 26.84167 C 12.33 g/m*3 26.84 C 11.55833 km/h
521 21-07-2019 16:00:00 27.76667 C 12.33 g/m*3 27.77 C 10.09167 km/h
522 21-07-2019 17:00:00 27.275 C 12.43 g/m*3 27.28 C 11.16667 km/h
523 21-07-2019 18:00:00 26.44167 C 12.29 g/m*3 26.44 C 9.41667 km/h
524 21-07-2019 19:00:00 25.40833 C 12.29 g/m*3 25.41 C 8.2 km/h
525 21-07-2019 20:00:00 24.4 C 12.2 g/m*3 24.4 C 7.51667 km/h
Sensor: Nr:Datum:Temp:Abs-Feuchte:Windchill:Wind:
Aussen-T/F 526 21-07-2019 21:00:00 22.64167 C 12.32 g/m*3 22.64 C 0.93333 km/h
527 21-07-2019 22:00:00 19.85 C 12.25 g/m*3 19.85 C 0 km/h
528 21-07-2019 23:00:00 18.35 C 12.26 g/m*3 18.35 C 0 km/h
529 22-07-2019 00:00:00 17.075 C 11.79 g/m*3 17.08 C 0 km/h
530 22-07-2019 01:00:00 16.15833 C 11.58 g/m*3 16.16 C 0 km/h
531 22-07-2019 02:00:00 15.64167 C 11.65 g/m*3 15.64 C 0 km/h
532 22-07-2019 03:00:00 15.33333 C 11.56 g/m*3 15.33 C 0 km/h
533 22-07-2019 04:00:00 14.74167 C 11.3 g/m*3 14.74 C 0 km/h
534 22-07-2019 05:00:00 14.3 C 11.17 g/m*3 14.3 C 0 km/h
535 22-07-2019 06:00:00 14.175 C 11.2 g/m*3 14.18 C 0 km/h
536 22-07-2019 07:00:00 14.725 C 11.7 g/m*3 14.73 C 0 km/h
537 22-07-2019 08:00:00 16.28333 C 12.37 g/m*3 16.28 C 0 km/h
538 22-07-2019 09:00:00 18.20833 C 13.05 g/m*3 18.21 C 0 km/h
539 22-07-2019 10:00:00 20.80833 C 13.45 g/m*3 20.81 C 0 km/h
540 22-07-2019 11:00:00 24.00833 C 12.62 g/m*3 24.01 C 5.225 km/h
541 22-07-2019 12:00:00 25.55833 C 12.49 g/m*3 25.56 C 9.13333 km/h
542 22-07-2019 13:00:00 26.41667 C 12.5 g/m*3 26.42 C 7.93333 km/h
543 22-07-2019 14:00:00 27.775 C 12.29 g/m*3 27.78 C 6.99167 km/h
544 22-07-2019 15:00:00 29.05 C 12.41 g/m*3 29.05 C 9.55833 km/h
545 22-07-2019 16:00:00 30.80833 C 12.27 g/m*3 30.81 C 10.75833 km/h
546 22-07-2019 17:00:00 31.51667 C 12.12 g/m*3 31.52 C 7.79167 km/h
547 22-07-2019 18:00:00 32.31667 C 12.13 g/m*3 32.32 C 6.575 km/h
548 22-07-2019 19:00:00 31.475 C 11.93 g/m*3 31.48 C 7.375 km/h
549 22-07-2019 20:00:00 29.425 C 12.62 g/m*3 29.43 C 6.56667 km/h
550 22-07-2019 21:00:00 25.59167 C 13.44 g/m*3 25.59 C 0 km/h
Sensor: Nr:Datum:Temp:Abs-Feuchte:Windchill:Wind:
Aussen-T/F 551 22-07-2019 22:00:00 22.85 C 12.97 g/m*3 22.85 C 0 km/h
552 22-07-2019 23:00:00 20.925 C 12.95 g/m*3 20.93 C 0 km/h
553 23-07-2019 00:00:00 19.4 C 12.72 g/m*3 19.4 C 0 km/h
554 23-07-2019 01:00:00 18.375 C 12.54 g/m*3 18.38 C 0 km/h
555 23-07-2019 02:00:00 17.55833 C 12.34 g/m*3 17.56 C 0 km/h
556 23-07-2019 03:00:00 16.84167 C 12.19 g/m*3 16.84 C 0 km/h
557 23-07-2019 04:00:00 16.29167 C 12.12 g/m*3 16.29 C 0 km/h
558 23-07-2019 05:00:00 15.825 C 12.01 g/m*3 15.83 C 0 km/h
559 23-07-2019 06:00:00 15.65833 C 12.12 g/m*3 15.66 C 0 km/h
560 23-07-2019 07:00:00 16.10833 C 12.48 g/m*3 16.11 C 0 km/h
561 23-07-2019 08:00:00 16.83333 C 12.98 g/m*3 16.83 C 0 km/h
562 23-07-2019 09:00:00 18.70833 C 13.95 g/m*3 18.71 C 0 km/h
563 23-07-2019 10:00:00 22.425 C 14.92 g/m*3 22.43 C 1.61667 km/h
564 23-07-2019 11:00:00 27.35 C 13.99 g/m*3 27.35 C 7.24167 km/h
565 23-07-2019 12:00:00 29.59167 C 13.05 g/m*3 29.59 C 11.55833 km/h
566 23-07-2019 13:00:00 30.78333 C 12.63 g/m*3 30.78 C 10.33333 km/h
567 23-07-2019 14:00:00 32.11667 C 12.63 g/m*3 32.12 C 9 km/h
568 23-07-2019 15:00:00 33.90833 C 13.1 g/m*3 33.91 C 8.74167 km/h
569 23-07-2019 16:00:00 35.8 C 12.74 g/m*3 35.8 C 7.24167 km/h
570 23-07-2019 17:00:00 36.38333 C 12.17 g/m*3 36.38 C 7.8 km/h
571 23-07-2019 18:00:00 36.76667 C 12.31 g/m*3 36.77 C 7.51667 km/h
572 23-07-2019 19:00:00 35.64167 C 12.6 g/m*3 35.64 C 5.88333 km/h
573 23-07-2019 20:00:00 32.725 C 14.27 g/m*3 32.73 C 1.73333 km/h
574 23-07-2019 21:00:00 28.00833 C 13.69 g/m*3 28.01 C 1.6 km/h
575 23-07-2019 22:00:00 25.2 C 13.46 g/m*3 25.2 C 0.26667 km/h
Sensor: Nr:Datum:Temp:Abs-Feuchte:Windchill:Wind:
Aussen-T/F 576 23-07-2019 23:00:00 22.93333 C 13.51 g/m*3 22.93 C 0 km/h
577 24-07-2019 00:00:00 21.44167 C 13.44 g/m*3 21.44 C 0 km/h
578 24-07-2019 01:00:00 20.31667 C 13.45 g/m*3 20.32 C 0 km/h
579 24-07-2019 02:00:00 19.30833 C 13.11 g/m*3 19.31 C 0 km/h
580 24-07-2019 03:00:00 18.63333 C 13.04 g/m*3 18.63 C 0 km/h
581 24-07-2019 04:00:00 17.76667 C 12.81 g/m*3 17.77 C 0 km/h
582 24-07-2019 05:00:00 17.23333 C 12.78 g/m*3 17.23 C 0 km/h
583 24-07-2019 06:00:00 17.075 C 12.83 g/m*3 17.08 C 0 km/h
584 24-07-2019 07:00:00 17.26667 C 13.23 g/m*3 17.27 C 0 km/h
585 24-07-2019 08:00:00 18.325 C 13.91 g/m*3 18.33 C 0 km/h
586 24-07-2019 09:00:00 20.23333 C 14.95 g/m*3 20.23 C 0 km/h
587 24-07-2019 10:00:00 23.75 C 15.53 g/m*3 23.75 C 0 km/h
588 24-07-2019 11:00:00 27.43333 C 15.68 g/m*3 27.43 C 0 km/h
589 24-07-2019 12:00:00 32.04167 C 14.1 g/m*3 32.04 C 2.95833 km/h
590 24-07-2019 13:00:00 34.175 C 11.01 g/m*3 34.17 C 7.11667 km/h
591 24-07-2019 14:00:00 35.31667 C 10.78 g/m*3 35.32 C 6.28333 km/h
592 24-07-2019 15:00:00 36.975 C 11.38 g/m*3 36.98 C 6.03333 km/h
593 24-07-2019 16:00:00 39.59167 C 11.54 g/m*3 39.59 C 6.425 km/h
594 24-07-2019 17:00:00 39.60833 C 11.47 g/m*3 39.61 C 9 km/h
595 24-07-2019 18:00:00 39.31667 C 11.18 g/m*3 39.32 C 9.40833 km/h
596 24-07-2019 19:00:00 38.49167 C 13.05 g/m*3 38.49 C 4.83333 km/h
597 24-07-2019 20:00:00 33.13333 C 14.34 g/m*3 33.13 C 0.4 km/h
598 24-07-2019 21:00:00 28.825 C 13.89 g/m*3 28.83 C 1.2 km/h
599 24-07-2019 22:00:00 27.375 C 13.66 g/m*3 27.38 C 0.66667 km/h
600 24-07-2019 23:00:00 25.58333 C 13.87 g/m*3 25.58 C 0 km/h
Sensor: Nr:Datum:Temp:Abs-Feuchte:Windchill:Wind:
Aussen-T/F 601 25-07-2019 00:00:00 23.68333 C 13.48 g/m*3 23.68 C 0 km/h
602 25-07-2019 01:00:00 22.53333 C 13.32 g/m*3 22.53 C 0 km/h
603 25-07-2019 02:00:00 21.6 C 13.37 g/m*3 21.6 C 0 km/h
604 25-07-2019 03:00:00 20.89167 C 13.46 g/m*3 20.89 C 0 km/h
605 25-07-2019 04:00:00 20.075 C 13.5 g/m*3 20.08 C 0 km/h
606 25-07-2019 05:00:00 19.35833 C 13.31 g/m*3 19.36 C 0 km/h
607 25-07-2019 06:00:00 19.19167 C 13.56 g/m*3 19.19 C 0 km/h
608 25-07-2019 07:00:00 19.55833 C 14.12 g/m*3 19.56 C 0 km/h
609 25-07-2019 08:00:00 20.73333 C 14.93 g/m*3 20.73 C 0 km/h
610 25-07-2019 09:00:00 22.75833 C 15.59 g/m*3 22.76 C 0 km/h
611 25-07-2019 10:00:00 25.84167 C 16.09 g/m*3 25.84 C 0 km/h
612 25-07-2019 11:00:00 29.93333 C 16.11 g/m*3 29.93 C 1.73333 km/h
613 25-07-2019 12:00:00 34.525 C 13.66 g/m*3 34.53 C 8.06667 km/h
614 25-07-2019 13:00:00 36.46667 C 13.22 g/m*3 36.47 C 9.025 km/h
615 25-07-2019 14:00:00 37.425 C 12.92 g/m*3 37.42 C 7.76667 km/h
616 25-07-2019 15:00:00 38.79167 C 12.64 g/m*3 38.79 C 9 km/h
617 25-07-2019 16:00:00 40.15 C 12.17 g/m*3 40.15 C 11.95833 km/h
618 25-07-2019 17:00:00 39.80833 C 11.41 g/m*3 39.81 C 13.29167 km/h
619 25-07-2019 18:00:00 39.09167 C 11.46 g/m*3 39.09 C 10.1 km/h
620 25-07-2019 19:00:00 36.66667 C 14.4 g/m*3 36.67 C 1.88333 km/h
621 25-07-2019 20:00:00 32.81667 C 14.75 g/m*3 32.82 C 0 km/h
622 25-07-2019 21:00:00 30.34167 C 13.8 g/m*3 30.34 C 1.46667 km/h
623 25-07-2019 22:00:00 28.75833 C 13.39 g/m*3 28.76 C 1.06667 km/h
624 25-07-2019 23:00:00 27.56667 C 13.19 g/m*3 27.57 C 0.93333 km/h
625 26-07-2019 00:00:00 26.19167 C 13.14 g/m*3 26.19 C 0 km/h
Sensor: Nr:Datum:Temp:Abs-Feuchte:Windchill:Wind:
Aussen-T/F 626 26-07-2019 01:00:00 25 C 13.14 g/m*3 25 C 0 km/h
627 26-07-2019 02:00:00 22.51667 C 13.4 g/m*3 22.52 C 0 km/h
628 26-07-2019 03:00:00 20.99167 C 13.12 g/m*3 20.99 C 0 km/h
629 26-07-2019 04:00:00 20.125 C 13.33 g/m*3 20.13 C 0 km/h
630 26-07-2019 05:00:00 19.29167 C 13.1 g/m*3 19.29 C 0 km/h
631 26-07-2019 06:00:00 18.95833 C 13.06 g/m*3 18.96 C 0 km/h
632 26-07-2019 07:00:00 19.61667 C 13.94 g/m*3 19.62 C 0 km/h
633 26-07-2019 08:00:00 21.10833 C 14.75 g/m*3 21.11 C 0 km/h
634 26-07-2019 09:00:00 23.50833 C 14.65 g/m*3 23.51 C 1.06667 km/h
635 26-07-2019 10:00:00 28.225 C 13.63 g/m*3 28.23 C 6.70833 km/h
636 26-07-2019 11:00:00 32.05 C 13.14 g/m*3 32.05 C 4.4 km/h
637 26-07-2019 12:00:00 34.35 C 13.18 g/m*3 34.35 C 8.85833 km/h
638 26-07-2019 13:00:00 36.00833 C 12.88 g/m*3 36.01 C 9.55833 km/h
639 26-07-2019 14:00:00 37.35833 C 11.94 g/m*3 37.36 C 7.10833 km/h
640 26-07-2019 15:00:00 37.1 C 12.48 g/m*3 37.1 C 13.56667 km/h
641 26-07-2019 16:00:00 35.28333 C 13.64 g/m*3 35.28 C 5.775 km/h
642 26-07-2019 17:00:00 32.5 C 14.7 g/m*3 32.5 C 6.04167 km/h
643 26-07-2019 18:00:00 30.44167 C 14.13 g/m*3 30.44 C 9.525 km/h
644 26-07-2019 19:00:00 28.825 C 14.84 g/m*3 28.83 C 0.4 km/h
645 26-07-2019 20:00:00 27.525 C 15.3 g/m*3 27.53 C 0 km/h
646 26-07-2019 21:00:00 26.33333 C 14.72 g/m*3 26.33 C 0.4 km/h
647 26-07-2019 22:00:00 25.5 C 14.7 g/m*3 25.5 C 0.26667 km/h
648 26-07-2019 23:00:00 24.35833 C 14.82 g/m*3 24.36 C 0.26667 km/h
649 27-07-2019 00:00:00 23.15 C 14.56 g/m*3 23.15 C 0.53333 km/h
650 27-07-2019 01:00:00 22.63333 C 14.74 g/m*3 22.63 C 0 km/h
Sensor: Nr:Datum:Temp:Abs-Feuchte:Windchill:Wind:
Aussen-T/F 651 27-07-2019 02:00:00 22.33333 C 14.87 g/m*3 22.33 C 0 km/h
652 27-07-2019 03:00:00 22.59167 C 15.01 g/m*3 22.59 C 1.2 km/h
653 27-07-2019 04:00:00 20.9 C 15.74 g/m*3 20.9 C 0 km/h
654 27-07-2019 05:00:00 20.275 C 15.59 g/m*3 20.27 C 0 km/h
655 27-07-2019 06:00:00 20.525 C 15.79 g/m*3 20.53 C 0.26667 km/h
656 27-07-2019 07:00:00 21.25 C 16.39 g/m*3 21.25 C 0 km/h
657 27-07-2019 08:00:00 22.575 C 16.33 g/m*3 22.58 C 1.6 km/h
658 27-07-2019 09:00:00 24.725 C 16.66 g/m*3 24.73 C 3.6 km/h
659 27-07-2019 10:00:00 24.64167 C 18.42 g/m*3 24.64 C 2.55 km/h
660 27-07-2019 11:00:00 23.94167 C 18.78 g/m*3 23.94 C 0.53333 km/h
661 27-07-2019 12:00:00 23.75 C 17.91 g/m*3 23.75 C 2 km/h
662 27-07-2019 13:00:00 26 C 17.97 g/m*3 26 C 5.89167 km/h
663 27-07-2019 14:00:00 25.725 C 17.04 g/m*3 25.73 C 4.675 km/h
664 27-07-2019 15:00:00 25.04167 C 17.09 g/m*3 25.04 C 7.26667 km/h
665 27-07-2019 16:00:00 25.96667 C 16.65 g/m*3 25.97 C 11.56667 km/h
666 27-07-2019 17:00:00 24.49167 C 16.98 g/m*3 24.49 C 7.91667 km/h
667 27-07-2019 18:00:00 24.90833 C 17.35 g/m*3 24.91 C 6.28333 km/h
668 27-07-2019 19:00:00 23.84167 C 17.41 g/m*3 23.84 C 6.98333 km/h
669 27-07-2019 20:00:00 22.88333 C 17.34 g/m*3 22.88 C 5.74167 km/h
670 27-07-2019 21:00:00 22.075 C 16.7 g/m*3 22.08 C 6.975 km/h
671 27-07-2019 22:00:00 21.45 C 16.39 g/m*3 21.45 C 7.93333 km/h
672 27-07-2019 23:00:00 21.14167 C 16.39 g/m*3 21.14 C 3.21667 km/h
673 28-07-2019 00:00:00 20.83333 C 16.31 g/m*3 20.83 C 2.8 km/h
674 28-07-2019 01:00:00 20.70833 C 16.21 g/m*3 20.71 C 2.8 km/h
675 28-07-2019 02:00:00 20.7 C 16.2 g/m*3 20.7 C 1.73333 km/h
Sensor: Nr:Datum:Temp:Abs-Feuchte:Windchill:Wind:
Aussen-T/F 676 28-07-2019 03:00:00 20.68333 C 16.19 g/m*3 20.68 C 0.4 km/h
677 28-07-2019 04:00:00 20.60833 C 16.26 g/m*3 20.61 C 0.93333 km/h
678 28-07-2019 05:00:00 20.55 C 16.24 g/m*3 20.55 C 2.26667 km/h
679 28-07-2019 06:00:00 20.54167 C 16.23 g/m*3 20.54 C 2.13333 km/h
680 28-07-2019 07:00:00 20.69167 C 16.19 g/m*3 20.69 C 7.65 km/h
681 28-07-2019 08:00:00 20.71667 C 16.05 g/m*3 20.72 C 8.34167 km/h
682 28-07-2019 09:00:00 20.425 C 16 g/m*3 20.43 C 8.34167 km/h
683 28-07-2019 10:00:00 20.025 C 15.89 g/m*3 20.02 C 8.05833 km/h
684 28-07-2019 11:00:00 20.08333 C 15.95 g/m*3 20.08 C 5.89167 km/h
685 28-07-2019 12:00:00 20.50833 C 15.64 g/m*3 20.51 C 7.8 km/h
686 28-07-2019 13:00:00 20.30833 C 15.37 g/m*3 20.31 C 6.45 km/h
687 28-07-2019 14:00:00 19.98333 C 15.41 g/m*3 19.98 C 6.56667 km/h
688 28-07-2019 15:00:00 19.90833 C 15.16 g/m*3 19.91 C 7.79167 km/h
689 28-07-2019 16:00:00 19.81667 C 14.99 g/m*3 19.82 C 5.9 km/h
690 28-07-2019 17:00:00 19.45833 C 15.04 g/m*3 19.46 C 3.625 km/h
691 28-07-2019 18:00:00 19.175 C 14.89 g/m*3 19.18 C 3.475 km/h
692 28-07-2019 19:00:00 18.875 C 14.81 g/m*3 18.88 C 0.26667 km/h
693 28-07-2019 20:00:00 18.5 C 14.67 g/m*3 18.5 C 0 km/h
694 28-07-2019 21:00:00 18.175 C 14.56 g/m*3 18.18 C 0 km/h
695 28-07-2019 22:00:00 17.90833 C 14.47 g/m*3 17.91 C 0.4 km/h
696 28-07-2019 23:00:00 17.6 C 14.25 g/m*3 17.6 C 0 km/h
697 29-07-2019 00:00:00 17.325 C 14.02 g/m*3 17.33 C 0.13333 km/h
698 29-07-2019 01:00:00 17.10833 C 13.84 g/m*3 17.11 C 1.33333 km/h
699 29-07-2019 02:00:00 16.975 C 13.83 g/m*3 16.98 C 0 km/h
700 29-07-2019 03:00:00 16.84167 C 13.76 g/m*3 16.84 C 0 km/h
Sensor: Nr:Datum:Temp:Abs-Feuchte:Windchill:Wind:
Aussen-T/F 701 29-07-2019 04:00:00 16.80833 C 13.73 g/m*3 16.81 C 0 km/h
702 29-07-2019 05:00:00 16.74167 C 13.68 g/m*3 16.74 C 0 km/h
703 29-07-2019 06:00:00 16.725 C 13.66 g/m*3 16.73 C 0 km/h
704 29-07-2019 07:00:00 16.99167 C 13.85 g/m*3 16.99 C 2.13333 km/h
705 29-07-2019 08:00:00 17.46667 C 13.78 g/m*3 17.47 C 1.33333 km/h
706 29-07-2019 09:00:00 18.49167 C 13.65 g/m*3 18.49 C 6.04167 km/h
707 29-07-2019 10:00:00 19.39167 C 13.23 g/m*3 19.39 C 6.01667 km/h
708 29-07-2019 11:00:00 20.475 C 13.1 g/m*3 20.48 C 6.84167 km/h
709 29-07-2019 12:00:00 21.95 C 12.85 g/m*3 21.95 C 7.94167 km/h
710 29-07-2019 13:00:00 23.25 C 12.93 g/m*3 23.25 C 8.2 km/h
711 29-07-2019 14:00:00 24.41667 C 12.81 g/m*3 24.42 C 6.58333 km/h
712 29-07-2019 15:00:00 25.83333 C 12.4 g/m*3 25.83 C 10.88333 km/h
713 29-07-2019 16:00:00 27.6 C 12.17 g/m*3 27.6 C 7.79167 km/h
714 29-07-2019 17:00:00 28.23333 C 11.91 g/m*3 28.23 C 7.79167 km/h
715 29-07-2019 18:00:00 27.70833 C 11.64 g/m*3 27.71 C 4.94167 km/h
716 29-07-2019 19:00:00 28.1 C 11.85 g/m*3 28.1 C 6.29167 km/h
717 29-07-2019 20:00:00 26.33333 C 12.19 g/m*3 26.33 C 3.475 km/h
718 29-07-2019 21:00:00 23.05833 C 12.72 g/m*3 23.06 C 0 km/h
719 29-07-2019 22:00:00 20.75833 C 12.58 g/m*3 20.76 C 0 km/h
720 29-07-2019 23:00:00 19.34167 C 12.57 g/m*3 19.34 C 0 km/h
721 30-07-2019 00:00:00 17.95 C 12.42 g/m*3 17.95 C 0 km/h
722 30-07-2019 01:00:00 17.425 C 12.39 g/m*3 17.43 C 0 km/h
723 30-07-2019 02:00:00 16.6 C 12.08 g/m*3 16.6 C 0 km/h
724 30-07-2019 03:00:00 15.875 C 11.92 g/m*3 15.88 C 0 km/h
725 30-07-2019 04:00:00 15.4 C 11.84 g/m*3 15.4 C 0 km/h
Sensor: Nr:Datum:Temp:Abs-Feuchte:Windchill:Wind:
Aussen-T/F 726 30-07-2019 05:00:00 15.03333 C 11.76 g/m*3 15.03 C 0 km/h
727 30-07-2019 06:00:00 14.725 C 11.71 g/m*3 14.73 C 0 km/h
728 30-07-2019 07:00:00 14.93333 C 11.98 g/m*3 14.93 C 0 km/h
729 30-07-2019 08:00:00 15.88333 C 12.71 g/m*3 15.88 C 0 km/h
730 30-07-2019 09:00:00 17.4 C 13.61 g/m*3 17.4 C 0 km/h
731 30-07-2019 10:00:00 20.275 C 14.44 g/m*3 20.27 C 0 km/h
732 30-07-2019 11:00:00 24.96667 C 13.31 g/m*3 24.97 C 9.80833 km/h
733 30-07-2019 12:00:00 27.025 C 11.73 g/m*3 27.03 C 13.3 km/h
734 30-07-2019 13:00:00 28.24167 C 10.82 g/m*3 28.24 C 11.43333 km/h
735 30-07-2019 14:00:00 29.49167 C 11.11 g/m*3 29.49 C 13.43333 km/h
736 30-07-2019 15:00:00 30.69167 C 11.36 g/m*3 30.69 C 15.83333 km/h
737 30-07-2019 16:00:00 31.20833 C 11.08 g/m*3 31.21 C 16.5 km/h
738 30-07-2019 17:00:00 29.30833 C 11.05 g/m*3 29.31 C 17.56667 km/h
739 30-07-2019 18:00:00 26.625 C 10.27 g/m*3 26.63 C 12.48333 km/h
740 30-07-2019 19:00:00 24.55833 C 11.47 g/m*3 24.56 C 10.21667 km/h
741 30-07-2019 20:00:00 24.09167 C 12.06 g/m*3 24.09 C 6.16667 km/h
742 30-07-2019 21:00:00 23.675 C 12.12 g/m*3 23.68 C 0 km/h
743 30-07-2019 22:00:00 22.20833 C 12.33 g/m*3 22.21 C 0 km/h
744 30-07-2019 23:00:00 21.175 C 12.58 g/m*3 21.18 C 0 km/h
745 31-07-2019 00:00:00 20.55 C 12.46 g/m*3 20.55 C 0 km/h
746 31-07-2019 01:00:00 20.325 C 12.51 g/m*3 20.33 C 1.06667 km/h
747 31-07-2019 02:00:00 19.70833 C 12.18 g/m*3 19.71 C 0 km/h
748 31-07-2019 03:00:00 18.63333 C 11.97 g/m*3 18.63 C 0.26667 km/h
749 31-07-2019 04:00:00 18.575 C 12.24 g/m*3 18.58 C 0.93333 km/h
750 31-07-2019 05:00:00 17.83333 C 11.86 g/m*3 17.83 C 0 km/h
Sensor: Nr:Datum:Temp:Abs-Feuchte:Windchill:Wind:
Aussen-T/F 751 31-07-2019 06:00:00 17.64167 C 11.79 g/m*3 17.64 C 0 km/h
752 31-07-2019 07:00:00 17.375 C 11.83 g/m*3 17.38 C 0.26667 km/h
753 31-07-2019 08:00:00 18.44167 C 11.89 g/m*3 18.44 C 4.825 km/h
754 31-07-2019 09:00:00 20.01667 C 11.71 g/m*3 20.02 C 10.74167 km/h
755 31-07-2019 10:00:00 21.35833 C 10.99 g/m*3 21.36 C 13.16667 km/h
756 31-07-2019 11:00:00 21.60833 C 10.48 g/m*3 21.61 C 13.55833 km/h
757 31-07-2019 12:00:00 22.66667 C 10.25 g/m*3 22.67 C 16.63333 km/h
758 31-07-2019 13:00:00 23.69167 C 10.05 g/m*3 23.69 C 15.3 km/h
759 31-07-2019 14:00:00 24.76667 C 9.64 g/m*3 24.77 C 14.23333 km/h
760 31-07-2019 15:00:00 25.55 C 9.52 g/m*3 25.55 C 14.09167 km/h
761 31-07-2019 16:00:00 24.95833 C 9.72 g/m*3 24.96 C 13.7 km/h
762 31-07-2019 17:00:00 25.25 C 10.02 g/m*3 25.25 C 14.23333 km/h
763 31-07-2019 18:00:00 23.875 C 10.17 g/m*3 23.88 C 8.06667 km/h
764 31-07-2019 19:00:00 23.49167 C 10.25 g/m*3 23.49 C 6.975 km/h
765 31-07-2019 20:00:00 22.09167 C 10.88 g/m*3 22.09 C 1.46667 km/h
766 31-07-2019 21:00:00 19.925 C 10.27 g/m*3 19.93 C 0 km/h
767 31-07-2019 22:00:00 18.68333 C 9.76 g/m*3 18.68 C 0.4 km/h
768 31-07-2019 23:00:00 18.45 C 9.95 g/m*3 18.45 C 0.4 km/h
769 01-08-2019 00:00:00 16.88333 C 10.09 g/m*3 16.88 C 0.4 km/h
770 01-08-2019 01:00:00 15.525 C 9.93 g/m*3 15.53 C 0.13333 km/h
771 01-08-2019 02:00:00 14.73333 C 9.96 g/m*3 14.73 C 0.4 km/h
772 01-08-2019 03:00:00 14.15833 C 9.87 g/m*3 14.16 C 0.26667 km/h
773 01-08-2019 04:00:00 12.95833 C 9.61 g/m*3 12.96 C 0.66667 km/h
774 01-08-2019 05:00:00 12.625 C 9.62 g/m*3 12.63 C 0.4 km/h
775 01-08-2019 06:00:00 12.125 C 9.51 g/m*3 12.13 C 0 km/h
Sensor: Nr:Datum:Temp:Abs-Feuchte:Windchill:Wind:
Aussen-T/F 776 01-08-2019 07:00:00 12.55833 C 9.84 g/m*3 12.56 C 0.4 km/h
777 01-08-2019 08:00:00 15.175 C 10.56 g/m*3 15.18 C 0.93333 km/h
778 01-08-2019 09:00:00 17.56667 C 11.01 g/m*3 17.57 C 5.075 km/h
779 01-08-2019 10:00:00 20.3 C 10.98 g/m*3 20.3 C 10.5 km/h
780 01-08-2019 11:00:00 21.775 C 10.68 g/m*3 21.78 C 11.825 km/h
781 01-08-2019 12:00:00 22.45 C 10.66 g/m*3 22.45 C 9.275 km/h
782 01-08-2019 13:00:00 23.16667 C 11 g/m*3 23.17 C 6.43333 km/h
783 01-08-2019 14:00:00 24.15 C 10.84 g/m*3 24.15 C 8.60833 km/h
784 01-08-2019 15:00:00 24.575 C 10.99 g/m*3 24.58 C 8.45833 km/h
785 01-08-2019 16:00:00 24.4 C 11.13 g/m*3 24.4 C 7.375 km/h
786 01-08-2019 17:00:00 25.13333 C 11.06 g/m*3 25.13 C 6.28333 km/h
787 01-08-2019 18:00:00 26.35 C 11.11 g/m*3 26.35 C 7.53333 km/h
788 01-08-2019 19:00:00 26.26667 C 11.16 g/m*3 26.27 C 6.025 km/h
789 01-08-2019 20:00:00 24.10833 C 11.78 g/m*3 24.11 C 2.53333 km/h
790 01-08-2019 21:00:00 21.15 C 11.58 g/m*3 21.15 C 0 km/h
791 01-08-2019 22:00:00 19.76667 C 11.54 g/m*3 19.77 C 0 km/h
792 01-08-2019 23:00:00 19.24167 C 11.5 g/m*3 19.24 C 0 km/h
793 02-08-2019 00:00:00 18.81667 C 11.81 g/m*3 18.82 C 0 km/h
794 02-08-2019 01:00:00 18.34167 C 11.86 g/m*3 18.34 C 0 km/h
795 02-08-2019 02:00:00 17.86667 C 11.71 g/m*3 17.87 C 0 km/h
796 02-08-2019 03:00:00 16.94167 C 11.49 g/m*3 16.94 C 0 km/h
797 02-08-2019 04:00:00 16.31667 C 11.46 g/m*3 16.32 C 0 km/h
798 02-08-2019 05:00:00 16.2 C 11.54 g/m*3 16.2 C 0 km/h
799 02-08-2019 06:00:00 16.25 C 11.76 g/m*3 16.25 C 0 km/h
800 02-08-2019 07:00:00 16.925 C 12.17 g/m*3 16.93 C 0 km/h
Sensor: Nr:Datum:Temp:Abs-Feuchte:Windchill:Wind:
Aussen-T/F 801 02-08-2019 08:00:00 17.93333 C 12.6 g/m*3 17.93 C 0 km/h
802 02-08-2019 09:00:00 19.35 C 12.96 g/m*3 19.35 C 0 km/h
803 02-08-2019 10:00:00 20.71667 C 13 g/m*3 20.72 C 0 km/h
804 02-08-2019 11:00:00 22.16667 C 12.7 g/m*3 22.17 C 4.96667 km/h
805 02-08-2019 12:00:00 21.275 C 14.05 g/m*3 21.28 C 4.03333 km/h
806 02-08-2019 13:00:00 21.125 C 13.15 g/m*3 21.13 C 2.94167 km/h
807 02-08-2019 14:00:00 23.16667 C 12.81 g/m*3 23.17 C 5.625 km/h
808 02-08-2019 15:00:00 24.58333 C 12.67 g/m*3 24.58 C 7.38333 km/h
809 02-08-2019 16:00:00 25.59167 C 12.16 g/m*3 25.59 C 5.24167 km/h
810 02-08-2019 17:00:00 26.725 C 11.66 g/m*3 26.73 C 7.925 km/h
811 02-08-2019 18:00:00 25.00833 C 12.3 g/m*3 25.01 C 11.95833 km/h
812 02-08-2019 19:00:00 23.7 C 11.73 g/m*3 23.7 C 8.45833 km/h
813 02-08-2019 20:00:00 22.45833 C 12.04 g/m*3 22.46 C 1.6 km/h
814 02-08-2019 21:00:00 21.275 C 11.83 g/m*3 21.28 C 4.425 km/h
815 02-08-2019 22:00:00 20.95 C 11.93 g/m*3 20.95 C 9.80833 km/h
816 02-08-2019 23:00:00 18.975 C 12.83 g/m*3 18.98 C 4.96667 km/h
817 03-08-2019 00:00:00 17.75833 C 12.77 g/m*3 17.76 C 5.91667 km/h
818 03-08-2019 01:00:00 18.28333 C 12.89 g/m*3 18.28 C 10.89167 km/h
819 03-08-2019 02:00:00 18.24167 C 13.15 g/m*3 18.24 C 11.29167 km/h
820 03-08-2019 03:00:00 18.2 C 13.32 g/m*3 18.2 C 8.05833 km/h
821 03-08-2019 04:00:00 18.15 C 13.47 g/m*3 18.15 C 7.225 km/h
822 03-08-2019 05:00:00 18.14167 C 13.48 g/m*3 18.14 C 6.31667 km/h
823 03-08-2019 06:00:00 17.89167 C 13.32 g/m*3 17.89 C 5.75833 km/h
824 03-08-2019 07:00:00 17.84167 C 13.03 g/m*3 17.84 C 6.84167 km/h
825 03-08-2019 08:00:00 17.95 C 12.94 g/m*3 17.95 C 8.60833 km/h
Sensor: Nr:Datum:Temp:Abs-Feuchte:Windchill:Wind:
Aussen-T/F 826 03-08-2019 09:00:00 18.6 C 12.61 g/m*3 18.6 C 11.96667 km/h
827 03-08-2019 10:00:00 19.61667 C 12.76 g/m*3 19.62 C 11.3 km/h
828 03-08-2019 11:00:00 20.35833 C 12.91 g/m*3 20.36 C 11.16667 km/h
829 03-08-2019 12:00:00 21.55833 C 12.66 g/m*3 21.56 C 10.76667 km/h
830 03-08-2019 13:00:00 22.05 C 12.91 g/m*3 22.05 C 11.00833 km/h
831 03-08-2019 14:00:00 22.20833 C 12.93 g/m*3 22.21 C 10.49167 km/h
832 03-08-2019 15:00:00 23.80833 C 12.48 g/m*3 23.81 C 12.35833 km/h
833 03-08-2019 16:00:00 25.16667 C 12.35 g/m*3 25.17 C 12.36667 km/h
834 03-08-2019 17:00:00 25.49167 C 12.07 g/m*3 25.49 C 12.63333 km/h
835 03-08-2019 18:00:00 25.46667 C 12.05 g/m*3 25.47 C 11.825 km/h
836 03-08-2019 19:00:00 24.30833 C 12.07 g/m*3 24.31 C 11.15833 km/h
837 03-08-2019 20:00:00 22.61667 C 12.03 g/m*3 22.62 C 7.39167 km/h
838 03-08-2019 21:00:00 20.55833 C 11.74 g/m*3 20.56 C 3.875 km/h
839 03-08-2019 22:00:00 18.10833 C 11.47 g/m*3 18.11 C 0.13333 km/h
840 03-08-2019 23:00:00 17.05 C 11.51 g/m*3 17.05 C 0 km/h
841 04-08-2019 00:00:00 16.225 C 11.3 g/m*3 16.23 C 0 km/h
842 04-08-2019 01:00:00 15.125 C 11.05 g/m*3 15.13 C 0 km/h
843 04-08-2019 02:00:00 14 C 10.71 g/m*3 14 C 0 km/h
844 04-08-2019 03:00:00 13.3 C 10.5 g/m*3 13.3 C 0 km/h
845 04-08-2019 04:00:00 12.88333 C 10.37 g/m*3 12.88 C 0 km/h
846 04-08-2019 05:00:00 12.49167 C 10.22 g/m*3 12.49 C 0 km/h
847 04-08-2019 06:00:00 12.34167 C 10.22 g/m*3 12.34 C 0 km/h
848 04-08-2019 07:00:00 12.725 C 10.53 g/m*3 12.73 C 0 km/h
849 04-08-2019 08:00:00 13.73333 C 11.27 g/m*3 13.73 C 0 km/h
850 04-08-2019 09:00:00 15.34167 C 12.19 g/m*3 15.34 C 0.66667 km/h
Sensor: Nr:Datum:Temp:Abs-Feuchte:Windchill:Wind:
Aussen-T/F 851 04-08-2019 10:00:00 18.10833 C 12.88 g/m*3 18.11 C 3.33333 km/h
852 04-08-2019 11:00:00 21.31667 C 12.59 g/m*3 21.32 C 5.34167 km/h
853 04-08-2019 12:00:00 23.3 C 12.44 g/m*3 23.3 C 7.23333 km/h
854 04-08-2019 13:00:00 24.75 C 12.18 g/m*3 24.75 C 6.01667 km/h
855 04-08-2019 14:00:00 25.86667 C 11.74 g/m*3 25.87 C 6.7 km/h
856 04-08-2019 15:00:00 28.225 C 11.2 g/m*3 28.23 C 8.45833 km/h
857 04-08-2019 16:00:00 30.03333 C 10.48 g/m*3 30.03 C 9.4 km/h
858 04-08-2019 17:00:00 30.95833 C 10.24 g/m*3 30.96 C 8.45833 km/h
859 04-08-2019 18:00:00 30.79167 C 10.68 g/m*3 30.79 C 7.25 km/h
860 04-08-2019 19:00:00 28.75833 C 11.81 g/m*3 28.76 C 2.00833 km/h
861 04-08-2019 20:00:00 25.78333 C 12.49 g/m*3 25.78 C 0 km/h
862 04-08-2019 21:00:00 22.51667 C 12.06 g/m*3 22.52 C 0.26667 km/h
863 04-08-2019 22:00:00 21.95833 C 12.33 g/m*3 21.96 C 1.06667 km/h
864 04-08-2019 23:00:00 22.39167 C 12.16 g/m*3 22.39 C 2.53333 km/h
865 05-08-2019 00:00:00 22.875 C 11.8 g/m*3 22.88 C 1.46667 km/h
866 05-08-2019 01:00:00 21.65833 C 11.88 g/m*3 21.66 C 0 km/h
867 05-08-2019 02:00:00 20.28333 C 11.74 g/m*3 20.28 C 0 km/h
868 05-08-2019 03:00:00 19.6 C 11.76 g/m*3 19.6 C 0.26667 km/h
869 05-08-2019 04:00:00 19.31667 C 12.58 g/m*3 19.32 C 0 km/h
870 05-08-2019 05:00:00 19.325 C 12.96 g/m*3 19.33 C 1.74167 km/h
871 05-08-2019 06:00:00 18.28333 C 13.64 g/m*3 18.28 C 1.06667 km/h
872 05-08-2019 07:00:00 17.53333 C 13.79 g/m*3 17.53 C 1.46667 km/h
873 05-08-2019 08:00:00 17.64167 C 14.21 g/m*3 17.64 C 0.53333 km/h
874 05-08-2019 09:00:00 18.75 C 15.24 g/m*3 18.75 C 0.66667 km/h
875 05-08-2019 10:00:00 20.08333 C 16.08 g/m*3 20.08 C 1.06667 km/h
Sensor: Nr:Datum:Temp:Abs-Feuchte:Windchill:Wind:
Aussen-T/F 876 05-08-2019 11:00:00 21.99167 C 16.31 g/m*3 21.99 C 1.86667 km/h
877 05-08-2019 12:00:00 24.25 C 15.17 g/m*3 24.25 C 12.89167 km/h
878 05-08-2019 13:00:00 26 C 14.55 g/m*3 26 C 12.5 km/h
879 05-08-2019 14:00:00 27.11667 C 14.16 g/m*3 27.12 C 11.56667 km/h
880 05-08-2019 15:00:00 28.375 C 12.91 g/m*3 28.38 C 10.9 km/h
881 05-08-2019 16:00:00 28.875 C 11.79 g/m*3 28.88 C 12.23333 km/h
882 05-08-2019 17:00:00 28.225 C 11.59 g/m*3 28.23 C 11.43333 km/h
883 05-08-2019 18:00:00 27.7 C 11.28 g/m*3 27.7 C 9.15833 km/h
884 05-08-2019 19:00:00 26.7 C 11.75 g/m*3 26.7 C 5.89167 km/h
885 05-08-2019 20:00:00 25.1 C 12.4 g/m*3 25.1 C 1.6 km/h
886 05-08-2019 21:00:00 22.075 C 11.92 g/m*3 22.08 C 0 km/h
887 05-08-2019 22:00:00 20.53333 C 12.36 g/m*3 20.53 C 0 km/h
888 05-08-2019 23:00:00 19.28333 C 12.26 g/m*3 19.28 C 0 km/h
889 06-08-2019 00:00:00 18.00833 C 12.02 g/m*3 18.01 C 0 km/h
890 06-08-2019 01:00:00 17.10833 C 11.86 g/m*3 17.11 C 0 km/h
891 06-08-2019 02:00:00 17.00833 C 12 g/m*3 17.01 C 0 km/h
892 06-08-2019 03:00:00 17.45833 C 12.36 g/m*3 17.46 C 0.8 km/h
893 06-08-2019 04:00:00 17.20833 C 12.28 g/m*3 17.21 C 0.26667 km/h
894 06-08-2019 05:00:00 16.60833 C 12.11 g/m*3 16.61 C 0.13333 km/h
895 06-08-2019 06:00:00 16.66667 C 12.28 g/m*3 16.67 C 0.13333 km/h
896 06-08-2019 07:00:00 17.83333 C 12.66 g/m*3 17.83 C 2.40833 km/h
897 06-08-2019 08:00:00 18.675 C 12.96 g/m*3 18.68 C 3.475 km/h
898 06-08-2019 09:00:00 20.1 C 13.3 g/m*3 20.1 C 6.29167 km/h
899 06-08-2019 10:00:00 19.91667 C 14.4 g/m*3 19.92 C 2.14167 km/h
900 06-08-2019 11:00:00 19.65 C 15.1 g/m*3 19.65 C 0.8 km/h
Sensor: Nr:Datum:Temp:Abs-Feuchte:Windchill:Wind:
Aussen-T/F 901 06-08-2019 12:00:00 21.31667 C 15.35 g/m*3 21.32 C 4.40833 km/h
902 06-08-2019 13:00:00 22.325 C 15.31 g/m*3 22.33 C 7.66667 km/h
903 06-08-2019 14:00:00 23.61667 C 14.87 g/m*3 23.62 C 13.43333 km/h
904 06-08-2019 15:00:00 24.725 C 14.68 g/m*3 24.73 C 11.825 km/h
905 06-08-2019 16:00:00 25.39167 C 14.57 g/m*3 25.39 C 10.63333 km/h
906 06-08-2019 17:00:00 26.4 C 14.31 g/m*3 26.4 C 10.09167 km/h
907 06-08-2019 18:00:00 25.20833 C 14.4 g/m*3 25.21 C 4.84167 km/h
908 06-08-2019 19:00:00 22.54167 C 15.37 g/m*3 22.54 C 6.16667 km/h
909 06-08-2019 20:00:00 19.05 C 14.78 g/m*3 19.05 C 0.13333 km/h
910 06-08-2019 21:00:00 18.00833 C 14.32 g/m*3 18.01 C 0.53333 km/h
911 06-08-2019 22:00:00 17.51667 C 14.03 g/m*3 17.52 C 0.13333 km/h
912 06-08-2019 23:00:00 17.08333 C 13.8 g/m*3 17.08 C 1.075 km/h
913 07-08-2019 00:00:00 16.68333 C 13.49 g/m*3 16.68 C 0.13333 km/h
914 07-08-2019 01:00:00 16.3 C 13.25 g/m*3 16.3 C 0 km/h
915 07-08-2019 02:00:00 16.45833 C 13.45 g/m*3 16.46 C 1.2 km/h
916 07-08-2019 03:00:00 16.58333 C 13.58 g/m*3 16.58 C 0 km/h
917 07-08-2019 04:00:00 16.63333 C 13.73 g/m*3 16.63 C 0 km/h
918 07-08-2019 05:00:00 16.66667 C 13.76 g/m*3 16.67 C 0 km/h
919 07-08-2019 06:00:00 16.875 C 13.93 g/m*3 16.88 C 0.13333 km/h
920 07-08-2019 07:00:00 17.25 C 14.25 g/m*3 17.25 C 0.26667 km/h
921 07-08-2019 08:00:00 17.75833 C 14.69 g/m*3 17.76 C 0.66667 km/h
922 07-08-2019 09:00:00 18.25 C 15.12 g/m*3 18.25 C 4.15 km/h
923 07-08-2019 10:00:00 18.96667 C 15.68 g/m*3 18.97 C 1.6 km/h
924 07-08-2019 11:00:00 19.725 C 15.83 g/m*3 19.73 C 2.275 km/h
925 07-08-2019 12:00:00 20.83333 C 15.33 g/m*3 20.83 C 3.88333 km/h
Sensor: Nr:Datum:Temp:Abs-Feuchte:Windchill:Wind:
Aussen-T/F 926 07-08-2019 13:00:00 21.85833 C 14.69 g/m*3 21.86 C 5.76667 km/h
927 07-08-2019 14:00:00 22.525 C 15.07 g/m*3 22.53 C 7.375 km/h
928 07-08-2019 15:00:00 22.59167 C 14.64 g/m*3 22.59 C 10.48333 km/h
929 07-08-2019 16:00:00 22.08333 C 14.2 g/m*3 22.08 C 9.7 km/h
930 07-08-2019 17:00:00 22.53333 C 14.26 g/m*3 22.53 C 8.35 km/h
931 07-08-2019 18:00:00 23.35833 C 14.35 g/m*3 23.36 C 8.75 km/h
932 07-08-2019 19:00:00 22.38333 C 14.63 g/m*3 22.38 C 4.03333 km/h
933 07-08-2019 20:00:00 20.05833 C 14.48 g/m*3 20.06 C 2.55 km/h
934 07-08-2019 21:00:00 18.05 C 13.36 g/m*3 18.05 C 0.8 km/h
935 07-08-2019 22:00:00 16.74167 C 12.79 g/m*3 16.74 C 0.53333 km/h
936 07-08-2019 23:00:00 16.64167 C 12.63 g/m*3 16.64 C 1.06667 km/h
937 08-08-2019 00:00:00 15.76667 C 12.28 g/m*3 15.77 C 1.88333 km/h
938 08-08-2019 01:00:00 16.35 C 12.8 g/m*3 16.35 C 1.6 km/h
939 08-08-2019 02:00:00 16.45 C 12.88 g/m*3 16.45 C 0.66667 km/h
940 08-08-2019 03:00:00 16.44167 C 12.86 g/m*3 16.44 C 2.00833 km/h
941 08-08-2019 04:00:00 16.06667 C 12.68 g/m*3 16.07 C 0.13333 km/h
942 08-08-2019 05:00:00 15.31667 C 12.19 g/m*3 15.32 C 0.53333 km/h
943 08-08-2019 06:00:00 15.7 C 12.58 g/m*3 15.7 C 4.40833 km/h
944 08-08-2019 07:00:00 15.95 C 12.71 g/m*3 15.95 C 1.73333 km/h
945 08-08-2019 08:00:00 17.05833 C 13.24 g/m*3 17.06 C 8.75833 km/h
946 08-08-2019 09:00:00 18.55833 C 13.35 g/m*3 18.56 C 8.20833 km/h
947 08-08-2019 10:00:00 20.05833 C 12.66 g/m*3 20.06 C 11.29167 km/h
948 08-08-2019 11:00:00 21.74167 C 12.57 g/m*3 21.74 C 11.825 km/h
949 08-08-2019 12:00:00 22.99167 C 12.57 g/m*3 22.99 C 15.56667 km/h
950 08-08-2019 13:00:00 24.025 C 12.51 g/m*3 24.03 C 11.95833 km/h
Sensor: Nr:Datum:Temp:Abs-Feuchte:Windchill:Wind:
Aussen-T/F 951 08-08-2019 14:00:00 24.20833 C 12.62 g/m*3 24.21 C 10.1 km/h
952 08-08-2019 15:00:00 24.51667 C 12.81 g/m*3 24.52 C 7.51667 km/h
953 08-08-2019 16:00:00 26.58333 C 12.93 g/m*3 26.58 C 12.1 km/h
954 08-08-2019 17:00:00 27.18333 C 12.52 g/m*3 27.18 C 11.15833 km/h
955 08-08-2019 18:00:00 27.46667 C 12.5 g/m*3 27.47 C 8.875 km/h
956 08-08-2019 19:00:00 25.43333 C 14.64 g/m*3 25.43 C 0.94167 km/h
957 08-08-2019 20:00:00 23.575 C 14.35 g/m*3 23.58 C 0 km/h
958 08-08-2019 21:00:00 20.625 C 13.7 g/m*3 20.63 C 0 km/h
959 08-08-2019 22:00:00 19.15833 C 13.68 g/m*3 19.16 C 0 km/h
960 08-08-2019 23:00:00 18.16667 C 13.57 g/m*3 18.17 C 0 km/h
961 09-08-2019 00:00:00 17.15833 C 13.06 g/m*3 17.16 C 0 km/h
962 09-08-2019 01:00:00 16.25833 C 12.63 g/m*3 16.26 C 0 km/h
963 09-08-2019 02:00:00 15.875 C 12.44 g/m*3 15.88 C 0 km/h
964 09-08-2019 03:00:00 15.21667 C 12.05 g/m*3 15.22 C 0 km/h
965 09-08-2019 04:00:00 14.725 C 11.81 g/m*3 14.73 C 0 km/h
966 09-08-2019 05:00:00 14.44167 C 11.66 g/m*3 14.44 C 0 km/h
967 09-08-2019 06:00:00 14.56667 C 11.86 g/m*3 14.57 C 0 km/h
968 09-08-2019 07:00:00 15.40833 C 12.53 g/m*3 15.41 C 0 km/h
969 09-08-2019 08:00:00 16.44167 C 13.04 g/m*3 16.44 C 0.53333 km/h
970 09-08-2019 09:00:00 18.26667 C 13.71 g/m*3 18.27 C 0 km/h
971 09-08-2019 10:00:00 20.60833 C 14.46 g/m*3 20.61 C 0 km/h
972 09-08-2019 11:00:00 23.8 C 15.4 g/m*3 23.8 C 0.26667 km/h
973 09-08-2019 12:00:00 25.26667 C 15.38 g/m*3 25.27 C 0.26667 km/h
974 09-08-2019 13:00:00 25.275 C 15.53 g/m*3 25.28 C 0.13333 km/h
975 09-08-2019 14:00:00 24.75 C 17.55 g/m*3 24.75 C 0 km/h
Sensor: Nr:Datum:Temp:Abs-Feuchte:Windchill:Wind:
Aussen-T/F 976 09-08-2019 15:00:00 24.43333 C 18.3 g/m*3 24.43 C 0.26667 km/h
977 09-08-2019 16:00:00 27.25 C 18.24 g/m*3 27.25 C 4.55833 km/h
978 09-08-2019 17:00:00 25.45 C 19.24 g/m*3 25.45 C 0.8 km/h
979 09-08-2019 18:00:00 22.78333 C 18.05 g/m*3 22.78 C 1.33333 km/h
980 09-08-2019 19:00:00 21.5 C 17.55 g/m*3 21.5 C 8.59167 km/h
981 09-08-2019 20:00:00 19.63333 C 15.91 g/m*3 19.63 C 0.93333 km/h
982 09-08-2019 21:00:00 19.31667 C 15.86 g/m*3 19.32 C 0.93333 km/h
983 09-08-2019 22:00:00 19.30833 C 15.93 g/m*3 19.31 C 0.26667 km/h
984 09-08-2019 23:00:00 18.86667 C 15.52 g/m*3 18.87 C 0.13333 km/h
985 10-08-2019 00:00:00 18.775 C 15.53 g/m*3 18.77 C 0.26667 km/h
986 10-08-2019 01:00:00 18.73333 C 15.55 g/m*3 18.73 C 0 km/h
987 10-08-2019 02:00:00 18.50833 C 15.35 g/m*3 18.51 C 0 km/h
988 10-08-2019 03:00:00 18.29167 C 15.16 g/m*3 18.29 C 0.4 km/h
989 10-08-2019 04:00:00 18.11667 C 15 g/m*3 18.12 C 0 km/h
990 10-08-2019 05:00:00 17.53333 C 14.49 g/m*3 17.53 C 0 km/h
991 10-08-2019 06:00:00 17.45 C 14.42 g/m*3 17.45 C 0 km/h
992 10-08-2019 07:00:00 17.33333 C 14.32 g/m*3 17.33 C 4.96667 km/h
993 10-08-2019 08:00:00 17.41667 C 14.11 g/m*3 17.42 C 11.01667 km/h
994 10-08-2019 09:00:00 19.125 C 14.12 g/m*3 19.13 C 14.76667 km/h
995 10-08-2019 10:00:00 20.36667 C 14.04 g/m*3 20.37 C 14.36667 km/h
996 10-08-2019 11:00:00 21.43333 C 13.96 g/m*3 21.43 C 13.7 km/h
997 10-08-2019 12:00:00 22.38333 C 13.69 g/m*3 22.38 C 16.23333 km/h
998 10-08-2019 13:00:00 23.26667 C 13.23 g/m*3 23.27 C 16.76667 km/h
999 10-08-2019 14:00:00 23.83333 C 13.09 g/m*3 23.83 C 17.43333 km/h
1000 10-08-2019 15:00:00 24.99167 C 12.75 g/m*3 24.99 C 17.43333 km/h
Sensor: Nr:Datum:Temp:Abs-Feuchte:Windchill:Wind:
Aussen-T/F 1001 10-08-2019 16:00:00 25.24167 C 12.48 g/m*3 25.24 C 15.29167 km/h
1002 10-08-2019 17:00:00 26.29167 C 12.19 g/m*3 26.29 C 15.3 km/h
1003 10-08-2019 18:00:00 25.99167 C 11.94 g/m*3 25.99 C 13.43333 km/h
1004 10-08-2019 19:00:00 25.00833 C 11.44 g/m*3 25.01 C 10.89167 km/h
1005 10-08-2019 20:00:00 22.63333 C 12.33 g/m*3 22.63 C 2.275 km/h
1006 10-08-2019 21:00:00 19.41667 C 12.14 g/m*3 19.42 C 0.26667 km/h
1007 10-08-2019 22:00:00 17.71667 C 11.89 g/m*3 17.72 C 0 km/h
1008 10-08-2019 23:00:00 16.45833 C 11.49 g/m*3 16.46 C 0.13333 km/h
1009 11-08-2019 00:00:00 15.75833 C 11.39 g/m*3 15.76 C 0 km/h
1010 11-08-2019 01:00:00 15.375 C 11.46 g/m*3 15.38 C 0 km/h
1011 11-08-2019 02:00:00 15.7 C 11.57 g/m*3 15.7 C 0 km/h
1012 11-08-2019 03:00:00 15.20833 C 11.23 g/m*3 15.21 C 0 km/h
1013 11-08-2019 04:00:00 14.43333 C 10.94 g/m*3 14.43 C 0 km/h
1014 11-08-2019 05:00:00 13.58333 C 10.6 g/m*3 13.58 C 0 km/h
1015 11-08-2019 06:00:00 13.40833 C 10.78 g/m*3 13.41 C 0.26667 km/h
1016 11-08-2019 07:00:00 14.04167 C 11.16 g/m*3 14.04 C 0 km/h
1017 11-08-2019 08:00:00 14.9 C 11.64 g/m*3 14.9 C 0 km/h
1018 11-08-2019 09:00:00 16.21667 C 12.02 g/m*3 16.22 C 0.53333 km/h
1019 11-08-2019 10:00:00 19.375 C 11.62 g/m*3 19.38 C 9.00833 km/h
1020 11-08-2019 11:00:00 21.26667 C 11.02 g/m*3 21.27 C 11.825 km/h
1021 11-08-2019 12:00:00 22.09167 C 10.89 g/m*3 22.09 C 10.75833 km/h
1022 11-08-2019 13:00:00 22.775 C 10.37 g/m*3 22.78 C 14.5 km/h
1023 11-08-2019 14:00:00 22.89167 C 10.74 g/m*3 22.89 C 9.14167 km/h
1024 11-08-2019 15:00:00 21.50833 C 11.57 g/m*3 21.51 C 3.2 km/h
1025 11-08-2019 16:00:00 20.05 C 12.13 g/m*3 20.05 C 3.34167 km/h
Sensor: Nr:Datum:Temp:Abs-Feuchte:Windchill:Wind:
Aussen-T/F 1026 11-08-2019 17:00:00 17.18333 C 12.7 g/m*3 17.18 C 2.26667 km/h
1027 11-08-2019 18:00:00 16.475 C 12.68 g/m*3 16.48 C 1.73333 km/h
1028 11-08-2019 19:00:00 16.075 C 12.27 g/m*3 16.08 C 1.06667 km/h
1029 11-08-2019 20:00:00 15.775 C 12.23 g/m*3 15.78 C 0.26667 km/h
1030 11-08-2019 21:00:00 15.23333 C 11.93 g/m*3 15.23 C 0.8 km/h
1031 11-08-2019 22:00:00 14.3 C 11.28 g/m*3 14.3 C 0.66667 km/h
1032 11-08-2019 23:00:00 14.24167 C 11.43 g/m*3 14.24 C 1.46667 km/h
1033 12-08-2019 00:00:00 14.85833 C 11.77 g/m*3 14.86 C 2.4 km/h
1034 12-08-2019 01:00:00 14.325 C 11.33 g/m*3 14.33 C 1.33333 km/h
1035 12-08-2019 02:00:00 13.66667 C 11.04 g/m*3 13.67 C 0.26667 km/h
1036 12-08-2019 03:00:00 13.125 C 10.74 g/m*3 13.13 C 0 km/h
1037 12-08-2019 04:00:00 12.89167 C 10.7 g/m*3 12.89 C 0 km/h
1038 12-08-2019 05:00:00 12.675 C 10.56 g/m*3 12.68 C 0 km/h
1039 12-08-2019 06:00:00 12.69167 C 10.63 g/m*3 12.69 C 0 km/h
1040 12-08-2019 07:00:00 13.05833 C 10.93 g/m*3 13.06 C 0 km/h
1041 12-08-2019 08:00:00 13.5 C 11.23 g/m*3 13.5 C 0 km/h
1042 12-08-2019 09:00:00 15.05 C 11.91 g/m*3 15.05 C 3.075 km/h
1043 12-08-2019 10:00:00 17.65 C 12.41 g/m*3 17.65 C 6.58333 km/h
1044 12-08-2019 11:00:00 20.08333 C 12.61 g/m*3 20.08 C 7.525 km/h
1045 12-08-2019 12:00:00 21.275 C 12.22 g/m*3 21.28 C 8.60833 km/h
1046 12-08-2019 13:00:00 21.775 C 11.64 g/m*3 21.78 C 10.89167 km/h
1047 12-08-2019 14:00:00 22.55 C 12.07 g/m*3 22.55 C 11.3 km/h
1048 12-08-2019 15:00:00 23.475 C 11.74 g/m*3 23.48 C 12.625 km/h
1049 12-08-2019 16:00:00 22.54167 C 11.71 g/m*3 22.54 C 14.5 km/h
1050 12-08-2019 17:00:00 17.89167 C 11.79 g/m*3 17.89 C 5.89167 km/h
Sensor: Nr:Datum:Temp:Abs-Feuchte:Windchill:Wind:
Aussen-T/F 1051 12-08-2019 18:00:00 15.925 C 12.21 g/m*3 15.93 C 0.4 km/h
1052 12-08-2019 19:00:00 15.925 C 12.48 g/m*3 15.93 C 0.53333 km/h
1053 12-08-2019 20:00:00 15.54167 C 12.21 g/m*3 15.54 C 0.26667 km/h
1054 12-08-2019 21:00:00 15.19167 C 12.14 g/m*3 15.19 C 0.26667 km/h
1055 12-08-2019 22:00:00 14.975 C 12.04 g/m*3 14.98 C 0.66667 km/h
1056 12-08-2019 23:00:00 14.01667 C 11.19 g/m*3 14.02 C 0.53333 km/h
1057 13-08-2019 00:00:00 13.55833 C 11.06 g/m*3 13.56 C 0.26667 km/h
1058 13-08-2019 01:00:00 13.025 C 10.71 g/m*3 13.03 C 0.26667 km/h
1059 13-08-2019 02:00:00 12.83333 C 10.69 g/m*3 12.83 C 0.53333 km/h
1060 13-08-2019 03:00:00 12.9 C 10.77 g/m*3 12.9 C 0 km/h
1061 13-08-2019 04:00:00 13.275 C 11.05 g/m*3 13.28 C 2.14167 km/h
1062 13-08-2019 05:00:00 13.18333 C 10.9 g/m*3 13.18 C 1.475 km/h
1063 13-08-2019 06:00:00 12.75 C 10.63 g/m*3 12.75 C 0.53333 km/h
1064 13-08-2019 07:00:00 12.9 C 10.74 g/m*3 12.9 C 2.13333 km/h
1065 13-08-2019 08:00:00 13.39167 C 10.78 g/m*3 13.39 C 6.85 km/h
1066 13-08-2019 09:00:00 14.85 C 11.03 g/m*3 14.85 C 6.96667 km/h
1067 13-08-2019 10:00:00 16.225 C 10.31 g/m*3 16.23 C 10.08333 km/h
1068 13-08-2019 11:00:00 17.175 C 9.83 g/m*3 17.18 C 10.625 km/h
1069 13-08-2019 12:00:00 18.13333 C 9.82 g/m*3 18.13 C 11.15833 km/h
1070 13-08-2019 13:00:00 19.025 C 9.08 g/m*3 19.02 C 10.76667 km/h
1071 13-08-2019 14:00:00 19.875 C 9.06 g/m*3 19.88 C 11.01667 km/h
1072 13-08-2019 15:00:00 21.275 C 9.37 g/m*3 21.28 C 13.56667 km/h
1073 13-08-2019 16:00:00 21.38333 C 9.54 g/m*3 21.38 C 11.15833 km/h
1074 13-08-2019 17:00:00 21.25833 C 9.39 g/m*3 21.26 C 9.41667 km/h
1075 13-08-2019 18:00:00 21.175 C 9.59 g/m*3 21.18 C 8.73333 km/h
Sensor: Nr:Datum:Temp:Abs-Feuchte:Windchill:Wind:
Aussen-T/F 1076 13-08-2019 19:00:00 18.53333 C 10.26 g/m*3 18.53 C 9.39167 km/h
1077 13-08-2019 20:00:00 14.91667 C 11.06 g/m*3 14.92 C 0.93333 km/h
1078 13-08-2019 21:00:00 13.99167 C 11.01 g/m*3 13.99 C 0 km/h
1079 13-08-2019 22:00:00 13.63333 C 10.92 g/m*3 13.63 C 0 km/h
1080 13-08-2019 23:00:00 13.36667 C 10.79 g/m*3 13.37 C 0 km/h
1081 14-08-2019 00:00:00 13.05 C 10.59 g/m*3 13.05 C 0 km/h
1082 14-08-2019 01:00:00 12.61667 C 10.32 g/m*3 12.62 C 0 km/h
1083 14-08-2019 02:00:00 12.10833 C 10 g/m*3 12.11 C 0 km/h
1084 14-08-2019 03:00:00 11.93333 C 9.98 g/m*3 11.93 C 0 km/h
1085 14-08-2019 04:00:00 11.43333 C 9.68 g/m*3 11.43 C 0 km/h
1086 14-08-2019 05:00:00 11.00833 C 9.51 g/m*3 11.01 C 0 km/h
1087 14-08-2019 06:00:00 10.61667 C 9.3 g/m*3 10.62 C 0 km/h
1088 14-08-2019 07:00:00 10.61667 C 9.38 g/m*3 10.62 C 0 km/h
1089 14-08-2019 08:00:00 11.4 C 9.89 g/m*3 11.4 C 2.01667 km/h
1090 14-08-2019 09:00:00 13.28333 C 10.79 g/m*3 13.28 C 5.625 km/h
1091 14-08-2019 10:00:00 14.26667 C 11.26 g/m*3 14.27 C 0.13333 km/h
1092 14-08-2019 11:00:00 15.66667 C 11.12 g/m*3 15.67 C 2 km/h
1093 14-08-2019 12:00:00 18.1 C 9.7 g/m*3 18.1 C 8.70833 km/h
1094 14-08-2019 13:00:00 19.59167 C 9.28 g/m*3 19.59 C 9.00833 km/h
1095 14-08-2019 14:00:00 21.08333 C 9.23 g/m*3 21.08 C 11.00833 km/h
1096 14-08-2019 15:00:00 22.60833 C 9.9 g/m*3 22.61 C 10.475 km/h
1097 14-08-2019 16:00:00 23.74167 C 9.92 g/m*3 23.74 C 11.69167 km/h
1098 14-08-2019 17:00:00 24.44167 C 9.98 g/m*3 24.44 C 13.43333 km/h
1099 14-08-2019 18:00:00 24 C 10.17 g/m*3 24 C 11.96667 km/h
1100 14-08-2019 19:00:00 22.31667 C 11.17 g/m*3 22.32 C 5.1 km/h
Sensor: Nr:Datum:Temp:Abs-Feuchte:Windchill:Wind:
Aussen-T/F 1101 14-08-2019 20:00:00 19.675 C 11.46 g/m*3 19.68 C 0 km/h
1102 14-08-2019 21:00:00 18.1 C 11.45 g/m*3 18.1 C 0 km/h
1103 14-08-2019 22:00:00 17.63333 C 11.45 g/m*3 17.63 C 0 km/h
1104 14-08-2019 23:00:00 17.4 C 11.34 g/m*3 17.4 C 0 km/h
1105 15-08-2019 00:00:00 17.35833 C 11.32 g/m*3 17.36 C 0.26667 km/h
1106 15-08-2019 01:00:00 17.38333 C 11.47 g/m*3 17.38 C 0.13333 km/h
1107 15-08-2019 02:00:00 16.2 C 12.19 g/m*3 16.2 C 0.66667 km/h
1108 15-08-2019 03:00:00 15.275 C 12.05 g/m*3 15.28 C 0 km/h
1109 15-08-2019 04:00:00 14.90833 C 11.94 g/m*3 14.91 C 0.13333 km/h
1110 15-08-2019 05:00:00 14.84167 C 11.96 g/m*3 14.84 C 0 km/h
1111 15-08-2019 06:00:00 14.96667 C 12.14 g/m*3 14.97 C 0.4 km/h
1112 15-08-2019 07:00:00 15.6 C 12.28 g/m*3 15.6 C 3.35833 km/h
1113 15-08-2019 08:00:00 17.59167 C 12.58 g/m*3 17.59 C 11.025 km/h
1114 15-08-2019 09:00:00 18.48333 C 12.88 g/m*3 18.48 C 11.025 km/h
1115 15-08-2019 10:00:00 19.14167 C 13.31 g/m*3 19.14 C 12.76667 km/h
1116 15-08-2019 11:00:00 19.28333 C 13.52 g/m*3 19.28 C 12.49167 km/h
1117 15-08-2019 12:00:00 19.90833 C 13.69 g/m*3 19.91 C 12.89167 km/h
1118 15-08-2019 13:00:00 18.94167 C 14.4 g/m*3 18.94 C 8.73333 km/h
1119 15-08-2019 14:00:00 19.73333 C 14.63 g/m*3 19.73 C 10.20833 km/h
1120 15-08-2019 15:00:00 20.79167 C 14.72 g/m*3 20.79 C 12.88333 km/h
1121 15-08-2019 16:00:00 19.325 C 14.88 g/m*3 19.33 C 11.95833 km/h
1122 15-08-2019 17:00:00 17.3 C 13.69 g/m*3 17.3 C 4.41667 km/h
1123 15-08-2019 18:00:00 16.975 C 13.61 g/m*3 16.98 C 2.66667 km/h
1124 15-08-2019 19:00:00 17.25 C 13.89 g/m*3 17.25 C 1.2 km/h
1125 15-08-2019 20:00:00 17.09167 C 13.76 g/m*3 17.09 C 1.33333 km/h
Sensor: Nr:Datum:Temp:Abs-Feuchte:Windchill:Wind:
Aussen-T/F 1126 15-08-2019 21:00:00 16.40833 C 13.23 g/m*3 16.41 C 2.54167 km/h
1127 15-08-2019 22:00:00 15.93333 C 12.83 g/m*3 15.93 C 1.46667 km/h
1128 15-08-2019 23:00:00 15.54167 C 12.59 g/m*3 15.54 C 1.06667 km/h
1129 16-08-2019 00:00:00 15.29167 C 12.41 g/m*3 15.29 C 0.53333 km/h
1130 16-08-2019 01:00:00 14.63333 C 11.94 g/m*3 14.63 C 0.13333 km/h
1131 16-08-2019 02:00:00 14.575 C 11.99 g/m*3 14.58 C 0.8 km/h
1132 16-08-2019 03:00:00 14.64167 C 12.04 g/m*3 14.64 C 0.4 km/h
1133 16-08-2019 04:00:00 14.08333 C 11.64 g/m*3 14.08 C 0 km/h
1134 16-08-2019 05:00:00 13.575 C 11.31 g/m*3 13.58 C 0.66667 km/h
1135 16-08-2019 06:00:00 13.69167 C 11.48 g/m*3 13.69 C 2.26667 km/h
1136 16-08-2019 07:00:00 14.18333 C 11.78 g/m*3 14.18 C 2.54167 km/h
1137 16-08-2019 08:00:00 14.45833 C 11.8 g/m*3 14.46 C 5.1 km/h
1138 16-08-2019 09:00:00 15.54167 C 11.89 g/m*3 15.54 C 9.29167 km/h
1139 16-08-2019 10:00:00 16.26667 C 11.87 g/m*3 16.27 C 12.36667 km/h
1140 16-08-2019 11:00:00 17.1 C 12 g/m*3 17.1 C 11.56667 km/h
1141 16-08-2019 12:00:00 18.43333 C 12.04 g/m*3 18.43 C 12.9 km/h
1142 16-08-2019 13:00:00 19.65 C 11.98 g/m*3 19.65 C 16.5 km/h
1143 16-08-2019 14:00:00 20.4 C 11.97 g/m*3 20.4 C 12.76667 km/h
1144 16-08-2019 15:00:00 21.90833 C 11.78 g/m*3 21.91 C 10.9 km/h
1145 16-08-2019 16:00:00 23.63333 C 11.61 g/m*3 23.63 C 11.03333 km/h
1146 16-08-2019 17:00:00 24.475 C 11.58 g/m*3 24.48 C 11.41667 km/h
1147 16-08-2019 18:00:00 24.43333 C 11.61 g/m*3 24.43 C 9.94167 km/h
1148 16-08-2019 19:00:00 23.41667 C 12.24 g/m*3 23.42 C 6.325 km/h
1149 16-08-2019 20:00:00 20.075 C 12.43 g/m*3 20.08 C 0.13333 km/h
1150 16-08-2019 21:00:00 17.75833 C 12.16 g/m*3 17.76 C 0 km/h
Sensor: Nr:Datum:Temp:Abs-Feuchte:Windchill:Wind:
Aussen-T/F 1151 16-08-2019 22:00:00 16.88333 C 12.19 g/m*3 16.88 C 0 km/h
1152 16-08-2019 23:00:00 16.23333 C 11.96 g/m*3 16.23 C 0 km/h
1153 17-08-2019 00:00:00 15.69167 C 11.75 g/m*3 15.69 C 0 km/h
1154 17-08-2019 01:00:00 15.86667 C 11.93 g/m*3 15.87 C 0 km/h
1155 17-08-2019 02:00:00 15.76667 C 11.91 g/m*3 15.77 C 0 km/h
1156 17-08-2019 03:00:00 15.76667 C 12.24 g/m*3 15.77 C 0 km/h
1157 17-08-2019 04:00:00 15.69167 C 12.47 g/m*3 15.69 C 0 km/h
1158 17-08-2019 05:00:00 15.63333 C 12.53 g/m*3 15.63 C 0 km/h
1159 17-08-2019 06:00:00 15.65833 C 12.55 g/m*3 15.66 C 0 km/h
1160 17-08-2019 07:00:00 16.13333 C 12.91 g/m*3 16.13 C 0.26667 km/h
1161 17-08-2019 08:00:00 16.95833 C 13.1 g/m*3 16.96 C 3.075 km/h
1162 17-08-2019 09:00:00 18.66667 C 12.81 g/m*3 18.67 C 7.76667 km/h
1163 17-08-2019 10:00:00 19.01667 C 13.23 g/m*3 19.02 C 2.13333 km/h
1164 17-08-2019 11:00:00 18.59167 C 13.81 g/m*3 18.59 C 1.60833 km/h
1165 17-08-2019 12:00:00 19.275 C 14.11 g/m*3 19.27 C 2.14167 km/h
1166 17-08-2019 13:00:00 20.68333 C 13.73 g/m*3 20.68 C 12.625 km/h
1167 17-08-2019 14:00:00 21 C 13.72 g/m*3 21 C 10.35 km/h
1168 17-08-2019 15:00:00 21.31667 C 13.96 g/m*3 21.32 C 8.34167 km/h
1169 17-08-2019 16:00:00 21 C 13.91 g/m*3 21 C 8.85833 km/h
1170 17-08-2019 17:00:00 20.44167 C 13.82 g/m*3 20.44 C 4.55833 km/h
1171 17-08-2019 18:00:00 19.975 C 14.34 g/m*3 19.98 C 0.93333 km/h
1172 17-08-2019 19:00:00 19.125 C 14.49 g/m*3 19.13 C 0.4 km/h
1173 17-08-2019 20:00:00 18.325 C 14.26 g/m*3 18.33 C 0.13333 km/h
1174 17-08-2019 21:00:00 17.84167 C 14.1 g/m*3 17.84 C 0.26667 km/h
1175 17-08-2019 22:00:00 17.74167 C 14.22 g/m*3 17.74 C 0.4 km/h
Sensor: Nr:Datum:Temp:Abs-Feuchte:Windchill:Wind:
Aussen-T/F 1176 17-08-2019 23:00:00 17.525 C 14.13 g/m*3 17.52 C 0.13333 km/h
1177 18-08-2019 00:00:00 17.4 C 14.08 g/m*3 17.4 C 0 km/h
1178 18-08-2019 01:00:00 17.38333 C 14.15 g/m*3 17.38 C 0 km/h
1179 18-08-2019 02:00:00 17.225 C 14.08 g/m*3 17.23 C 0 km/h
1180 18-08-2019 03:00:00 17.2 C 14.06 g/m*3 17.2 C 0 km/h
1181 18-08-2019 04:00:00 17.18333 C 14.04 g/m*3 17.18 C 0 km/h
1182 18-08-2019 05:00:00 17.3 C 14.25 g/m*3 17.3 C 0 km/h
1183 18-08-2019 06:00:00 17.26667 C 14.26 g/m*3 17.27 C 0 km/h
1184 18-08-2019 07:00:00 17.34167 C 14.33 g/m*3 17.34 C 0 km/h
1185 18-08-2019 08:00:00 17.93333 C 14.84 g/m*3 17.93 C 0 km/h
1186 18-08-2019 09:00:00 18.85833 C 15.72 g/m*3 18.86 C 0 km/h
1187 18-08-2019 10:00:00 19.93333 C 16.77 g/m*3 19.93 C 1.33333 km/h
1188 18-08-2019 11:00:00 22.19167 C 18.07 g/m*3 22.19 C 9.00833 km/h
1189 18-08-2019 12:00:00 24.075 C 16.99 g/m*3 24.08 C 17.03333 km/h
1190 18-08-2019 13:00:00 24.4 C 16.88 g/m*3 24.4 C 15.98333 km/h
1191 18-08-2019 14:00:00 24.725 C 16.96 g/m*3 24.73 C 17.84167 km/h
1192 18-08-2019 15:00:00 24.7 C 17.16 g/m*3 24.7 C 15.03333 km/h
1193 18-08-2019 16:00:00 24.99167 C 16.74 g/m*3 24.99 C 14.9 km/h
1194 18-08-2019 17:00:00 24.35 C 16.14 g/m*3 24.35 C 15.83333 km/h
1195 18-08-2019 18:00:00 20.49167 C 16.3 g/m*3 20.49 C 1.33333 km/h
1196 18-08-2019 19:00:00 20.00833 C 16.22 g/m*3 20.01 C 1.2 km/h
1197 18-08-2019 20:00:00 19.45833 C 15.85 g/m*3 19.46 C 1.86667 km/h
1198 18-08-2019 21:00:00 18.8 C 15.19 g/m*3 18.8 C 0.93333 km/h
1199 18-08-2019 22:00:00 17.65 C 14.22 g/m*3 17.65 C 0.8 km/h
1200 18-08-2019 23:00:00 16.59167 C 13.41 g/m*3 16.59 C 1.06667 km/h
Sensor: Nr:Datum:Temp:Abs-Feuchte:Windchill:Wind:
Aussen-T/F 1201 19-08-2019 00:00:00 16.14167 C 13.19 g/m*3 16.14 C 0.53333 km/h
1202 19-08-2019 01:00:00 16.10833 C 13.17 g/m*3 16.11 C 0.93333 km/h
1203 19-08-2019 02:00:00 15.81667 C 12.94 g/m*3 15.82 C 0.26667 km/h
1204 19-08-2019 03:00:00 15.38333 C 12.61 g/m*3 15.38 C 0 km/h
1205 19-08-2019 04:00:00 14.78333 C 12.17 g/m*3 14.78 C 0 km/h
1206 19-08-2019 05:00:00 15.125 C 12.53 g/m*3 15.13 C 0.13333 km/h
1207 19-08-2019 06:00:00 14.61667 C 12.13 g/m*3 14.62 C 0 km/h
1208 19-08-2019 07:00:00 15.025 C 12.48 g/m*3 15.03 C 2 km/h
1209 19-08-2019 08:00:00 15.65833 C 12.95 g/m*3 15.66 C 0.93333 km/h
1210 19-08-2019 09:00:00 15.89167 C 13.07 g/m*3 15.89 C 6.03333 km/h
1211 19-08-2019 10:00:00 16.63333 C 12.41 g/m*3 16.63 C 7.79167 km/h
1212 19-08-2019 11:00:00 18.55833 C 11.87 g/m*3 18.56 C 10.36667 km/h
1213 19-08-2019 12:00:00 20.275 C 11.33 g/m*3 20.27 C 11.95833 km/h
1214 19-08-2019 13:00:00 21.525 C 11.02 g/m*3 21.53 C 11.69167 km/h
1215 19-08-2019 14:00:00 22.79167 C 10.93 g/m*3 22.79 C 13.7 km/h
1216 19-08-2019 15:00:00 23.46667 C 10.69 g/m*3 23.47 C 13.55833 km/h
1217 19-08-2019 16:00:00 23.78333 C 10.89 g/m*3 23.78 C 11.425 km/h
1218 19-08-2019 17:00:00 24.025 C 10.55 g/m*3 24.03 C 11.68333 km/h
1219 19-08-2019 18:00:00 23.51667 C 10.69 g/m*3 23.52 C 7.65 km/h
1220 19-08-2019 19:00:00 22.95833 C 11.55 g/m*3 22.96 C 4.7 km/h
1221 19-08-2019 20:00:00 19.71667 C 11.84 g/m*3 19.72 C 0.8 km/h
1222 19-08-2019 21:00:00 17.30833 C 11.03 g/m*3 17.31 C 0 km/h
1223 19-08-2019 22:00:00 16.51667 C 11.29 g/m*3 16.52 C 0 km/h
1224 19-08-2019 23:00:00 15.21667 C 10.86 g/m*3 15.22 C 0.13333 km/h
1225 20-08-2019 00:00:00 13.975 C 10.43 g/m*3 13.98 C 0 km/h
Sensor: Nr:Datum:Temp:Abs-Feuchte:Windchill:Wind:
Aussen-T/F 1226 20-08-2019 01:00:00 13.21667 C 10.16 g/m*3 13.22 C 0.53333 km/h
1227 20-08-2019 02:00:00 12.825 C 10.09 g/m*3 12.83 C 2.13333 km/h
1228 20-08-2019 03:00:00 12.21667 C 9.79 g/m*3 12.22 C 0 km/h
1229 20-08-2019 04:00:00 11.34167 C 9.46 g/m*3 11.34 C 0.4 km/h
1230 20-08-2019 05:00:00 10.9 C 9.32 g/m*3 10.9 C 0.13333 km/h
1231 20-08-2019 06:00:00 10.425 C 9.12 g/m*3 10.43 C 0.26667 km/h
1232 20-08-2019 07:00:00 10.78333 C 9.41 g/m*3 10.78 C 0 km/h
1233 20-08-2019 08:00:00 11.425 C 9.83 g/m*3 11.43 C 0.93333 km/h
1234 20-08-2019 09:00:00 12.61667 C 10.53 g/m*3 12.62 C 1.06667 km/h
1235 20-08-2019 10:00:00 15.26667 C 11.21 g/m*3 15.27 C 0.66667 km/h
1236 20-08-2019 11:00:00 17.375 C 10.89 g/m*3 17.38 C 2.13333 km/h
1237 20-08-2019 12:00:00 18.625 C 10.65 g/m*3 18.63 C 1.46667 km/h
1238 20-08-2019 13:00:00 19.525 C 10.45 g/m*3 19.52 C 3.875 km/h
1239 20-08-2019 14:00:00 20.43333 C 10.16 g/m*3 20.43 C 4.54167 km/h
1240 20-08-2019 15:00:00 21.10833 C 10.37 g/m*3 21.11 C 5.08333 km/h
1241 20-08-2019 16:00:00 21.41667 C 11.04 g/m*3 21.42 C 2.13333 km/h
1242 20-08-2019 17:00:00 20.68333 C 11.59 g/m*3 20.68 C 2.40833 km/h
1243 20-08-2019 18:00:00 20.375 C 13.06 g/m*3 20.38 C 0.26667 km/h
1244 20-08-2019 19:00:00 18.88333 C 12.11 g/m*3 18.88 C 0.13333 km/h
1245 20-08-2019 20:00:00 17.58333 C 11.35 g/m*3 17.58 C 0.8 km/h
1246 20-08-2019 21:00:00 16.76667 C 11.4 g/m*3 16.77 C 0.26667 km/h
1247 20-08-2019 22:00:00 15.925 C 11.36 g/m*3 15.93 C 0.4 km/h
1248 20-08-2019 23:00:00 15.175 C 11.02 g/m*3 15.18 C 0.26667 km/h
1249 21-08-2019 00:00:00 14.11667 C 10.59 g/m*3 14.12 C 0 km/h
1250 21-08-2019 01:00:00 13.55833 C 10.42 g/m*3 13.56 C 0 km/h
Sensor: Nr:Datum:Temp:Abs-Feuchte:Windchill:Wind:
Aussen-T/F 1251 21-08-2019 02:00:00 12.65833 C 10.08 g/m*3 12.66 C 0.13333 km/h
1252 21-08-2019 03:00:00 11.99167 C 9.85 g/m*3 11.99 C 0.13333 km/h
1253 21-08-2019 04:00:00 11.30833 C 9.54 g/m*3 11.31 C 0.13333 km/h
1254 21-08-2019 05:00:00 10.73333 C 9.25 g/m*3 10.73 C 0 km/h
1255 21-08-2019 06:00:00 10.325 C 9.1 g/m*3 10.33 C 0 km/h
1256 21-08-2019 07:00:00 10.35833 C 9.16 g/m*3 10.36 C 0.26667 km/h
1257 21-08-2019 08:00:00 10.85833 C 9.52 g/m*3 10.86 C 0.13333 km/h
1258 21-08-2019 09:00:00 11.86667 C 10.15 g/m*3 11.87 C 0.66667 km/h
1259 21-08-2019 10:00:00 13.33333 C 11.14 g/m*3 13.33 C 0 km/h
1260 21-08-2019 11:00:00 15.80833 C 12.13 g/m*3 15.81 C 0.93333 km/h
1261 21-08-2019 12:00:00 18.54167 C 11.58 g/m*3 18.54 C 1.46667 km/h
1262 21-08-2019 13:00:00 20.375 C 10.25 g/m*3 20.38 C 5.38333 km/h
1263 21-08-2019 14:00:00 21.79167 C 10.04 g/m*3 21.79 C 6.575 km/h
1264 21-08-2019 15:00:00 22.95833 C 10.3 g/m*3 22.96 C 2.13333 km/h
1265 21-08-2019 16:00:00 24.475 C 9.39 g/m*3 24.48 C 7.23333 km/h
1266 21-08-2019 17:00:00 24.65 C 9.4 g/m*3 24.65 C 4.28333 km/h
1267 21-08-2019 18:00:00 24.64167 C 10 g/m*3 24.64 C 4.94167 km/h
1268 21-08-2019 19:00:00 23.46667 C 11.61 g/m*3 23.47 C 1.6 km/h
1269 21-08-2019 20:00:00 19.875 C 11.09 g/m*3 19.88 C 0 km/h
1270 21-08-2019 21:00:00 17.49167 C 9.97 g/m*3 17.49 C 0.4 km/h
1271 21-08-2019 22:00:00 16.29167 C 9.59 g/m*3 16.29 C 0 km/h
1272 21-08-2019 23:00:00 15.05833 C 9.99 g/m*3 15.06 C 0 km/h
1273 22-08-2019 00:00:00 13.475 C 9.75 g/m*3 13.48 C 0 km/h
1274 22-08-2019 01:00:00 12.41667 C 9.41 g/m*3 12.42 C 0 km/h
1275 22-08-2019 02:00:00 11.66667 C 9.25 g/m*3 11.67 C 0 km/h
Sensor: Nr:Datum:Temp:Abs-Feuchte:Windchill:Wind:
Aussen-T/F 1276 22-08-2019 03:00:00 11.125 C 9.12 g/m*3 11.13 C 0 km/h
1277 22-08-2019 04:00:00 10.55833 C 8.92 g/m*3 10.56 C 0 km/h
1278 22-08-2019 05:00:00 9.99167 C 8.7 g/m*3 9.99 C 0 km/h
1279 22-08-2019 06:00:00 9.71667 C 8.65 g/m*3 9.72 C 0 km/h
1280 22-08-2019 07:00:00 9.7 C 8.73 g/m*3 9.7 C 0 km/h
1281 22-08-2019 08:00:00 10.30833 C 9.13 g/m*3 10.31 C 0 km/h
1282 22-08-2019 09:00:00 11.525 C 9.93 g/m*3 11.53 C 0 km/h
1283 22-08-2019 10:00:00 13.51667 C 11.07 g/m*3 13.52 C 0 km/h
1284 22-08-2019 11:00:00 16.925 C 11.87 g/m*3 16.93 C 0 km/h
1285 22-08-2019 12:00:00 20.11667 C 11.46 g/m*3 20.12 C 3.46667 km/h
1286 22-08-2019 13:00:00 22.71667 C 10.89 g/m*3 22.72 C 5.09167 km/h
1287 22-08-2019 14:00:00 24.08333 C 10.49 g/m*3 24.08 C 6.71667 km/h
1288 22-08-2019 15:00:00 25.89167 C 9.9 g/m*3 25.89 C 6.84167 km/h
1289 22-08-2019 16:00:00 27.33333 C 9.76 g/m*3 27.33 C 6.16667 km/h
1290 22-08-2019 17:00:00 28.01667 C 9.41 g/m*3 28.02 C 6.16667 km/h
1291 22-08-2019 18:00:00 28.38333 C 9.67 g/m*3 28.38 C 3.46667 km/h
1292 22-08-2019 19:00:00 26.06667 C 11.97 g/m*3 26.07 C 0.26667 km/h
1293 22-08-2019 20:00:00 21.49167 C 11.04 g/m*3 21.49 C 0.26667 km/h
1294 22-08-2019 21:00:00 18.25 C 10.74 g/m*3 18.25 C 0 km/h
1295 22-08-2019 22:00:00 16.40833 C 10.6 g/m*3 16.41 C 0 km/h
1296 22-08-2019 23:00:00 14.90833 C 10.12 g/m*3 14.91 C 0 km/h
1297 23-08-2019 00:00:00 13.94167 C 9.97 g/m*3 13.94 C 0 km/h
1298 23-08-2019 01:00:00 13.26667 C 9.81 g/m*3 13.27 C 0 km/h
1299 23-08-2019 02:00:00 12.775 C 9.72 g/m*3 12.78 C 0 km/h
1300 23-08-2019 03:00:00 11.975 C 9.49 g/m*3 11.98 C 0 km/h
Sensor: Nr:Datum:Temp:Abs-Feuchte:Windchill:Wind:
Aussen-T/F 1301 23-08-2019 04:00:00 11.56667 C 9.45 g/m*3 11.57 C 0 km/h
1302 23-08-2019 05:00:00 11.06667 C 9.24 g/m*3 11.07 C 0 km/h
1303 23-08-2019 06:00:00 10.66667 C 9.14 g/m*3 10.67 C 0 km/h
1304 23-08-2019 07:00:00 10.7 C 9.25 g/m*3 10.7 C 0 km/h
1305 23-08-2019 08:00:00 11.3 C 9.68 g/m*3 11.3 C 0 km/h
1306 23-08-2019 09:00:00 12.35 C 10.35 g/m*3 12.35 C 0 km/h
1307 23-08-2019 10:00:00 14.34167 C 11.59 g/m*3 14.34 C 0 km/h
1308 23-08-2019 11:00:00 17.6 C 12.75 g/m*3 17.6 C 0 km/h
1309 23-08-2019 12:00:00 21.16667 C 12.76 g/m*3 21.17 C 1.46667 km/h
1310 23-08-2019 13:00:00 24.1 C 11.12 g/m*3 24.1 C 3.86667 km/h
1311 23-08-2019 14:00:00 26.13333 C 10.36 g/m*3 26.13 C 7.925 km/h
1312 23-08-2019 15:00:00 27.85833 C 10.32 g/m*3 27.86 C 6.84167 km/h
1313 23-08-2019 16:00:00 29.15 C 10.11 g/m*3 29.15 C 9.28333 km/h
1314 23-08-2019 17:00:00 29.375 C 9.97 g/m*3 29.38 C 12.5 km/h
1315 23-08-2019 18:00:00 28.94167 C 9.47 g/m*3 28.94 C 12.36667 km/h
1316 23-08-2019 19:00:00 27.20833 C 12.06 g/m*3 27.21 C 1.875 km/h
1317 23-08-2019 20:00:00 23.01667 C 11.42 g/m*3 23.02 C 0.66667 km/h
1318 23-08-2019 21:00:00 20.16667 C 11.34 g/m*3 20.17 C 0 km/h
1319 23-08-2019 22:00:00 17.85 C 11.09 g/m*3 17.85 C 0 km/h
1320 23-08-2019 23:00:00 16.23333 C 10.61 g/m*3 16.23 C 0 km/h
1321 24-08-2019 00:00:00 14.96667 C 10.33 g/m*3 14.97 C 0 km/h
1322 24-08-2019 01:00:00 14.05833 C 10.23 g/m*3 14.06 C 0 km/h
1323 24-08-2019 02:00:00 13.425 C 10.07 g/m*3 13.43 C 0 km/h
1324 24-08-2019 03:00:00 12.7 C 9.88 g/m*3 12.7 C 0 km/h
1325 24-08-2019 04:00:00 12.06667 C 9.67 g/m*3 12.07 C 0 km/h
Sensor: Nr:Datum:Temp:Abs-Feuchte:Windchill:Wind:
Aussen-T/F 1326 24-08-2019 05:00:00 11.66667 C 9.58 g/m*3 11.67 C 0 km/h
1327 24-08-2019 06:00:00 11.425 C 9.54 g/m*3 11.43 C 0 km/h
1328 24-08-2019 07:00:00 11.575 C 9.75 g/m*3 11.58 C 0 km/h
1329 24-08-2019 08:00:00 12.06667 C 10.08 g/m*3 12.07 C 0 km/h
1330 24-08-2019 09:00:00 13.23333 C 10.82 g/m*3 13.23 C 0 km/h
1331 24-08-2019 10:00:00 15.5 C 12.09 g/m*3 15.5 C 0.4 km/h
1332 24-08-2019 11:00:00 18.88333 C 12.89 g/m*3 18.88 C 0.66667 km/h
1333 24-08-2019 12:00:00 22.24167 C 13.01 g/m*3 22.24 C 2.66667 km/h
1334 24-08-2019 13:00:00 25.4 C 12.28 g/m*3 25.4 C 7.78333 km/h
1335 24-08-2019 14:00:00 27.05 C 11.27 g/m*3 27.05 C 8.58333 km/h
1336 24-08-2019 15:00:00 28.69167 C 10.64 g/m*3 28.69 C 8.875 km/h
1337 24-08-2019 16:00:00 29.81667 C 10.33 g/m*3 29.82 C 11.69167 km/h
1338 24-08-2019 17:00:00 30.29167 C 10.09 g/m*3 30.29 C 11.15833 km/h
1339 24-08-2019 18:00:00 30.66667 C 10.95 g/m*3 30.67 C 9.55 km/h
1340 24-08-2019 19:00:00 28.56667 C 13.72 g/m*3 28.57 C 1.6 km/h
1341 24-08-2019 20:00:00 24.29167 C 13.11 g/m*3 24.29 C 0.66667 km/h
1342 24-08-2019 21:00:00 22.01667 C 12.87 g/m*3 22.02 C 0.4 km/h
1343 24-08-2019 22:00:00 19.78333 C 12.64 g/m*3 19.78 C 0.13333 km/h
1344 24-08-2019 23:00:00 18.175 C 12.16 g/m*3 18.18 C 0 km/h
1345 25-08-2019 00:00:00 17.35833 C 12.09 g/m*3 17.36 C 0 km/h
1346 25-08-2019 01:00:00 16.96667 C 11.95 g/m*3 16.97 C 0.26667 km/h
1347 25-08-2019 02:00:00 16.15833 C 11.73 g/m*3 16.16 C 0 km/h
1348 25-08-2019 03:00:00 15.53333 C 11.66 g/m*3 15.53 C 0.26667 km/h
1349 25-08-2019 04:00:00 15.19167 C 11.47 g/m*3 15.19 C 0.13333 km/h
1350 25-08-2019 05:00:00 14.65833 C 11.28 g/m*3 14.66 C 0 km/h
Sensor: Nr:Datum:Temp:Abs-Feuchte:Windchill:Wind:
Aussen-T/F 1351 25-08-2019 06:00:00 14.41667 C 11.24 g/m*3 14.42 C 0 km/h
1352 25-08-2019 07:00:00 14.80833 C 11.59 g/m*3 14.81 C 0.26667 km/h
1353 25-08-2019 08:00:00 15.84167 C 12.21 g/m*3 15.84 C 0 km/h
1354 25-08-2019 09:00:00 17.2 C 12.94 g/m*3 17.2 C 0 km/h
1355 25-08-2019 10:00:00 18.78333 C 13.62 g/m*3 18.78 C 0 km/h
1356 25-08-2019 11:00:00 21.64167 C 14.72 g/m*3 21.64 C 1.46667 km/h
1357 25-08-2019 12:00:00 24.54167 C 15.7 g/m*3 24.54 C 3.33333 km/h
1358 25-08-2019 13:00:00 26.76667 C 15.98 g/m*3 26.77 C 3.33333 km/h
1359 25-08-2019 14:00:00 28.375 C 15.82 g/m*3 28.38 C 4.28333 km/h
1360 25-08-2019 15:00:00 30.28333 C 15.83 g/m*3 30.28 C 5.5 km/h
1361 25-08-2019 16:00:00 31.18333 C 16.05 g/m*3 31.18 C 6.05833 km/h
1362 25-08-2019 17:00:00 32.3 C 16.12 g/m*3 32.3 C 3.875 km/h
1363 25-08-2019 18:00:00 30.05 C 16.09 g/m*3 30.05 C 4.425 km/h
1364 25-08-2019 19:00:00 27.125 C 16.41 g/m*3 27.13 C 0.13333 km/h
1365 25-08-2019 20:00:00 24.31667 C 15.82 g/m*3 24.32 C 0.13333 km/h
1366 25-08-2019 21:00:00 22.98333 C 15.85 g/m*3 22.98 C 0 km/h
1367 25-08-2019 22:00:00 21.19167 C 15.27 g/m*3 21.19 C 0 km/h
1368 25-08-2019 23:00:00 20.10833 C 14.86 g/m*3 20.11 C 0 km/h
1369 26-08-2019 00:00:00 19.475 C 14.76 g/m*3 19.48 C 0 km/h
1370 26-08-2019 01:00:00 19.14167 C 14.65 g/m*3 19.14 C 0 km/h
1371 26-08-2019 02:00:00 18.53333 C 14.39 g/m*3 18.53 C 0.13333 km/h
1372 26-08-2019 03:00:00 18.025 C 14.1 g/m*3 18.02 C 0 km/h
1373 26-08-2019 04:00:00 17.41667 C 13.8 g/m*3 17.42 C 0 km/h
1374 26-08-2019 05:00:00 17.14167 C 13.74 g/m*3 17.14 C 0.13333 km/h
1375 26-08-2019 06:00:00 16.76667 C 13.46 g/m*3 16.77 C 0 km/h
Sensor: Nr:Datum:Temp:Abs-Feuchte:Windchill:Wind:
Aussen-T/F 1376 26-08-2019 07:00:00 16.71667 C 13.55 g/m*3 16.72 C 0 km/h
1377 26-08-2019 08:00:00 17.475 C 14.29 g/m*3 17.48 C 0 km/h
1378 26-08-2019 09:00:00 18.55 C 15.21 g/m*3 18.55 C 0 km/h
1379 26-08-2019 10:00:00 20.15833 C 16.12 g/m*3 20.16 C 0.13333 km/h
1380 26-08-2019 11:00:00 22.95 C 17.15 g/m*3 22.95 C 0.93333 km/h
1381 26-08-2019 12:00:00 25.70833 C 17.45 g/m*3 25.71 C 1.86667 km/h
1382 26-08-2019 13:00:00 28.3 C 16.68 g/m*3 28.3 C 5.075 km/h
1383 26-08-2019 14:00:00 30.01667 C 15.99 g/m*3 30.02 C 5.08333 km/h
1384 26-08-2019 15:00:00 30.85833 C 16.04 g/m*3 30.86 C 4.95 km/h
1385 26-08-2019 16:00:00 28.55 C 16.58 g/m*3 28.55 C 2 km/h
1386 26-08-2019 17:00:00 27.475 C 17.77 g/m*3 27.48 C 0 km/h
1387 26-08-2019 18:00:00 27.10833 C 18.14 g/m*3 27.11 C 0 km/h
1388 26-08-2019 19:00:00 28.06667 C 18.01 g/m*3 28.07 C 0 km/h
1389 26-08-2019 20:00:00 24.69167 C 16.65 g/m*3 24.69 C 0 km/h
1390 26-08-2019 21:00:00 22.45 C 16.03 g/m*3 22.45 C 0 km/h
1391 26-08-2019 22:00:00 21.09167 C 15.61 g/m*3 21.09 C 0 km/h
1392 26-08-2019 23:00:00 20.175 C 15.34 g/m*3 20.18 C 0.13333 km/h
1393 27-08-2019 00:00:00 19.40833 C 15.01 g/m*3 19.41 C 0 km/h
1394 27-08-2019 01:00:00 19.01667 C 15.01 g/m*3 19.02 C 0 km/h
1395 27-08-2019 02:00:00 18.39167 C 14.59 g/m*3 18.39 C 0 km/h
1396 27-08-2019 03:00:00 17.91667 C 14.38 g/m*3 17.92 C 0.13333 km/h
1397 27-08-2019 04:00:00 17.55833 C 14.1 g/m*3 17.56 C 0 km/h
1398 27-08-2019 05:00:00 17.15833 C 13.88 g/m*3 17.16 C 0 km/h
1399 27-08-2019 06:00:00 16.79167 C 13.62 g/m*3 16.79 C 0 km/h
1400 27-08-2019 07:00:00 16.85 C 13.77 g/m*3 16.85 C 0 km/h
Sensor: Nr:Datum:Temp:Abs-Feuchte:Windchill:Wind:
Aussen-T/F 1401 27-08-2019 08:00:00 17.325 C 14.24 g/m*3 17.33 C 0 km/h
1402 27-08-2019 09:00:00 18.4 C 15.26 g/m*3 18.4 C 0 km/h
1403 27-08-2019 10:00:00 19.78333 C 16.4 g/m*3 19.78 C 0 km/h
1404 27-08-2019 11:00:00 22.275 C 17.8 g/m*3 22.28 C 0 km/h
1405 27-08-2019 12:00:00 25.41667 C 17.97 g/m*3 25.42 C 0 km/h
1406 27-08-2019 13:00:00 28.99167 C 16.36 g/m*3 28.99 C 1.06667 km/h
1407 27-08-2019 14:00:00 30.54167 C 15.38 g/m*3 30.54 C 2 km/h
1408 27-08-2019 15:00:00 31.89167 C 14.46 g/m*3 31.89 C 4.95833 km/h
1409 27-08-2019 16:00:00 33.23333 C 15.02 g/m*3 33.23 C 4.28333 km/h
1410 27-08-2019 17:00:00 32.29167 C 16.29 g/m*3 32.29 C 1.46667 km/h
1411 27-08-2019 18:00:00 29.55833 C 16.9 g/m*3 29.56 C 1.2 km/h
1412 27-08-2019 19:00:00 27.7 C 17.08 g/m*3 27.7 C 5.23333 km/h
1413 27-08-2019 20:00:00 23.50833 C 17.31 g/m*3 23.51 C 0.53333 km/h
1414 27-08-2019 21:00:00 22.09167 C 16.5 g/m*3 22.09 C 0.4 km/h
1415 27-08-2019 22:00:00 21.14167 C 15.96 g/m*3 21.14 C 0 km/h
1416 27-08-2019 23:00:00 20.43333 C 15.63 g/m*3 20.43 C 0.13333 km/h
1417 28-08-2019 00:00:00 19.9 C 15.48 g/m*3 19.9 C 0.4 km/h
1418 28-08-2019 01:00:00 19.61667 C 15.5 g/m*3 19.62 C 0 km/h
1419 28-08-2019 02:00:00 19.24167 C 15.32 g/m*3 19.24 C 0 km/h
1420 28-08-2019 03:00:00 18.71667 C 14.98 g/m*3 18.72 C 0.4 km/h
1421 28-08-2019 04:00:00 18.33333 C 14.71 g/m*3 18.33 C 0 km/h
1422 28-08-2019 05:00:00 17.96667 C 14.47 g/m*3 17.97 C 0 km/h
1423 28-08-2019 06:00:00 18.01667 C 14.62 g/m*3 18.02 C 0 km/h
1424 28-08-2019 07:00:00 17.85833 C 14.51 g/m*3 17.86 C 0 km/h
1425 28-08-2019 08:00:00 18.64167 C 15.28 g/m*3 18.64 C 0.93333 km/h
Sensor: Nr:Datum:Temp:Abs-Feuchte:Windchill:Wind:
Aussen-T/F 1426 28-08-2019 09:00:00 19.75833 C 15.89 g/m*3 19.76 C 2.8 km/h
1427 28-08-2019 10:00:00 22.45 C 15.49 g/m*3 22.45 C 7.4 km/h
1428 28-08-2019 11:00:00 23.975 C 15.57 g/m*3 23.98 C 4.40833 km/h
1429 28-08-2019 12:00:00 24.49167 C 15.85 g/m*3 24.49 C 4.025 km/h
1430 28-08-2019 13:00:00 26.54167 C 14.76 g/m*3 26.54 C 7.66667 km/h
1431 28-08-2019 14:00:00 29.44167 C 14.81 g/m*3 29.44 C 9.29167 km/h
1432 28-08-2019 15:00:00 30.35833 C 13.68 g/m*3 30.36 C 11.43333 km/h
1433 28-08-2019 16:00:00 31.55833 C 13.63 g/m*3 31.56 C 11.29167 km/h
1434 28-08-2019 17:00:00 31.80833 C 14.03 g/m*3 31.81 C 7.39167 km/h
1435 28-08-2019 18:00:00 31.18333 C 14.79 g/m*3 31.18 C 4.96667 km/h
1436 28-08-2019 19:00:00 27.875 C 14.09 g/m*3 27.88 C 0.53333 km/h
1437 28-08-2019 20:00:00 25.59167 C 13.46 g/m*3 25.59 C 0.4 km/h
1438 28-08-2019 21:00:00 24.2 C 13.75 g/m*3 24.2 C 0.53333 km/h
1439 28-08-2019 22:00:00 22.43333 C 13.94 g/m*3 22.43 C 0 km/h
1440 28-08-2019 23:00:00 21.38333 C 13.92 g/m*3 21.38 C 0 km/h
1441 29-08-2019 00:00:00 20.775 C 13.89 g/m*3 20.78 C 0 km/h
1442 29-08-2019 01:00:00 20.10833 C 13.75 g/m*3 20.11 C 0 km/h
1443 29-08-2019 02:00:00 19.2 C 13.55 g/m*3 19.2 C 0 km/h
1444 29-08-2019 03:00:00 18.225 C 13.21 g/m*3 18.23 C 0 km/h
1445 29-08-2019 04:00:00 17.53333 C 13.15 g/m*3 17.53 C 0 km/h
1446 29-08-2019 05:00:00 17.78333 C 13.63 g/m*3 17.78 C 0 km/h
1447 29-08-2019 06:00:00 18.34167 C 14.08 g/m*3 18.34 C 0.53333 km/h
1448 29-08-2019 07:00:00 19.04167 C 14.58 g/m*3 19.04 C 2.4 km/h
1449 29-08-2019 08:00:00 19.89167 C 14.95 g/m*3 19.89 C 3.06667 km/h
1450 29-08-2019 09:00:00 20.7 C 15.27 g/m*3 20.7 C 2.4 km/h
Sensor: Nr:Datum:Temp:Abs-Feuchte:Windchill:Wind:
Aussen-T/F 1451 29-08-2019 10:00:00 21.175 C 16.01 g/m*3 21.18 C 0.4 km/h
1452 29-08-2019 11:00:00 22.13333 C 16.14 g/m*3 22.13 C 2.94167 km/h
1453 29-08-2019 12:00:00 23.29167 C 16.23 g/m*3 23.29 C 5.075 km/h
1454 29-08-2019 13:00:00 25.45 C 16.23 g/m*3 25.45 C 8.475 km/h
1455 29-08-2019 14:00:00 26.78333 C 16.49 g/m*3 26.78 C 7.925 km/h
1456 29-08-2019 15:00:00 27.53333 C 16.59 g/m*3 27.53 C 9.41667 km/h
1457 29-08-2019 16:00:00 27.875 C 16.18 g/m*3 27.88 C 9.40833 km/h
1458 29-08-2019 17:00:00 27.28333 C 15.75 g/m*3 27.28 C 8.74167 km/h
1459 29-08-2019 18:00:00 26.44167 C 15.18 g/m*3 26.44 C 8.325 km/h
1460 29-08-2019 19:00:00 24.73333 C 14.66 g/m*3 24.73 C 4.675 km/h
1461 29-08-2019 20:00:00 22.80833 C 14.37 g/m*3 22.81 C 1.2 km/h
1462 29-08-2019 21:00:00 20.89167 C 13.97 g/m*3 20.89 C 0.4 km/h
1463 29-08-2019 22:00:00 20.525 C 14.05 g/m*3 20.53 C 0.13333 km/h
1464 29-08-2019 23:00:00 20.48333 C 14.15 g/m*3 20.48 C 0.26667 km/h
1465 30-08-2019 00:00:00 20.30833 C 13.9 g/m*3 20.31 C 2.4 km/h
1466 30-08-2019 01:00:00 19.18333 C 13.66 g/m*3 19.18 C 0 km/h
1467 30-08-2019 02:00:00 18.2 C 13.38 g/m*3 18.2 C 0 km/h
1468 30-08-2019 03:00:00 17.48333 C 13.17 g/m*3 17.48 C 0 km/h
1469 30-08-2019 04:00:00 16.65833 C 12.77 g/m*3 16.66 C 0 km/h
1470 30-08-2019 05:00:00 15.975 C 12.62 g/m*3 15.98 C 0.13333 km/h
1471 30-08-2019 06:00:00 15.91667 C 12.64 g/m*3 15.92 C 0.13333 km/h
1472 30-08-2019 07:00:00 15.41667 C 12.32 g/m*3 15.42 C 0 km/h
1473 30-08-2019 08:00:00 16.09167 C 12.94 g/m*3 16.09 C 0.26667 km/h
1474 30-08-2019 09:00:00 17.96667 C 13.59 g/m*3 17.97 C 1.06667 km/h
1475 30-08-2019 10:00:00 19.41667 C 13.65 g/m*3 19.42 C 1.2 km/h
Sensor: Nr:Datum:Temp:Abs-Feuchte:Windchill:Wind:
Aussen-T/F 1476 30-08-2019 11:00:00 20.825 C 13.78 g/m*3 20.83 C 1.46667 km/h
1477 30-08-2019 12:00:00 22.16667 C 14.24 g/m*3 22.17 C 3.86667 km/h
1478 30-08-2019 13:00:00 23.59167 C 14.51 g/m*3 23.59 C 4.84167 km/h
1479 30-08-2019 14:00:00 25 C 14 g/m*3 25 C 6.01667 km/h
1480 30-08-2019 15:00:00 26.16667 C 12.59 g/m*3 26.17 C 5.75833 km/h
1481 30-08-2019 16:00:00 27.98333 C 12.41 g/m*3 27.98 C 5.49167 km/h
1482 30-08-2019 17:00:00 29.66667 C 11.27 g/m*3 29.67 C 3.73333 km/h
1483 30-08-2019 18:00:00 29.54167 C 11.12 g/m*3 29.54 C 6.29167 km/h
1484 30-08-2019 19:00:00 27.175 C 12.24 g/m*3 27.18 C 2.13333 km/h
1485 30-08-2019 20:00:00 23 C 11.42 g/m*3 23 C 0.26667 km/h
1486 30-08-2019 21:00:00 20.38333 C 11.5 g/m*3 20.38 C 0 km/h
1487 30-08-2019 22:00:00 18.64167 C 11.58 g/m*3 18.64 C 0 km/h
1488 30-08-2019 23:00:00 17.38333 C 11.44 g/m*3 17.38 C 0 km/h
1489 31-08-2019 00:00:00 16.65 C 11.48 g/m*3 16.65 C 0 km/h
1490 31-08-2019 01:00:00 15.825 C 11.35 g/m*3 15.83 C 0 km/h
1491 31-08-2019 02:00:00 15.21667 C 11.21 g/m*3 15.22 C 0 km/h
1492 31-08-2019 03:00:00 14.75 C 11.18 g/m*3 14.75 C 0 km/h
1493 31-08-2019 04:00:00 14.31667 C 11.09 g/m*3 14.32 C 0 km/h
1494 31-08-2019 05:00:00 14.15 C 11.15 g/m*3 14.15 C 0 km/h
1495 31-08-2019 06:00:00 14.1 C 11.17 g/m*3 14.1 C 0 km/h
1496 31-08-2019 07:00:00 14.10833 C 11.25 g/m*3 14.11 C 0 km/h
1497 31-08-2019 08:00:00 14.76667 C 11.71 g/m*3 14.77 C 0 km/h
1498 31-08-2019 09:00:00 15.89167 C 12.49 g/m*3 15.89 C 0 km/h
1499 31-08-2019 10:00:00 17.8 C 13.51 g/m*3 17.8 C 0 km/h
1500 31-08-2019 11:00:00 20.6 C 14.54 g/m*3 20.6 C 0 km/h
Sensor: Nr:Datum:Temp:Abs-Feuchte:Windchill:Wind:
Aussen-T/F 1501 31-08-2019 12:00:00 23.625 C 15.57 g/m*3 23.63 C 0.675 km/h
1502 31-08-2019 13:00:00 28.49167 C 15.25 g/m*3 28.49 C 7.24167 km/h
1503 31-08-2019 14:00:00 30.36667 C 14.64 g/m*3 30.37 C 6.83333 km/h
1504 31-08-2019 15:00:00 31.43333 C 14.19 g/m*3 31.43 C 8.2 km/h
1505 31-08-2019 16:00:00 32.48333 C 14.66 g/m*3 32.48 C 6.16667 km/h
1506 31-08-2019 17:00:00 33.89167 C 14.86 g/m*3 33.89 C 8.05 km/h
1507 31-08-2019 18:00:00 33.71667 C 14.79 g/m*3 33.72 C 6.43333 km/h
1508 31-08-2019 19:00:00 31.13333 C 15.74 g/m*3 31.13 C 0.8 km/h
1509 31-08-2019 20:00:00 25.89167 C 14.52 g/m*3 25.89 C 0.4 km/h
1510 31-08-2019 21:00:00 24.875 C 14.17 g/m*3 24.88 C 4.95833 km/h
1511 31-08-2019 22:00:00 24.58333 C 15.85 g/m*3 24.58 C 4.81667 km/h
1512 31-08-2019 23:00:00 20.69167 C 15.76 g/m*3 20.69 C 1.73333 km/h
1513 01-09-2019 00:00:00 19.66667 C 15.46 g/m*3 19.67 C 0.66667 km/h
1514 01-09-2019 01:00:00 19.34167 C 15.12 g/m*3 19.34 C 0.53333 km/h
1515 01-09-2019 02:00:00 19.10833 C 14.09 g/m*3 19.11 C 0 km/h
1516 01-09-2019 03:00:00 18.325 C 13.17 g/m*3 18.33 C 1.33333 km/h
1517 01-09-2019 04:00:00 17.88333 C 12.23 g/m*3 17.88 C 2.66667 km/h
1518 01-09-2019 05:00:00 17.84167 C 12.03 g/m*3 17.84 C 4.81667 km/h
1519 01-09-2019 06:00:00 17.30833 C 11.73 g/m*3 17.31 C 2.80833 km/h
1520 01-09-2019 07:00:00 16.1 C 11.74 g/m*3 16.1 C 0.53333 km/h
1521 01-09-2019 08:00:00 17.48333 C 12.3 g/m*3 17.48 C 4.28333 km/h
1522 01-09-2019 09:00:00 18.13333 C 12.46 g/m*3 18.13 C 5.75 km/h
1523 01-09-2019 10:00:00 19.10833 C 12.55 g/m*3 19.11 C 7.65 km/h
1524 01-09-2019 11:00:00 20.025 C 12.85 g/m*3 20.02 C 8.05833 km/h
1525 01-09-2019 12:00:00 20.05 C 12.97 g/m*3 20.05 C 10.08333 km/h
Sensor: Nr:Datum:Temp:Abs-Feuchte:Windchill:Wind:
Aussen-T/F 1526 01-09-2019 13:00:00 19.69167 C 13.22 g/m*3 19.69 C 11.29167 km/h
1527 01-09-2019 14:00:00 20.075 C 13.13 g/m*3 20.08 C 8.04167 km/h
1528 01-09-2019 15:00:00 20.61667 C 12.84 g/m*3 20.62 C 8.05 km/h
1529 01-09-2019 16:00:00 20.38333 C 12.02 g/m*3 20.38 C 11.01667 km/h
1530 01-09-2019 17:00:00 19.975 C 11.29 g/m*3 19.98 C 10.49167 km/h
1531 01-09-2019 18:00:00 20.75833 C 10.94 g/m*3 20.76 C 10.1 km/h
1532 01-09-2019 19:00:00 20.60833 C 10.37 g/m*3 20.61 C 6.725 km/h
1533 01-09-2019 20:00:00 18.38333 C 10.45 g/m*3 18.38 C 1.475 km/h
1534 01-09-2019 21:00:00 16.68333 C 10.27 g/m*3 16.68 C 0 km/h
1535 01-09-2019 22:00:00 16.39167 C 9.96 g/m*3 16.39 C 0 km/h
1536 01-09-2019 23:00:00 15.59167 C 9.97 g/m*3 15.59 C 0 km/h
1537 02-09-2019 00:00:00 14.44167 C 9.36 g/m*3 14.44 C 0 km/h
1538 02-09-2019 01:00:00 13.29167 C 8.99 g/m*3 13.29 C 0 km/h
1539 02-09-2019 02:00:00 13.3 C 9.27 g/m*3 13.3 C 0 km/h
1540 02-09-2019 03:00:00 13.025 C 9.37 g/m*3 13.03 C 0 km/h
1541 02-09-2019 04:00:00 12 C 8.94 g/m*3 12 C 0.4 km/h
1542 02-09-2019 05:00:00 11.21667 C 8.72 g/m*3 11.22 C 0 km/h
1543 02-09-2019 06:00:00 10.15 C 8.45 g/m*3 10.15 C 0 km/h
1544 02-09-2019 07:00:00 9.73333 C 8.47 g/m*3 9.73 C 0.53333 km/h
1545 02-09-2019 08:00:00 10.03333 C 8.75 g/m*3 10.03 C 0 km/h
1546 02-09-2019 09:00:00 10.83333 C 9.17 g/m*3 10.83 C 0 km/h
1547 02-09-2019 10:00:00 12.85833 C 9.9 g/m*3 12.86 C 0.8 km/h
1548 02-09-2019 11:00:00 16.2 C 9.16 g/m*3 16.2 C 7.93333 km/h
1549 02-09-2019 12:00:00 17.53333 C 8.44 g/m*3 17.53 C 8.74167 km/h
1550 02-09-2019 13:00:00 18.70833 C 7.96 g/m*3 18.71 C 9.95833 km/h
Sensor: Nr:Datum:Temp:Abs-Feuchte:Windchill:Wind:
Aussen-T/F 1551 02-09-2019 14:00:00 19.83333 C 7.92 g/m*3 19.83 C 9.28333 km/h
1552 02-09-2019 15:00:00 20.175 C 7.9 g/m*3 20.18 C 7.90833 km/h
1553 02-09-2019 16:00:00 21.80833 C 7.98 g/m*3 21.81 C 9.68333 km/h
1554 02-09-2019 17:00:00 23.09167 C 7.83 g/m*3 23.09 C 6.70833 km/h
1555 02-09-2019 18:00:00 22.99167 C 7.67 g/m*3 22.99 C 5.48333 km/h
1556 02-09-2019 19:00:00 20.575 C 8.35 g/m*3 20.58 C 1.2 km/h
1557 02-09-2019 20:00:00 16.9 C 8.1 g/m*3 16.9 C 0.93333 km/h
1558 02-09-2019 21:00:00 15.39167 C 7.97 g/m*3 15.39 C 0.26667 km/h
1559 02-09-2019 22:00:00 13.475 C 8.19 g/m*3 13.48 C 0 km/h
1560 02-09-2019 23:00:00 12.98333 C 8.24 g/m*3 12.98 C 0 km/h
1561 03-09-2019 00:00:00 12.39167 C 8.17 g/m*3 12.39 C 0 km/h
1562 03-09-2019 01:00:00 12.125 C 8.22 g/m*3 12.13 C 0 km/h
1563 03-09-2019 02:00:00 10.89167 C 7.86 g/m*3 10.89 C 0 km/h
1564 03-09-2019 03:00:00 10.175 C 7.75 g/m*3 10.18 C 0 km/h
1565 03-09-2019 04:00:00 10.08333 C 7.92 g/m*3 10.08 C 0 km/h
1566 03-09-2019 05:00:00 9.45 C 7.72 g/m*3 9.45 C 0 km/h
1567 03-09-2019 06:00:00 8.91667 C 7.64 g/m*3 8.92 C 0 km/h
1568 03-09-2019 07:00:00 8.65833 C 7.66 g/m*3 8.66 C 0.13333 km/h
1569 03-09-2019 08:00:00 9.08333 C 7.95 g/m*3 9.08 C 0 km/h
1570 03-09-2019 09:00:00 10.375 C 8.56 g/m*3 10.38 C 0.26667 km/h
1571 03-09-2019 10:00:00 13.225 C 9.38 g/m*3 13.23 C 1.46667 km/h
1572 03-09-2019 11:00:00 17.34167 C 9.34 g/m*3 17.34 C 5.90833 km/h
1573 03-09-2019 12:00:00 19.95833 C 9.22 g/m*3 19.96 C 8.18333 km/h
1574 03-09-2019 13:00:00 21.25 C 9.23 g/m*3 21.25 C 11.55833 km/h
1575 03-09-2019 14:00:00 22.64167 C 9.16 g/m*3 22.64 C 10.35 km/h
Sensor: Nr:Datum:Temp:Abs-Feuchte:Windchill:Wind:
Aussen-T/F 1576 03-09-2019 15:00:00 23.75 C 9.83 g/m*3 23.75 C 10.20833 km/h
1577 03-09-2019 16:00:00 23.58333 C 10.59 g/m*3 23.58 C 10.75 km/h
1578 03-09-2019 17:00:00 23.65 C 10.86 g/m*3 23.65 C 11.7 km/h
1579 03-09-2019 18:00:00 23.225 C 10.95 g/m*3 23.23 C 10.63333 km/h
1580 03-09-2019 19:00:00 21.11667 C 10.84 g/m*3 21.12 C 7.91667 km/h
1581 03-09-2019 20:00:00 18.86667 C 10.66 g/m*3 18.87 C 2.40833 km/h
1582 03-09-2019 21:00:00 16.325 C 10.42 g/m*3 16.33 C 0 km/h
1583 03-09-2019 22:00:00 15.33333 C 10.37 g/m*3 15.33 C 0.13333 km/h
1584 03-09-2019 23:00:00 14.05 C 10.08 g/m*3 14.05 C 0 km/h
1585 04-09-2019 00:00:00 13.05 C 9.9 g/m*3 13.05 C 0 km/h
1586 04-09-2019 01:00:00 12.35 C 9.74 g/m*3 12.35 C 0 km/h
1587 04-09-2019 02:00:00 11.85833 C 9.58 g/m*3 11.86 C 0 km/h
1588 04-09-2019 03:00:00 11.325 C 9.39 g/m*3 11.33 C 0 km/h
1589 04-09-2019 04:00:00 10.74167 C 9.12 g/m*3 10.74 C 0 km/h
1590 04-09-2019 05:00:00 10.36667 C 9 g/m*3 10.37 C 0 km/h
1591 04-09-2019 06:00:00 10.15833 C 8.95 g/m*3 10.16 C 0 km/h
1592 04-09-2019 07:00:00 10.09167 C 8.96 g/m*3 10.09 C 0 km/h
1593 04-09-2019 08:00:00 10.675 C 9.35 g/m*3 10.68 C 0.4 km/h
1594 04-09-2019 09:00:00 13.11667 C 10.54 g/m*3 13.12 C 4.26667 km/h
1595 04-09-2019 10:00:00 14.875 C 10.87 g/m*3 14.88 C 3.73333 km/h
1596 04-09-2019 11:00:00 18.09167 C 11.22 g/m*3 18.09 C 11.68333 km/h
1597 04-09-2019 12:00:00 19.78333 C 11.25 g/m*3 19.78 C 12.1 km/h
1598 04-09-2019 13:00:00 21.16667 C 11.47 g/m*3 21.17 C 12.63333 km/h
1599 04-09-2019 14:00:00 22.59167 C 11.56 g/m*3 22.59 C 14.63333 km/h
1600 04-09-2019 15:00:00 23.85 C 11.54 g/m*3 23.85 C 11.01667 km/h
Sensor: Nr:Datum:Temp:Abs-Feuchte:Windchill:Wind:
Aussen-T/F 1601 04-09-2019 16:00:00 25.11667 C 11.74 g/m*3 25.12 C 11.825 km/h
1602 04-09-2019 17:00:00 26.875 C 11.46 g/m*3 26.88 C 10.35 km/h
1603 04-09-2019 18:00:00 25.04167 C 10.84 g/m*3 25.04 C 14.49167 km/h
1604 04-09-2019 19:00:00 23.58333 C 11.1 g/m*3 23.58 C 9.65833 km/h
1605 04-09-2019 20:00:00 19.81667 C 11.87 g/m*3 19.82 C 9.50833 km/h
1606 04-09-2019 21:00:00 17.625 C 12.77 g/m*3 17.63 C 0.53333 km/h
1607 04-09-2019 22:00:00 16.28333 C 12.52 g/m*3 16.28 C 0.53333 km/h
1608 04-09-2019 23:00:00 15.64167 C 12.12 g/m*3 15.64 C 0.4 km/h
1609 05-09-2019 00:00:00 15.6 C 12.1 g/m*3 15.6 C 0 km/h
1610 05-09-2019 01:00:00 15.41667 C 11.73 g/m*3 15.42 C 1.33333 km/h
1611 05-09-2019 02:00:00 14.29167 C 10.66 g/m*3 14.29 C 1.06667 km/h
1612 05-09-2019 03:00:00 13.975 C 10.44 g/m*3 13.98 C 1.6 km/h
1613 05-09-2019 04:00:00 14.075 C 10.3 g/m*3 14.08 C 3.06667 km/h
1614 05-09-2019 05:00:00 13.48333 C 9.83 g/m*3 13.48 C 3.875 km/h
1615 05-09-2019 06:00:00 12.56667 C 9.49 g/m*3 12.57 C 4.13333 km/h
1616 05-09-2019 07:00:00 12.20833 C 9.38 g/m*3 12.21 C 5.49167 km/h
1617 05-09-2019 08:00:00 12.58333 C 9.44 g/m*3 12.58 C 8.75833 km/h
1618 05-09-2019 09:00:00 13.59167 C 9.67 g/m*3 13.59 C 7.65833 km/h
1619 05-09-2019 10:00:00 15.475 C 10.21 g/m*3 15.48 C 9.95 km/h
1620 05-09-2019 11:00:00 16.775 C 10.05 g/m*3 16.77 C 14.24167 km/h
1621 05-09-2019 12:00:00 17.09167 C 9.8 g/m*3 17.09 C 10.48333 km/h
1622 05-09-2019 13:00:00 18.1 C 9.41 g/m*3 18.1 C 10.225 km/h
1623 05-09-2019 14:00:00 18.09167 C 9.72 g/m*3 18.09 C 13.03333 km/h
1624 05-09-2019 15:00:00 18.5 C 9.11 g/m*3 18.5 C 11.15833 km/h
1625 05-09-2019 16:00:00 18.91667 C 9.07 g/m*3 18.92 C 13.16667 km/h
Sensor: Nr:Datum:Temp:Abs-Feuchte:Windchill:Wind:
Aussen-T/F 1626 05-09-2019 17:00:00 17.225 C 9.36 g/m*3 17.23 C 15.43333 km/h
1627 05-09-2019 18:00:00 16.4 C 9.44 g/m*3 16.4 C 8.59167 km/h
1628 05-09-2019 19:00:00 16.46667 C 9.02 g/m*3 16.47 C 6.325 km/h
1629 05-09-2019 20:00:00 15.70833 C 9.25 g/m*3 15.71 C 6.71667 km/h
1630 05-09-2019 21:00:00 14.93333 C 8.97 g/m*3 14.93 C 5.35833 km/h
1631 05-09-2019 22:00:00 14.49167 C 9.01 g/m*3 14.49 C 2.53333 km/h
1632 05-09-2019 23:00:00 13.94167 C 8.89 g/m*3 13.94 C 1.875 km/h
1633 06-09-2019 00:00:00 12.025 C 8.52 g/m*3 12.03 C 0.4 km/h
1634 06-09-2019 01:00:00 11.23333 C 8.41 g/m*3 11.23 C 1.73333 km/h
1635 06-09-2019 02:00:00 10.40833 C 8.34 g/m*3 10.41 C 0 km/h
1636 06-09-2019 03:00:00 9.875 C 8.21 g/m*3 9.88 C 0.13333 km/h
1637 06-09-2019 04:00:00 9.00833 C 7.89 g/m*3 9.01 C 0 km/h
1638 06-09-2019 05:00:00 8.075 C 7.6 g/m*3 8.07 C 0 km/h
1639 06-09-2019 06:00:00 7.56667 C 7.46 g/m*3 7.57 C 0 km/h
1640 06-09-2019 07:00:00 7.31667 C 7.41 g/m*3 7.32 C 0 km/h
1641 06-09-2019 08:00:00 7.85 C 7.77 g/m*3 7.85 C 0 km/h
1642 06-09-2019 09:00:00 8.75 C 8.25 g/m*3 8.75 C 0 km/h
1643 06-09-2019 10:00:00 10.175 C 9.03 g/m*3 10.18 C 0.13333 km/h
1644 06-09-2019 11:00:00 12.55833 C 9.18 g/m*3 12.56 C 1.73333 km/h
1645 06-09-2019 12:00:00 15.03333 C 8.28 g/m*3 15.03 C 4.00833 km/h
1646 06-09-2019 13:00:00 16.51667 C 8.14 g/m*3 16.52 C 4.4 km/h
1647 06-09-2019 14:00:00 18.3 C 7.75 g/m*3 18.3 C 8.325 km/h
1648 06-09-2019 15:00:00 19.475 C 7.53 g/m*3 19.48 C 9.26667 km/h
1649 06-09-2019 16:00:00 20.7 C 7.17 g/m*3 20.7 C 7.24167 km/h
1650 06-09-2019 17:00:00 22.36667 C 7.38 g/m*3 22.37 C 7.79167 km/h
Sensor: Nr:Datum:Temp:Abs-Feuchte:Windchill:Wind:
Aussen-T/F 1651 06-09-2019 18:00:00 22.25 C 7.74 g/m*3 22.25 C 6.975 km/h
1652 06-09-2019 19:00:00 19.41667 C 8.07 g/m*3 19.42 C 0.8 km/h
1653 06-09-2019 20:00:00 16.04167 C 7.71 g/m*3 16.04 C 0 km/h
1654 06-09-2019 21:00:00 14.65 C 7.6 g/m*3 14.65 C 0 km/h
1655 06-09-2019 22:00:00 12.74167 C 7.65 g/m*3 12.74 C 0.26667 km/h
1656 06-09-2019 23:00:00 12.69167 C 7.95 g/m*3 12.69 C 2 km/h
1657 07-09-2019 00:00:00 12.25833 C 7.99 g/m*3 12.26 C 0.93333 km/h
1658 07-09-2019 01:00:00 12.41667 C 8.06 g/m*3 12.42 C 1.73333 km/h
1659 07-09-2019 02:00:00 12.19167 C 8.09 g/m*3 12.19 C 1.73333 km/h
1660 07-09-2019 03:00:00 12.375 C 8.15 g/m*3 12.38 C 3.33333 km/h
1661 07-09-2019 04:00:00 12.69167 C 8.26 g/m*3 12.69 C 3.89167 km/h
1662 07-09-2019 05:00:00 12.64167 C 8.27 g/m*3 12.64 C 1.075 km/h
1663 07-09-2019 06:00:00 12.29167 C 8.35 g/m*3 12.29 C 0 km/h
1664 07-09-2019 07:00:00 11.96667 C 9.01 g/m*3 11.97 C 0.13333 km/h
1665 07-09-2019 08:00:00 11.78333 C 9.52 g/m*3 11.78 C 0.13333 km/h
1666 07-09-2019 09:00:00 11.80833 C 9.78 g/m*3 11.81 C 0 km/h
1667 07-09-2019 10:00:00 12.225 C 10.16 g/m*3 12.23 C 0 km/h
1668 07-09-2019 11:00:00 12.80833 C 10.52 g/m*3 12.81 C 0.4 km/h
1669 07-09-2019 12:00:00 13.475 C 10.93 g/m*3 13.48 C 1.06667 km/h
1670 07-09-2019 13:00:00 14.19167 C 11.31 g/m*3 14.19 C 1.06667 km/h
1671 07-09-2019 14:00:00 14.46667 C 11.38 g/m*3 14.47 C 1.73333 km/h
1672 07-09-2019 15:00:00 14.93333 C 11.53 g/m*3 14.93 C 3.73333 km/h
1673 07-09-2019 16:00:00 15.25 C 11.63 g/m*3 15.25 C 0.93333 km/h
1674 07-09-2019 17:00:00 15.30833 C 11.66 g/m*3 15.31 C 3.21667 km/h
1675 07-09-2019 18:00:00 14.29167 C 11.14 g/m*3 14.29 C 0.93333 km/h
Sensor: Nr:Datum:Temp:Abs-Feuchte:Windchill:Wind:
Aussen-T/F 1676 07-09-2019 19:00:00 13.34167 C 10.59 g/m*3 13.34 C 0.66667 km/h
1677 07-09-2019 20:00:00 12.64167 C 10.32 g/m*3 12.64 C 0.13333 km/h
1678 07-09-2019 21:00:00 12.00833 C 9.95 g/m*3 12.01 C 0 km/h
1679 07-09-2019 22:00:00 11.8 C 9.94 g/m*3 11.8 C 0 km/h
1680 07-09-2019 23:00:00 11.725 C 9.95 g/m*3 11.73 C 0 km/h
1681 08-09-2019 00:00:00 11.7 C 9.94 g/m*3 11.7 C 0 km/h
1682 08-09-2019 01:00:00 11.75833 C 10.04 g/m*3 11.76 C 0 km/h
1683 08-09-2019 02:00:00 11.29167 C 9.74 g/m*3 11.29 C 0 km/h
1684 08-09-2019 03:00:00 11.3 C 9.79 g/m*3 11.3 C 0 km/h
1685 08-09-2019 04:00:00 11.7 C 10.08 g/m*3 11.7 C 0 km/h
1686 08-09-2019 05:00:00 11.90833 C 10.17 g/m*3 11.91 C 0 km/h
1687 08-09-2019 06:00:00 12.075 C 10.36 g/m*3 12.08 C 0.13333 km/h
1688 08-09-2019 07:00:00 12.20833 C 10.41 g/m*3 12.21 C 0.4 km/h
1689 08-09-2019 08:00:00 12.31667 C 10.43 g/m*3 12.32 C 1.46667 km/h
1690 08-09-2019 09:00:00 12.325 C 10.38 g/m*3 12.33 C 4.13333 km/h
1691 08-09-2019 10:00:00 12.575 C 10.57 g/m*3 12.58 C 0 km/h
1692 08-09-2019 11:00:00 12.625 C 10.64 g/m*3 12.63 C 0.4 km/h
1693 08-09-2019 12:00:00 12.81667 C 10.75 g/m*3 12.82 C 2.53333 km/h
1694 08-09-2019 13:00:00 13.94167 C 11.24 g/m*3 13.94 C 1.6 km/h
1695 08-09-2019 14:00:00 14.875 C 11.24 g/m*3 14.88 C 3.6 km/h
1696 08-09-2019 15:00:00 15.73333 C 11.27 g/m*3 15.73 C 1.6 km/h
1697 08-09-2019 16:00:00 15.65833 C 11.32 g/m*3 15.66 C 1.46667 km/h
1698 08-09-2019 17:00:00 13.49167 C 10.83 g/m*3 13.49 C 2.53333 km/h
1699 08-09-2019 18:00:00 12.8 C 10.56 g/m*3 12.8 C 0.8 km/h
1700 08-09-2019 19:00:00 12.96667 C 10.8 g/m*3 12.97 C 0 km/h
Sensor: Nr:Datum:Temp:Abs-Feuchte:Windchill:Wind:
Aussen-T/F 1701 08-09-2019 20:00:00 12.56667 C 10.5 g/m*3 12.57 C 3.35 km/h
1702 08-09-2019 21:00:00 12.1 C 10.23 g/m*3 12.1 C 0.53333 km/h
1703 08-09-2019 22:00:00 11.81667 C 10.11 g/m*3 11.82 C 0 km/h
1704 08-09-2019 23:00:00 11.71667 C 10.05 g/m*3 11.72 C 0 km/h
1705 09-09-2019 00:00:00 11.45 C 9.88 g/m*3 11.45 C 0 km/h
1706 09-09-2019 01:00:00 11.26667 C 9.78 g/m*3 11.27 C 0.26667 km/h
1707 09-09-2019 02:00:00 11.29167 C 9.87 g/m*3 11.29 C 0 km/h
1708 09-09-2019 03:00:00 11.36667 C 9.94 g/m*3 11.37 C 0 km/h
1709 09-09-2019 04:00:00 11.36667 C 9.94 g/m*3 11.37 C 0 km/h
1710 09-09-2019 05:00:00 11.29167 C 9.89 g/m*3 11.29 C 0 km/h
1711 09-09-2019 06:00:00 11.3 C 9.89 g/m*3 11.3 C 0 km/h
1712 09-09-2019 07:00:00 11.275 C 9.88 g/m*3 11.28 C 0 km/h
1713 09-09-2019 08:00:00 11.39167 C 9.95 g/m*3 11.39 C 0 km/h
1714 09-09-2019 09:00:00 12.01667 C 10.35 g/m*3 12.02 C 0.26667 km/h
1715 09-09-2019 10:00:00 12.23333 C 10.49 g/m*3 12.23 C 0.13333 km/h
1716 09-09-2019 11:00:00 12.55833 C 10.62 g/m*3 12.56 C 2.66667 km/h
1717 09-09-2019 12:00:00 13.15 C 10.48 g/m*3 13.15 C 1.73333 km/h
1718 09-09-2019 13:00:00 14.2 C 10.57 g/m*3 14.2 C 2.4 km/h
1719 09-09-2019 14:00:00 14.81667 C 10.11 g/m*3 14.82 C 1.73333 km/h
1720 09-09-2019 15:00:00 15.175 C 10.39 g/m*3 15.18 C 0.8 km/h
1721 09-09-2019 16:00:00 15.475 C 10.21 g/m*3 15.48 C 1.06667 km/h
1722 09-09-2019 17:00:00 15.74167 C 9.89 g/m*3 15.74 C 1.33333 km/h
1723 09-09-2019 18:00:00 16.33333 C 10.25 g/m*3 16.33 C 1.46667 km/h
1724 09-09-2019 19:00:00 14.35 C 10.11 g/m*3 14.35 C 0.53333 km/h
1725 09-09-2019 20:00:00 12.00833 C 9.36 g/m*3 12.01 C 0.4 km/h
Sensor: Nr:Datum:Temp:Abs-Feuchte:Windchill:Wind:
Aussen-T/F 1726 09-09-2019 21:00:00 10.79167 C 8.96 g/m*3 10.79 C 0.13333 km/h
1727 09-09-2019 22:00:00 10.05 C 8.74 g/m*3 10.05 C 0 km/h
1728 09-09-2019 23:00:00 9.30833 C 8.44 g/m*3 9.31 C 0 km/h
1729 10-09-2019 00:00:00 8.75833 C 8.22 g/m*3 8.76 C 0 km/h
1730 10-09-2019 01:00:00 8.44167 C 8.09 g/m*3 8.44 C 0 km/h
1731 10-09-2019 02:00:00 8.3 C 8.07 g/m*3 8.3 C 0 km/h
1732 10-09-2019 03:00:00 8.625 C 8.26 g/m*3 8.63 C 0.53333 km/h
1733 10-09-2019 04:00:00 8.65 C 8.28 g/m*3 8.65 C 0.66667 km/h
1734 10-09-2019 05:00:00 8.55833 C 8.24 g/m*3 8.56 C 0.26667 km/h
1735 10-09-2019 06:00:00 8.2 C 8.1 g/m*3 8.2 C 0.8 km/h
1736 10-09-2019 07:00:00 8.225 C 8.14 g/m*3 8.23 C 0.13333 km/h
1737 10-09-2019 08:00:00 8.21667 C 8.13 g/m*3 8.22 C 2.26667 km/h
1738 10-09-2019 09:00:00 8.45833 C 8.26 g/m*3 8.46 C 2.13333 km/h
1739 10-09-2019 10:00:00 9.05 C 8.58 g/m*3 9.05 C 1.33333 km/h
1740 10-09-2019 11:00:00 9.94167 C 9.08 g/m*3 9.94 C 2.26667 km/h
1741 10-09-2019 12:00:00 11.78333 C 9.92 g/m*3 11.78 C 0.4 km/h
1742 10-09-2019 13:00:00 14.85833 C 9.92 g/m*3 14.86 C 1.6 km/h
1743 10-09-2019 14:00:00 17.25 C 9.44 g/m*3 17.25 C 3.60833 km/h
1744 10-09-2019 15:00:00 18.43333 C 9.19 g/m*3 18.43 C 5.36667 km/h
1745 10-09-2019 16:00:00 19.65 C 8.8 g/m*3 19.65 C 8.20833 km/h
1746 10-09-2019 17:00:00 18.38333 C 10.55 g/m*3 18.38 C 0.8 km/h
1747 10-09-2019 18:00:00 18.33333 C 10.97 g/m*3 18.33 C 0 km/h
1748 10-09-2019 19:00:00 16.4 C 10.1 g/m*3 16.4 C 0.13333 km/h
1749 10-09-2019 20:00:00 13.775 C 8.93 g/m*3 13.78 C 0 km/h
1750 10-09-2019 21:00:00 12.03333 C 8.86 g/m*3 12.03 C 0 km/h
Sensor: Nr:Datum:Temp:Abs-Feuchte:Windchill:Wind:
Aussen-T/F 1751 10-09-2019 22:00:00 10.66667 C 8.52 g/m*3 10.67 C 0 km/h
1752 10-09-2019 23:00:00 9.78333 C 8.23 g/m*3 9.78 C 0 km/h
1753 11-09-2019 00:00:00 9.2 C 8.04 g/m*3 9.2 C 0 km/h
1754 11-09-2019 01:00:00 8.61667 C 7.86 g/m*3 8.62 C 0 km/h
1755 11-09-2019 02:00:00 8.04167 C 7.69 g/m*3 8.04 C 0.13333 km/h
1756 11-09-2019 03:00:00 7.64167 C 7.55 g/m*3 7.64 C 0 km/h
1757 11-09-2019 04:00:00 7.26667 C 7.41 g/m*3 7.27 C 0 km/h
1758 11-09-2019 05:00:00 6.90833 C 7.3 g/m*3 6.91 C 0 km/h
1759 11-09-2019 06:00:00 6.65833 C 7.2 g/m*3 6.66 C 0 km/h
1760 11-09-2019 07:00:00 6.55 C 7.2 g/m*3 6.55 C 0.675 km/h
1761 11-09-2019 08:00:00 7.99167 C 7.97 g/m*3 7.99 C 1.60833 km/h
1762 11-09-2019 09:00:00 9.51667 C 8.59 g/m*3 9.52 C 2.8 km/h
1763 11-09-2019 10:00:00 10.85 C 9.29 g/m*3 10.85 C 0 km/h
1764 11-09-2019 11:00:00 13.10833 C 10.13 g/m*3 13.11 C 1.6 km/h
1765 11-09-2019 12:00:00 17.29167 C 9.85 g/m*3 17.29 C 9.41667 km/h
1766 11-09-2019 13:00:00 19.9 C 9.95 g/m*3 19.9 C 12.75833 km/h
1767 11-09-2019 14:00:00 20.58333 C 9.88 g/m*3 20.58 C 16.5 km/h
1768 11-09-2019 15:00:00 20.53333 C 10.07 g/m*3 20.53 C 10.225 km/h
1769 11-09-2019 16:00:00 20.03333 C 11.17 g/m*3 20.03 C 4.825 km/h
1770 11-09-2019 17:00:00 19.16667 C 10.86 g/m*3 19.17 C 8.45833 km/h
1771 11-09-2019 18:00:00 18.35833 C 10.7 g/m*3 18.36 C 3.75833 km/h
1772 11-09-2019 19:00:00 17.26667 C 10.41 g/m*3 17.27 C 3.20833 km/h
1773 11-09-2019 20:00:00 16.50833 C 10.64 g/m*3 16.51 C 0.93333 km/h
1774 11-09-2019 21:00:00 16.275 C 10.82 g/m*3 16.27 C 0.93333 km/h
1775 11-09-2019 22:00:00 16.41667 C 11.06 g/m*3 16.42 C 0.93333 km/h
Sensor: Nr:Datum:Temp:Abs-Feuchte:Windchill:Wind:
Aussen-T/F 1776 11-09-2019 23:00:00 15.7 C 11.15 g/m*3 15.7 C 0.93333 km/h
1777 12-09-2019 00:00:00 15.51667 C 10.97 g/m*3 15.52 C 1.86667 km/h
1778 12-09-2019 01:00:00 16.14167 C 11.09 g/m*3 16.14 C 1.74167 km/h
1779 12-09-2019 02:00:00 17.23333 C 10.81 g/m*3 17.23 C 6.975 km/h
1780 12-09-2019 03:00:00 17.24167 C 11 g/m*3 17.24 C 6.70833 km/h
1781 12-09-2019 04:00:00 17.05 C 11.08 g/m*3 17.05 C 2.93333 km/h
1782 12-09-2019 05:00:00 16.975 C 11.25 g/m*3 16.98 C 8.31667 km/h
1783 12-09-2019 06:00:00 16.9 C 11.4 g/m*3 16.9 C 5.75833 km/h
1784 12-09-2019 07:00:00 16.24167 C 11.53 g/m*3 16.24 C 0.8 km/h
1785 12-09-2019 08:00:00 16.83333 C 12.06 g/m*3 16.83 C 5.76667 km/h
1786 12-09-2019 09:00:00 17.40833 C 12.53 g/m*3 17.41 C 9.025 km/h
1787 12-09-2019 10:00:00 18.21667 C 13.08 g/m*3 18.22 C 11.15833 km/h
1788 12-09-2019 11:00:00 19.21667 C 13.52 g/m*3 19.22 C 9.01667 km/h
1789 12-09-2019 12:00:00 20.25833 C 13.93 g/m*3 20.26 C 10.34167 km/h
1790 12-09-2019 13:00:00 20.9 C 14.27 g/m*3 20.9 C 7.79167 km/h
1791 12-09-2019 14:00:00 21.38333 C 14.69 g/m*3 21.38 C 1.6 km/h
1792 12-09-2019 15:00:00 22.25833 C 14.77 g/m*3 22.26 C 4.025 km/h
1793 12-09-2019 16:00:00 22.95 C 14.67 g/m*3 22.95 C 7.91667 km/h
1794 12-09-2019 17:00:00 24.44167 C 14.46 g/m*3 24.44 C 11.83333 km/h
1795 12-09-2019 18:00:00 24.95833 C 14.66 g/m*3 24.96 C 6.56667 km/h
1796 12-09-2019 19:00:00 22.86667 C 14.23 g/m*3 22.87 C 0.53333 km/h
1797 12-09-2019 20:00:00 19.11667 C 13.29 g/m*3 19.12 C 0.4 km/h
1798 12-09-2019 21:00:00 18.225 C 13.19 g/m*3 18.23 C 0.26667 km/h
1799 12-09-2019 22:00:00 18.35 C 13.17 g/m*3 18.35 C 0.4 km/h
1800 12-09-2019 23:00:00 17.06667 C 12.6 g/m*3 17.07 C 0 km/h
Sensor: Nr:Datum:Temp:Abs-Feuchte:Windchill:Wind:
Aussen-T/F 1801 13-09-2019 00:00:00 15.98333 C 12.26 g/m*3 15.98 C 0.93333 km/h
1802 13-09-2019 01:00:00 15.55 C 12.18 g/m*3 15.55 C 3.6 km/h
1803 13-09-2019 02:00:00 15.25 C 12.05 g/m*3 15.25 C 1.46667 km/h
1804 13-09-2019 03:00:00 15.1 C 12.07 g/m*3 15.1 C 1.06667 km/h
1805 13-09-2019 04:00:00 15.575 C 12.4 g/m*3 15.58 C 2.93333 km/h
1806 13-09-2019 05:00:00 16.19167 C 12.55 g/m*3 16.19 C 6.84167 km/h
1807 13-09-2019 06:00:00 16.25833 C 12.58 g/m*3 16.26 C 4.3 km/h
1808 13-09-2019 07:00:00 16.64167 C 12.75 g/m*3 16.64 C 2.94167 km/h
1809 13-09-2019 08:00:00 16.85833 C 13.01 g/m*3 16.86 C 0.8 km/h
1810 13-09-2019 09:00:00 17.49167 C 13.31 g/m*3 17.49 C 2 km/h
1811 13-09-2019 10:00:00 18.51667 C 13.63 g/m*3 18.52 C 0.8 km/h
1812 13-09-2019 11:00:00 19.6 C 13.91 g/m*3 19.6 C 2.8 km/h
1813 13-09-2019 12:00:00 20.35 C 14.02 g/m*3 20.35 C 1.2 km/h
1814 13-09-2019 13:00:00 20.60833 C 13.82 g/m*3 20.61 C 4.675 km/h
1815 13-09-2019 14:00:00 21.16667 C 14.03 g/m*3 21.17 C 6.15833 km/h
1816 13-09-2019 15:00:00 20.85833 C 14.13 g/m*3 20.86 C 12.76667 km/h
1817 13-09-2019 16:00:00 19.325 C 14.49 g/m*3 19.33 C 5.90833 km/h
1818 13-09-2019 17:00:00 19.20833 C 14.74 g/m*3 19.21 C 0 km/h
1819 13-09-2019 18:00:00 20 C 15.42 g/m*3 20 C 0 km/h
1820 13-09-2019 19:00:00 19.48333 C 14.46 g/m*3 19.48 C 0 km/h
1821 13-09-2019 20:00:00 17.60833 C 13.73 g/m*3 17.61 C 0.26667 km/h
1822 13-09-2019 21:00:00 16.95 C 13.39 g/m*3 16.95 C 0 km/h
1823 13-09-2019 22:00:00 16.25833 C 12.87 g/m*3 16.26 C 0 km/h
1824 13-09-2019 23:00:00 15.48333 C 12.38 g/m*3 15.48 C 0 km/h
1825 14-09-2019 00:00:00 15.39167 C 12.41 g/m*3 15.39 C 0 km/h
Sensor: Nr:Datum:Temp:Abs-Feuchte:Windchill:Wind:
Aussen-T/F 1826 14-09-2019 01:00:00 14.63333 C 11.86 g/m*3 14.63 C 0 km/h
1827 14-09-2019 02:00:00 13.525 C 11.07 g/m*3 13.53 C 0 km/h
1828 14-09-2019 03:00:00 12.70833 C 10.58 g/m*3 12.71 C 0 km/h
1829 14-09-2019 04:00:00 12.00833 C 10.18 g/m*3 12.01 C 0 km/h
1830 14-09-2019 05:00:00 11.31667 C 9.79 g/m*3 11.32 C 0 km/h
1831 14-09-2019 06:00:00 10.78333 C 9.48 g/m*3 10.78 C 0 km/h
1832 14-09-2019 07:00:00 10.4 C 9.25 g/m*3 10.4 C 0 km/h
1833 14-09-2019 08:00:00 10.40833 C 9.26 g/m*3 10.41 C 0 km/h
1834 14-09-2019 09:00:00 11.00833 C 9.71 g/m*3 11.01 C 0.13333 km/h
1835 14-09-2019 10:00:00 12.25833 C 10.51 g/m*3 12.26 C 0.26667 km/h
1836 14-09-2019 11:00:00 13.69167 C 11.26 g/m*3 13.69 C 0.26667 km/h
1837 14-09-2019 12:00:00 16.14167 C 11.54 g/m*3 16.14 C 0.8 km/h
1838 14-09-2019 13:00:00 18.675 C 11.2 g/m*3 18.68 C 3.74167 km/h
1839 14-09-2019 14:00:00 20.43333 C 11.02 g/m*3 20.43 C 4.95 km/h
1840 14-09-2019 15:00:00 21.74167 C 10.66 g/m*3 21.74 C 5.35833 km/h
1841 14-09-2019 16:00:00 22.44167 C 10.43 g/m*3 22.44 C 4.3 km/h
1842 14-09-2019 17:00:00 24.14167 C 10.29 g/m*3 24.14 C 4.81667 km/h
1843 14-09-2019 18:00:00 23.6 C 11.63 g/m*3 23.6 C 0 km/h
1844 14-09-2019 19:00:00 19.45833 C 10.87 g/m*3 19.46 C 0.13333 km/h
1845 14-09-2019 20:00:00 16.95833 C 10.12 g/m*3 16.96 C 0 km/h
1846 14-09-2019 21:00:00 15.96667 C 10.01 g/m*3 15.97 C 0 km/h
1847 14-09-2019 22:00:00 13.8 C 9.68 g/m*3 13.8 C 0 km/h
1848 14-09-2019 23:00:00 12.48333 C 9.38 g/m*3 12.48 C 0 km/h
1849 15-09-2019 00:00:00 11.65 C 9.12 g/m*3 11.65 C 0 km/h
1850 15-09-2019 01:00:00 10.825 C 8.89 g/m*3 10.83 C 0 km/h
Sensor: Nr:Datum:Temp:Abs-Feuchte:Windchill:Wind:
Aussen-T/F 1851 15-09-2019 02:00:00 10.375 C 8.83 g/m*3 10.38 C 0 km/h
1852 15-09-2019 03:00:00 10.16667 C 8.79 g/m*3 10.17 C 0.13333 km/h
1853 15-09-2019 04:00:00 9.75833 C 8.61 g/m*3 9.76 C 0.13333 km/h
1854 15-09-2019 05:00:00 9.31667 C 8.46 g/m*3 9.32 C 0 km/h
1855 15-09-2019 06:00:00 8.76667 C 8.17 g/m*3 8.77 C 0 km/h
1856 15-09-2019 07:00:00 8.775 C 8.26 g/m*3 8.78 C 0.53333 km/h
1857 15-09-2019 08:00:00 9.29167 C 8.62 g/m*3 9.29 C 0.53333 km/h
1858 15-09-2019 09:00:00 10.03333 C 9.04 g/m*3 10.03 C 0 km/h
1859 15-09-2019 10:00:00 11.35833 C 9.83 g/m*3 11.36 C 0 km/h
1860 15-09-2019 11:00:00 13.71667 C 11.23 g/m*3 13.72 C 0 km/h
1861 15-09-2019 12:00:00 16.96667 C 12.32 g/m*3 16.97 C 0 km/h
1862 15-09-2019 13:00:00 20.45833 C 12.4 g/m*3 20.46 C 0 km/h
1863 15-09-2019 14:00:00 22.79167 C 12.41 g/m*3 22.79 C 0.53333 km/h
1864 15-09-2019 15:00:00 24.05 C 12.35 g/m*3 24.05 C 0.53333 km/h
1865 15-09-2019 16:00:00 24.65833 C 11.93 g/m*3 24.66 C 2.66667 km/h
1866 15-09-2019 17:00:00 25.84167 C 11.52 g/m*3 25.84 C 1.6 km/h
1867 15-09-2019 18:00:00 26.43333 C 11.47 g/m*3 26.43 C 0.4 km/h
1868 15-09-2019 19:00:00 21.96667 C 11.11 g/m*3 21.97 C 0 km/h
1869 15-09-2019 20:00:00 18.225 C 9.86 g/m*3 18.23 C 0 km/h
1870 15-09-2019 21:00:00 16.76667 C 9.56 g/m*3 16.77 C 0 km/h
1871 15-09-2019 22:00:00 14.475 C 9.48 g/m*3 14.48 C 0 km/h
1872 15-09-2019 23:00:00 12.99167 C 9.21 g/m*3 12.99 C 0 km/h
1873 16-09-2019 00:00:00 12.55 C 9.24 g/m*3 12.55 C 0 km/h
1874 16-09-2019 01:00:00 12.25833 C 9.26 g/m*3 12.26 C 0.53333 km/h
1875 16-09-2019 02:00:00 11.41667 C 9.02 g/m*3 11.42 C 0.26667 km/h
Sensor: Nr:Datum:Temp:Abs-Feuchte:Windchill:Wind:
Aussen-T/F 1876 16-09-2019 03:00:00 11.11667 C 9.09 g/m*3 11.12 C 0.4 km/h
1877 16-09-2019 04:00:00 11.45833 C 9.31 g/m*3 11.46 C 0.66667 km/h
1878 16-09-2019 05:00:00 11.51667 C 9.27 g/m*3 11.52 C 0.4 km/h
1879 16-09-2019 06:00:00 11.23333 C 9.22 g/m*3 11.23 C 0 km/h
1880 16-09-2019 07:00:00 11.31667 C 9.35 g/m*3 11.32 C 0.13333 km/h
1881 16-09-2019 08:00:00 12.075 C 9.65 g/m*3 12.08 C 1.2 km/h
1882 16-09-2019 09:00:00 13.4 C 10.02 g/m*3 13.4 C 1.06667 km/h
1883 16-09-2019 10:00:00 14.99167 C 10.52 g/m*3 14.99 C 0.93333 km/h
1884 16-09-2019 11:00:00 17.41667 C 11.29 g/m*3 17.42 C 1.33333 km/h
1885 16-09-2019 12:00:00 19.64167 C 11.69 g/m*3 19.64 C 4.40833 km/h
1886 16-09-2019 13:00:00 21.18333 C 11.4 g/m*3 21.18 C 5.9 km/h
1887 16-09-2019 14:00:00 22.05 C 11.19 g/m*3 22.05 C 4.26667 km/h
1888 16-09-2019 15:00:00 22.075 C 11.53 g/m*3 22.08 C 4.275 km/h
1889 16-09-2019 16:00:00 22.10833 C 10.87 g/m*3 22.11 C 7.65 km/h
1890 16-09-2019 17:00:00 21.8 C 11.67 g/m*3 21.8 C 7.525 km/h
1891 16-09-2019 18:00:00 20.725 C 11.4 g/m*3 20.73 C 4.95 km/h
1892 16-09-2019 19:00:00 19.71667 C 11.57 g/m*3 19.72 C 8.46667 km/h
1893 16-09-2019 20:00:00 17.64167 C 12.45 g/m*3 17.64 C 2.275 km/h
1894 16-09-2019 21:00:00 16.74167 C 12.53 g/m*3 16.74 C 1.46667 km/h
1895 16-09-2019 22:00:00 16.43333 C 12.39 g/m*3 16.43 C 4.825 km/h
1896 16-09-2019 23:00:00 15.4 C 12.03 g/m*3 15.4 C 4.14167 km/h
1897 17-09-2019 00:00:00 15.05833 C 11.74 g/m*3 15.06 C 1.73333 km/h
1898 17-09-2019 01:00:00 14.81667 C 11.42 g/m*3 14.82 C 4 km/h
1899 17-09-2019 02:00:00 14.66667 C 11.26 g/m*3 14.67 C 3.475 km/h
1900 17-09-2019 03:00:00 14.54167 C 11.1 g/m*3 14.54 C 1.46667 km/h
Sensor: Nr:Datum:Temp:Abs-Feuchte:Windchill:Wind:
Aussen-T/F 1901 17-09-2019 04:00:00 14.30833 C 11.03 g/m*3 14.31 C 0.4 km/h
1902 17-09-2019 05:00:00 14.16667 C 11 g/m*3 14.17 C 0.53333 km/h
1903 17-09-2019 06:00:00 14.1 C 10.95 g/m*3 14.1 C 3.74167 km/h
1904 17-09-2019 07:00:00 14.01667 C 10.81 g/m*3 14.02 C 1.86667 km/h
1905 17-09-2019 08:00:00 14 C 10.57 g/m*3 14 C 4.00833 km/h
1906 17-09-2019 09:00:00 14.04167 C 10.08 g/m*3 14.04 C 8.33333 km/h
1907 17-09-2019 10:00:00 14.925 C 9.51 g/m*3 14.93 C 11.29167 km/h
1908 17-09-2019 11:00:00 15.73333 C 9.52 g/m*3 15.73 C 11.56667 km/h
1909 17-09-2019 12:00:00 16.125 C 9.35 g/m*3 16.13 C 13.83333 km/h
1910 17-09-2019 13:00:00 16.625 C 9.11 g/m*3 16.63 C 13.43333 km/h
1911 17-09-2019 14:00:00 17.44167 C 9.01 g/m*3 17.44 C 13.43333 km/h
1912 17-09-2019 15:00:00 17.66667 C 8.72 g/m*3 17.67 C 12.1 km/h
1913 17-09-2019 16:00:00 18.05833 C 8.61 g/m*3 18.06 C 12.76667 km/h
1914 17-09-2019 17:00:00 18.125 C 8.63 g/m*3 18.13 C 11.41667 km/h
1915 17-09-2019 18:00:00 18.45 C 8.52 g/m*3 18.45 C 13.43333 km/h
1916 17-09-2019 19:00:00 17.3 C 8.79 g/m*3 17.3 C 5.775 km/h
1917 17-09-2019 20:00:00 16.71667 C 8.94 g/m*3 16.72 C 6.03333 km/h
1918 17-09-2019 21:00:00 16.00833 C 8.74 g/m*3 16.01 C 12.36667 km/h
1919 17-09-2019 22:00:00 14.55833 C 7.86 g/m*3 14.56 C 11.7 km/h
1920 17-09-2019 23:00:00 13.40833 C 7.65 g/m*3 13.41 C 6.45 km/h
1921 18-09-2019 00:00:00 11.80833 C 7.43 g/m*3 11.81 C 3.86667 km/h
1922 18-09-2019 01:00:00 10.83333 C 7.47 g/m*3 10.83 C 2.8 km/h
1923 18-09-2019 02:00:00 9.26667 C 7.32 g/m*3 9.27 C 0 km/h
1924 18-09-2019 03:00:00 8.25 C 7.19 g/m*3 8.25 C 0 km/h
1925 18-09-2019 04:00:00 7.425 C 7.05 g/m*3 7.43 C 0 km/h
Sensor: Nr:Datum:Temp:Abs-Feuchte:Windchill:Wind:
Aussen-T/F 1926 18-09-2019 05:00:00 6.76667 C 6.89 g/m*3 6.77 C 0 km/h
1927 18-09-2019 06:00:00 6.08333 C 6.7 g/m*3 6.08 C 0 km/h
1928 18-09-2019 07:00:00 5.8 C 6.67 g/m*3 5.8 C 0 km/h
1929 18-09-2019 08:00:00 6.10833 C 6.87 g/m*3 6.11 C 0 km/h
1930 18-09-2019 09:00:00 7.01667 C 7.37 g/m*3 7.02 C 0 km/h
1931 18-09-2019 10:00:00 8.375 C 8.05 g/m*3 8.38 C 0 km/h
1932 18-09-2019 11:00:00 10.625 C 8.65 g/m*3 10.63 C 1.33333 km/h
1933 18-09-2019 12:00:00 13.6 C 8.4 g/m*3 13.6 C 5.61667 km/h
1934 18-09-2019 13:00:00 15.1 C 7.76 g/m*3 15.1 C 9 km/h
1935 18-09-2019 14:00:00 16.25 C 7.43 g/m*3 16.25 C 9.54167 km/h
1936 18-09-2019 15:00:00 17.00833 C 7.27 g/m*3 17.01 C 8.86667 km/h
1937 18-09-2019 16:00:00 17.225 C 7.48 g/m*3 17.23 C 9.95 km/h
1938 18-09-2019 17:00:00 18.14167 C 7.1 g/m*3 18.14 C 11.56667 km/h
1939 18-09-2019 18:00:00 18.08333 C 6.92 g/m*3 18.08 C 8.58333 km/h
1940 18-09-2019 19:00:00 15.75 C 7.28 g/m*3 15.75 C 1.06667 km/h
1941 18-09-2019 20:00:00 12.30833 C 7.28 g/m*3 12.31 C 0 km/h
1942 18-09-2019 21:00:00 11.525 C 7.45 g/m*3 11.53 C 0 km/h
1943 18-09-2019 22:00:00 10.68333 C 7.43 g/m*3 10.68 C 0 km/h
1944 18-09-2019 23:00:00 9.85833 C 7.44 g/m*3 9.86 C 0 km/h
1945 19-09-2019 00:00:00 9.16667 C 7.4 g/m*3 9.17 C 0 km/h
1946 19-09-2019 01:00:00 8.5 C 7.23 g/m*3 8.5 C 0 km/h
1947 19-09-2019 02:00:00 7.20833 C 6.97 g/m*3 7.21 C 0 km/h
1948 19-09-2019 03:00:00 6.58333 C 6.86 g/m*3 6.58 C 0 km/h
1949 19-09-2019 04:00:00 6.08333 C 6.73 g/m*3 6.08 C 0 km/h
1950 19-09-2019 05:00:00 5.65833 C 6.6 g/m*3 5.66 C 0 km/h
Sensor: Nr:Datum:Temp:Abs-Feuchte:Windchill:Wind:
Aussen-T/F 1951 19-09-2019 06:00:00 5.26667 C 6.48 g/m*3 5.27 C 0 km/h
1952 19-09-2019 07:00:00 5.14167 C 6.45 g/m*3 5.14 C 0 km/h
1953 19-09-2019 08:00:00 5.33333 C 6.59 g/m*3 5.33 C 0 km/h
1954 19-09-2019 09:00:00 6.31667 C 7.08 g/m*3 6.32 C 0 km/h
1955 19-09-2019 10:00:00 7.725 C 7.8 g/m*3 7.73 C 0 km/h
1956 19-09-2019 11:00:00 9.70833 C 8.42 g/m*3 9.71 C 0.4 km/h
1957 19-09-2019 12:00:00 13.33333 C 7.53 g/m*3 13.33 C 10.35833 km/h
1958 19-09-2019 13:00:00 14.46667 C 7.05 g/m*3 14.47 C 6.3 km/h
1959 19-09-2019 14:00:00 15.7 C 6.76 g/m*3 15.7 C 7.38333 km/h
1960 19-09-2019 15:00:00 16.48333 C 6.7 g/m*3 16.48 C 9.54167 km/h
1961 19-09-2019 16:00:00 17.08333 C 6.67 g/m*3 17.08 C 9.28333 km/h
1962 19-09-2019 17:00:00 18.04167 C 6.51 g/m*3 18.04 C 8.59167 km/h
1963 19-09-2019 18:00:00 18.01667 C 6.64 g/m*3 18.02 C 4.96667 km/h
1964 19-09-2019 19:00:00 15.00833 C 7.05 g/m*3 15.01 C 0 km/h
1965 19-09-2019 20:00:00 11.975 C 6.78 g/m*3 11.98 C 0 km/h
1966 19-09-2019 21:00:00 10.525 C 6.78 g/m*3 10.53 C 0 km/h
1967 19-09-2019 22:00:00 9.59167 C 6.78 g/m*3 9.59 C 0 km/h
1968 19-09-2019 23:00:00 8.45 C 6.65 g/m*3 8.45 C 0 km/h
1969 20-09-2019 00:00:00 7.625 C 6.46 g/m*3 7.63 C 0 km/h
1970 20-09-2019 01:00:00 7.05 C 6.42 g/m*3 7.05 C 0 km/h
1971 20-09-2019 02:00:00 6.21667 C 6.27 g/m*3 6.22 C 0 km/h
1972 20-09-2019 03:00:00 5.75 C 6.19 g/m*3 5.75 C 0 km/h
1973 20-09-2019 04:00:00 5.15 C 6.09 g/m*3 5.15 C 0 km/h
1974 20-09-2019 05:00:00 4.69167 C 6.03 g/m*3 4.69 C 0 km/h
1975 20-09-2019 06:00:00 4.325 C 5.97 g/m*3 4.33 C 0 km/h
Sensor: Nr:Datum:Temp:Abs-Feuchte:Windchill:Wind:
Aussen-T/F 1976 20-09-2019 07:00:00 4.125 C 5.96 g/m*3 4.13 C 0 km/h
1977 20-09-2019 08:00:00 4.65 C 6.24 g/m*3 4.65 C 0 km/h
1978 20-09-2019 09:00:00 5.625 C 6.69 g/m*3 5.63 C 0 km/h
1979 20-09-2019 10:00:00 7.39167 C 7.47 g/m*3 7.39 C 0 km/h
1980 20-09-2019 11:00:00 10 C 8.1 g/m*3 10 C 0 km/h
1981 20-09-2019 12:00:00 13.41667 C 7.68 g/m*3 13.42 C 4.95833 km/h
1982 20-09-2019 13:00:00 15.83333 C 7.25 g/m*3 15.83 C 5.21667 km/h
1983 20-09-2019 14:00:00 17.63333 C 7.14 g/m*3 17.63 C 7.11667 km/h
1984 20-09-2019 15:00:00 18.525 C 6.89 g/m*3 18.52 C 7.925 km/h
1985 20-09-2019 16:00:00 19.26667 C 7.01 g/m*3 19.27 C 9.28333 km/h
1986 20-09-2019 17:00:00 20.33333 C 7.02 g/m*3 20.33 C 8.59167 km/h
1987 20-09-2019 18:00:00 20.525 C 7.17 g/m*3 20.53 C 4.55 km/h
1988 20-09-2019 19:00:00 15.85 C 7.09 g/m*3 15.85 C 0.8 km/h
1989 20-09-2019 20:00:00 13.7 C 6.96 g/m*3 13.7 C 1.33333 km/h
1990 20-09-2019 21:00:00 11.68333 C 7.14 g/m*3 11.68 C 0 km/h
1991 20-09-2019 22:00:00 9.525 C 6.97 g/m*3 9.53 C 0 km/h
1992 20-09-2019 23:00:00 8.425 C 6.87 g/m*3 8.43 C 0 km/h
1993 21-09-2019 00:00:00 7.44167 C 6.69 g/m*3 7.44 C 0 km/h
1994 21-09-2019 01:00:00 6.85 C 6.55 g/m*3 6.85 C 0 km/h
1995 21-09-2019 02:00:00 6.34167 C 6.4 g/m*3 6.34 C 0 km/h
1996 21-09-2019 03:00:00 5.80833 C 6.27 g/m*3 5.81 C 0 km/h
1997 21-09-2019 04:00:00 5.45833 C 6.24 g/m*3 5.46 C 0 km/h
1998 21-09-2019 05:00:00 5.275 C 6.25 g/m*3 5.28 C 0 km/h
1999 21-09-2019 06:00:00 4.80833 C 6.1 g/m*3 4.81 C 0 km/h
2000 21-09-2019 07:00:00 4.60833 C 6.09 g/m*3 4.61 C 0 km/h
Sensor: Nr:Datum:Temp:Abs-Feuchte:Windchill:Wind:
Aussen-T/F 2001 21-09-2019 08:00:00 4.725 C 6.21 g/m*3 4.72 C 0 km/h
2002 21-09-2019 09:00:00 5.79167 C 6.72 g/m*3 5.79 C 0 km/h
2003 21-09-2019 10:00:00 8.225 C 7.58 g/m*3 8.23 C 0 km/h
2004 21-09-2019 11:00:00 11.40833 C 8.4 g/m*3 11.41 C 0 km/h
2005 21-09-2019 12:00:00 14.95 C 8.6 g/m*3 14.95 C 0.66667 km/h
2006 21-09-2019 13:00:00 18.2 C 7.78 g/m*3 18.2 C 4 km/h
2007 21-09-2019 14:00:00 21.43333 C 6.23 g/m*3 21.43 C 7.24167 km/h
2008 21-09-2019 15:00:00 22.63333 C 6.11 g/m*3 22.63 C 7.925 km/h
2009 21-09-2019 16:00:00 23.23333 C 6.53 g/m*3 23.23 C 7.375 km/h
2010 21-09-2019 17:00:00 24.65833 C 7.13 g/m*3 24.66 C 5.09167 km/h
2011 21-09-2019 18:00:00 22.74167 C 7.97 g/m*3 22.74 C 0.66667 km/h
2012 21-09-2019 19:00:00 18.49167 C 7.54 g/m*3 18.49 C 1.6 km/h
2013 21-09-2019 20:00:00 16.16667 C 7.62 g/m*3 16.17 C 0.66667 km/h
2014 21-09-2019 21:00:00 13.66667 C 7.8 g/m*3 13.67 C 0 km/h
2015 21-09-2019 22:00:00 11.99167 C 7.62 g/m*3 11.99 C 0 km/h
2016 21-09-2019 23:00:00 10.88333 C 7.52 g/m*3 10.88 C 0 km/h
2017 22-09-2019 00:00:00 9.825 C 7.43 g/m*3 9.82 C 0 km/h
2018 22-09-2019 01:00:00 9.08333 C 7.39 g/m*3 9.08 C 0 km/h
2019 22-09-2019 02:00:00 8.425 C 7.24 g/m*3 8.43 C 0 km/h
2020 22-09-2019 03:00:00 7.96667 C 7.23 g/m*3 7.97 C 0 km/h
2021 22-09-2019 04:00:00 7.39167 C 7.07 g/m*3 7.39 C 0 km/h
2022 22-09-2019 05:00:00 7.06667 C 7.06 g/m*3 7.07 C 0 km/h
2023 22-09-2019 06:00:00 6.99167 C 7.12 g/m*3 6.99 C 0 km/h
2024 22-09-2019 07:00:00 6.93333 C 7.14 g/m*3 6.93 C 0 km/h
2025 22-09-2019 08:00:00 7.55833 C 7.47 g/m*3 7.56 C 0 km/h
Sensor: Nr:Datum:Temp:Abs-Feuchte:Windchill:Wind:
Aussen-T/F 2026 22-09-2019 09:00:00 8.63333 C 8.02 g/m*3 8.63 C 0 km/h
2027 22-09-2019 10:00:00 11.05 C 9.19 g/m*3 11.05 C 0 km/h
2028 22-09-2019 11:00:00 14.83333 C 10.13 g/m*3 14.83 C 0 km/h
2029 22-09-2019 12:00:00 17.68333 C 10.99 g/m*3 17.68 C 0 km/h
2030 22-09-2019 13:00:00 20.70833 C 11.63 g/m*3 20.71 C 0.26667 km/h
2031 22-09-2019 14:00:00 24.05 C 11.64 g/m*3 24.05 C 2.93333 km/h
2032 22-09-2019 15:00:00 24.85 C 11.36 g/m*3 24.85 C 3.86667 km/h
2033 22-09-2019 16:00:00 24.73333 C 12.25 g/m*3 24.73 C 0.8 km/h
2034 22-09-2019 17:00:00 23.48333 C 12.59 g/m*3 23.48 C 0 km/h
2035 22-09-2019 18:00:00 21.74167 C 12.24 g/m*3 21.74 C 0 km/h
2036 22-09-2019 19:00:00 20.33333 C 11.45 g/m*3 20.33 C 0 km/h
2037 22-09-2019 20:00:00 19.075 C 10.9 g/m*3 19.08 C 2 km/h
2038 22-09-2019 21:00:00 18.175 C 10.66 g/m*3 18.18 C 1.46667 km/h
2039 22-09-2019 22:00:00 18.3 C 10.92 g/m*3 18.3 C 0.13333 km/h
2040 22-09-2019 23:00:00 17.80833 C 11.4 g/m*3 17.81 C 0 km/h
2041 23-09-2019 00:00:00 17.55833 C 12.04 g/m*3 17.56 C 2.80833 km/h
2042 23-09-2019 01:00:00 18.375 C 12.81 g/m*3 18.38 C 3.33333 km/h
2043 23-09-2019 02:00:00 18.10833 C 12.21 g/m*3 18.11 C 9.26667 km/h
2044 23-09-2019 03:00:00 17.2 C 12.06 g/m*3 17.2 C 4.95 km/h
2045 23-09-2019 04:00:00 16.05833 C 11.82 g/m*3 16.06 C 0.93333 km/h
2046 23-09-2019 05:00:00 15.14167 C 11.8 g/m*3 15.14 C 1.86667 km/h
2047 23-09-2019 06:00:00 14.43333 C 11.53 g/m*3 14.43 C 0.26667 km/h
2048 23-09-2019 07:00:00 14.23333 C 11.52 g/m*3 14.23 C 0 km/h
2049 23-09-2019 08:00:00 14.25 C 11.64 g/m*3 14.25 C 0 km/h
2050 23-09-2019 09:00:00 14.74167 C 12.1 g/m*3 14.74 C 0 km/h
Sensor: Nr:Datum:Temp:Abs-Feuchte:Windchill:Wind:
Aussen-T/F 2051 23-09-2019 10:00:00 15.425 C 12.63 g/m*3 15.43 C 0.4 km/h
2052 23-09-2019 11:00:00 16.26667 C 13.08 g/m*3 16.27 C 2.8 km/h
2053 23-09-2019 12:00:00 17.06667 C 13.18 g/m*3 17.07 C 8.06667 km/h
2054 23-09-2019 13:00:00 18.2 C 12.67 g/m*3 18.2 C 10.49167 km/h
2055 23-09-2019 14:00:00 19.425 C 11.89 g/m*3 19.43 C 13.3 km/h
2056 23-09-2019 15:00:00 19.61667 C 11.63 g/m*3 19.62 C 12.36667 km/h
2057 23-09-2019 16:00:00 19.94167 C 11.61 g/m*3 19.94 C 14.36667 km/h
2058 23-09-2019 17:00:00 20.24167 C 11.57 g/m*3 20.24 C 12.49167 km/h
2059 23-09-2019 18:00:00 18.46667 C 11.71 g/m*3 18.47 C 1.2 km/h
2060 23-09-2019 19:00:00 16 C 11.16 g/m*3 16 C 0.13333 km/h
2061 23-09-2019 20:00:00 14.34167 C 10.75 g/m*3 14.34 C 0 km/h
2062 23-09-2019 21:00:00 13.96667 C 10.85 g/m*3 13.97 C 0 km/h
2063 23-09-2019 22:00:00 13.9 C 11.03 g/m*3 13.9 C 0 km/h
2064 23-09-2019 23:00:00 14.11667 C 11.21 g/m*3 14.12 C 0 km/h
2065 24-09-2019 00:00:00 14.33333 C 11.37 g/m*3 14.33 C 0 km/h
2066 24-09-2019 01:00:00 13.95 C 11.01 g/m*3 13.95 C 0 km/h
2067 24-09-2019 02:00:00 12.66667 C 10.28 g/m*3 12.67 C 0 km/h
2068 24-09-2019 03:00:00 11.96667 C 9.98 g/m*3 11.97 C 0 km/h
2069 24-09-2019 04:00:00 11.50833 C 9.77 g/m*3 11.51 C 0 km/h
2070 24-09-2019 05:00:00 10.675 C 9.31 g/m*3 10.68 C 0 km/h
2071 24-09-2019 06:00:00 10.25 C 9.1 g/m*3 10.25 C 0 km/h
2072 24-09-2019 07:00:00 9.89167 C 8.94 g/m*3 9.89 C 0 km/h
2073 24-09-2019 08:00:00 10.65 C 9.44 g/m*3 10.65 C 0 km/h
2074 24-09-2019 09:00:00 11.35833 C 9.93 g/m*3 11.36 C 0.8 km/h
2075 24-09-2019 10:00:00 12.49167 C 10.66 g/m*3 12.49 C 0 km/h
Sensor: Nr:Datum:Temp:Abs-Feuchte:Windchill:Wind:
Aussen-T/F 2076 24-09-2019 11:00:00 14.48333 C 11.78 g/m*3 14.48 C 0.93333 km/h
2077 24-09-2019 12:00:00 17.53333 C 12.03 g/m*3 17.53 C 3.88333 km/h
2078 24-09-2019 13:00:00 18.59167 C 11.6 g/m*3 18.59 C 6.44167 km/h
2079 24-09-2019 14:00:00 19.21667 C 11.33 g/m*3 19.22 C 1.60833 km/h
2080 24-09-2019 15:00:00 18.63333 C 11.3 g/m*3 18.63 C 0.66667 km/h
2081 24-09-2019 16:00:00 17.70833 C 12.37 g/m*3 17.71 C 0.93333 km/h
2082 24-09-2019 17:00:00 16.95 C 12.96 g/m*3 16.95 C 0 km/h
2083 24-09-2019 18:00:00 16.125 C 12.64 g/m*3 16.13 C 0 km/h
2084 24-09-2019 19:00:00 15.1 C 12.01 g/m*3 15.1 C 0 km/h
2085 24-09-2019 20:00:00 14.01667 C 11.37 g/m*3 14.02 C 0 km/h
2086 24-09-2019 21:00:00 13.65 C 11.21 g/m*3 13.65 C 0 km/h
2087 24-09-2019 22:00:00 13.64167 C 11.29 g/m*3 13.64 C 0 km/h
2088 24-09-2019 23:00:00 13.775 C 11.42 g/m*3 13.78 C 0 km/h
2089 25-09-2019 00:00:00 13.99167 C 11.57 g/m*3 13.99 C 0.13333 km/h
2090 25-09-2019 01:00:00 14.13333 C 11.72 g/m*3 14.13 C 1.34167 km/h
2091 25-09-2019 02:00:00 14.49167 C 11.93 g/m*3 14.49 C 3.35 km/h
2092 25-09-2019 03:00:00 14.6 C 12.01 g/m*3 14.6 C 0.4 km/h
2093 25-09-2019 04:00:00 14.55833 C 11.98 g/m*3 14.56 C 0.53333 km/h
2094 25-09-2019 05:00:00 14.01667 C 11.59 g/m*3 14.02 C 1.33333 km/h
2095 25-09-2019 06:00:00 13.64167 C 11.33 g/m*3 13.64 C 0.93333 km/h
2096 25-09-2019 07:00:00 13.61667 C 11.33 g/m*3 13.62 C 0.8 km/h
2097 25-09-2019 08:00:00 13.75 C 11.51 g/m*3 13.75 C 0 km/h
2098 25-09-2019 09:00:00 14.33333 C 11.94 g/m*3 14.33 C 1.33333 km/h
2099 25-09-2019 10:00:00 14.90833 C 12.03 g/m*3 14.91 C 8.475 km/h
2100 25-09-2019 11:00:00 16.225 C 11.94 g/m*3 16.23 C 13.69167 km/h
Sensor: Nr:Datum:Temp:Abs-Feuchte:Windchill:Wind:
Aussen-T/F 2101 25-09-2019 12:00:00 16.875 C 11.57 g/m*3 16.88 C 10.35833 km/h
2102 25-09-2019 13:00:00 17.38333 C 11.46 g/m*3 17.38 C 11.81667 km/h
2103 25-09-2019 14:00:00 17.38333 C 11.57 g/m*3 17.38 C 10.35833 km/h
2104 25-09-2019 15:00:00 16.325 C 12.4 g/m*3 16.33 C 4.8 km/h
2105 25-09-2019 16:00:00 17.08333 C 12.36 g/m*3 17.08 C 7.38333 km/h
2106 25-09-2019 17:00:00 17.53333 C 12.19 g/m*3 17.53 C 7.24167 km/h
2107 25-09-2019 18:00:00 16.775 C 11.91 g/m*3 16.77 C 2.54167 km/h
2108 25-09-2019 19:00:00 15.625 C 11.72 g/m*3 15.63 C 0.53333 km/h
2109 25-09-2019 20:00:00 15.10833 C 11.76 g/m*3 15.11 C 0 km/h
2110 25-09-2019 21:00:00 14.71667 C 11.69 g/m*3 14.72 C 0.13333 km/h
2111 25-09-2019 22:00:00 14.7 C 11.8 g/m*3 14.7 C 0 km/h
2112 25-09-2019 23:00:00 14.65833 C 11.93 g/m*3 14.66 C 0 km/h
2113 26-09-2019 00:00:00 14.55833 C 11.86 g/m*3 14.56 C 0.26667 km/h
2114 26-09-2019 01:00:00 14.23333 C 11.65 g/m*3 14.23 C 0 km/h
2115 26-09-2019 02:00:00 14.13333 C 11.67 g/m*3 14.13 C 0 km/h
2116 26-09-2019 03:00:00 13.60833 C 11.29 g/m*3 13.61 C 0 km/h
2117 26-09-2019 04:00:00 13.25833 C 11.08 g/m*3 13.26 C 0 km/h
2118 26-09-2019 05:00:00 13.90833 C 11.6 g/m*3 13.91 C 2.01667 km/h
2119 26-09-2019 06:00:00 14.125 C 11.78 g/m*3 14.13 C 0.53333 km/h
2120 26-09-2019 07:00:00 14.35833 C 11.84 g/m*3 14.36 C 0.13333 km/h
2121 26-09-2019 08:00:00 14.74167 C 12.12 g/m*3 14.74 C 0.26667 km/h
2122 26-09-2019 09:00:00 15.10833 C 12.35 g/m*3 15.11 C 0.4 km/h
2123 26-09-2019 10:00:00 15.86667 C 12.91 g/m*3 15.87 C 0.13333 km/h
2124 26-09-2019 11:00:00 16.59167 C 13.37 g/m*3 16.59 C 0.93333 km/h
2125 26-09-2019 12:00:00 17.61667 C 13.75 g/m*3 17.62 C 5.225 km/h
Sensor: Nr:Datum:Temp:Abs-Feuchte:Windchill:Wind:
Aussen-T/F 2126 26-09-2019 13:00:00 17.775 C 13.9 g/m*3 17.77 C 1.06667 km/h
2127 26-09-2019 14:00:00 17.51667 C 13.84 g/m*3 17.52 C 0.93333 km/h
2128 26-09-2019 15:00:00 18.05833 C 14.13 g/m*3 18.06 C 1.2 km/h
2129 26-09-2019 16:00:00 18.83333 C 14.32 g/m*3 18.83 C 4.15 km/h
2130 26-09-2019 17:00:00 18.91667 C 14.2 g/m*3 18.92 C 4.675 km/h
2131 26-09-2019 18:00:00 18.71667 C 14.24 g/m*3 18.72 C 2.68333 km/h
2132 26-09-2019 19:00:00 18.04167 C 13.99 g/m*3 18.04 C 2.01667 km/h
2133 26-09-2019 20:00:00 17.39167 C 13.29 g/m*3 17.39 C 6.03333 km/h
2134 26-09-2019 21:00:00 17.36667 C 13.16 g/m*3 17.37 C 5.5 km/h
2135 26-09-2019 22:00:00 17.725 C 13.08 g/m*3 17.73 C 10.23333 km/h
2136 26-09-2019 23:00:00 17.81667 C 12.99 g/m*3 17.82 C 7.5 km/h
2137 27-09-2019 00:00:00 17.98333 C 12.86 g/m*3 17.98 C 6.975 km/h
2138 27-09-2019 01:00:00 18.05 C 12.68 g/m*3 18.05 C 10.20833 km/h
2139 27-09-2019 02:00:00 17.96667 C 12.58 g/m*3 17.97 C 9.68333 km/h
2140 27-09-2019 03:00:00 16.71667 C 12.82 g/m*3 16.72 C 6.18333 km/h
2141 27-09-2019 04:00:00 16.29167 C 12.83 g/m*3 16.29 C 2.95 km/h
2142 27-09-2019 05:00:00 16.16667 C 12.81 g/m*3 16.17 C 2.13333 km/h
2143 27-09-2019 06:00:00 15.78333 C 12.67 g/m*3 15.78 C 2.15 km/h
2144 27-09-2019 07:00:00 14.41667 C 11.71 g/m*3 14.42 C 2.28333 km/h
2145 27-09-2019 08:00:00 14.1 C 11.62 g/m*3 14.1 C 0.66667 km/h
2146 27-09-2019 09:00:00 13.99167 C 11.57 g/m*3 13.99 C 3.75 km/h
2147 27-09-2019 10:00:00 14.69167 C 12.02 g/m*3 14.69 C 6.58333 km/h
2148 27-09-2019 11:00:00 15.35 C 12.16 g/m*3 15.35 C 6.7 km/h
2149 27-09-2019 12:00:00 15.96667 C 12.11 g/m*3 15.97 C 11.29167 km/h
2150 27-09-2019 13:00:00 17.29167 C 11.95 g/m*3 17.29 C 12.9 km/h
Sensor: Nr:Datum:Temp:Abs-Feuchte:Windchill:Wind:
Aussen-T/F 2151 27-09-2019 14:00:00 18.15833 C 11.77 g/m*3 18.16 C 14.9 km/h
2152 27-09-2019 15:00:00 18.21667 C 11.79 g/m*3 18.22 C 13.83333 km/h
2153 27-09-2019 16:00:00 17.96667 C 11.79 g/m*3 17.97 C 12.1 km/h
2154 27-09-2019 17:00:00 18.98333 C 11.78 g/m*3 18.98 C 12.36667 km/h
2155 27-09-2019 18:00:00 18.01667 C 11.54 g/m*3 18.02 C 10.75833 km/h
2156 27-09-2019 19:00:00 16.05833 C 11.25 g/m*3 16.06 C 3.75833 km/h
2157 27-09-2019 20:00:00 15.13333 C 11.37 g/m*3 15.13 C 0.26667 km/h
2158 27-09-2019 21:00:00 14.275 C 11.06 g/m*3 14.28 C 0.26667 km/h
2159 27-09-2019 22:00:00 13.83333 C 11.04 g/m*3 13.83 C 0 km/h
2160 27-09-2019 23:00:00 13.5 C 10.98 g/m*3 13.5 C 0 km/h
2161 28-09-2019 00:00:00 12.875 C 10.64 g/m*3 12.88 C 0.66667 km/h
2162 28-09-2019 01:00:00 12.90833 C 10.72 g/m*3 12.91 C 3.21667 km/h
2163 28-09-2019 02:00:00 14.21667 C 11.16 g/m*3 14.22 C 9.13333 km/h
2164 28-09-2019 03:00:00 14.825 C 11.33 g/m*3 14.83 C 6.45 km/h
2165 28-09-2019 04:00:00 14.04167 C 11.17 g/m*3 14.04 C 5.63333 km/h
2166 28-09-2019 05:00:00 13.95 C 11.05 g/m*3 13.95 C 6.84167 km/h
2167 28-09-2019 06:00:00 14.4 C 11.21 g/m*3 14.4 C 9.4 km/h
2168 28-09-2019 07:00:00 14.1 C 11.28 g/m*3 14.1 C 1.875 km/h
2169 28-09-2019 08:00:00 13.89167 C 11.18 g/m*3 13.89 C 7.94167 km/h
2170 28-09-2019 09:00:00 14.35833 C 11.11 g/m*3 14.36 C 12.225 km/h
2171 28-09-2019 10:00:00 15.4 C 11.21 g/m*3 15.4 C 12.75833 km/h
2172 28-09-2019 11:00:00 16.30833 C 11.15 g/m*3 16.31 C 17.43333 km/h
2173 28-09-2019 12:00:00 16.85 C 11.27 g/m*3 16.85 C 13.16667 km/h
2174 28-09-2019 13:00:00 17.21667 C 11.3 g/m*3 17.22 C 17.3 km/h
2175 28-09-2019 14:00:00 17.49167 C 11.4 g/m*3 17.49 C 17.3 km/h
Sensor: Nr:Datum:Temp:Abs-Feuchte:Windchill:Wind:
Aussen-T/F 2176 28-09-2019 15:00:00 17.16667 C 11.3 g/m*3 17.17 C 15.43333 km/h
2177 28-09-2019 16:00:00 17.35833 C 11.48 g/m*3 17.36 C 14.23333 km/h
2178 28-09-2019 17:00:00 17.71667 C 11.43 g/m*3 17.72 C 15.96667 km/h
2179 28-09-2019 18:00:00 17.14167 C 11.18 g/m*3 17.14 C 11.025 km/h
2180 28-09-2019 19:00:00 15.7 C 10.78 g/m*3 15.7 C 8.99167 km/h
2181 28-09-2019 20:00:00 15.24167 C 10.7 g/m*3 15.24 C 5.89167 km/h
2182 28-09-2019 21:00:00 14.975 C 10.58 g/m*3 14.98 C 7.79167 km/h
2183 28-09-2019 22:00:00 15.13333 C 10.51 g/m*3 15.13 C 9.53333 km/h
2184 28-09-2019 23:00:00 14.15 C 10.33 g/m*3 14.15 C 4.55 km/h
2185 29-09-2019 00:00:00 13.875 C 10.33 g/m*3 13.88 C 2.81667 km/h
2186 29-09-2019 01:00:00 13.95 C 10.4 g/m*3 13.95 C 0.66667 km/h
2187 29-09-2019 02:00:00 13.65 C 10.49 g/m*3 13.65 C 0 km/h
2188 29-09-2019 03:00:00 13.48333 C 10.54 g/m*3 13.48 C 0 km/h
2189 29-09-2019 04:00:00 13.525 C 10.66 g/m*3 13.53 C 0 km/h
2190 29-09-2019 05:00:00 13.81667 C 10.66 g/m*3 13.82 C 0.26667 km/h
2191 29-09-2019 06:00:00 13.94167 C 10.43 g/m*3 13.94 C 0.93333 km/h
2192 29-09-2019 07:00:00 14.025 C 10.46 g/m*3 14.03 C 1.33333 km/h
2193 29-09-2019 08:00:00 14.95833 C 10.59 g/m*3 14.96 C 5.75833 km/h
2194 29-09-2019 09:00:00 16.53333 C 10.83 g/m*3 16.53 C 13.69167 km/h
2195 29-09-2019 10:00:00 17.45833 C 10.94 g/m*3 17.46 C 19.175 km/h
2196 29-09-2019 11:00:00 17.74167 C 11 g/m*3 17.74 C 17.84167 km/h
2197 29-09-2019 12:00:00 18.25833 C 11.19 g/m*3 18.26 C 17.16667 km/h
2198 29-09-2019 13:00:00 18.1 C 11.15 g/m*3 18.1 C 13.03333 km/h
2199 29-09-2019 14:00:00 18.61667 C 10.9 g/m*3 18.62 C 21.325 km/h
2200 29-09-2019 15:00:00 18.21667 C 11.38 g/m*3 18.22 C 17.44167 km/h
Sensor: Nr:Datum:Temp:Abs-Feuchte:Windchill:Wind:
Aussen-T/F 2201 29-09-2019 16:00:00 17.10833 C 11.91 g/m*3 17.11 C 13.025 km/h
2202 29-09-2019 17:00:00 17 C 11.93 g/m*3 17 C 12.35833 km/h
2203 29-09-2019 18:00:00 17.5 C 12.36 g/m*3 17.5 C 12.1 km/h
2204 29-09-2019 19:00:00 17.70833 C 12.54 g/m*3 17.71 C 15.56667 km/h
2205 29-09-2019 20:00:00 17.275 C 12.96 g/m*3 17.27 C 5.9 km/h
2206 29-09-2019 21:00:00 16.79167 C 13.17 g/m*3 16.79 C 5.63333 km/h
2207 29-09-2019 22:00:00 16.91667 C 13.29 g/m*3 16.92 C 12.08333 km/h
2208 29-09-2019 23:00:00 16.61667 C 13 g/m*3 16.62 C 14.49167 km/h
2209 30-09-2019 00:00:00 15.65 C 11.66 g/m*3 15.65 C 18.11667 km/h
2210 30-09-2019 01:00:00 15.34167 C 11.27 g/m*3 15.34 C 18.225 km/h
2211 30-09-2019 02:00:00 15.15833 C 11.2 g/m*3 15.16 C 17.03333 km/h
2212 30-09-2019 03:00:00 15.25833 C 11.31 g/m*3 15.26 C 15.3 km/h
2213 30-09-2019 04:00:00 15.04167 C 11.38 g/m*3 15.04 C 11.95 km/h
2214 30-09-2019 05:00:00 13.75833 C 10.95 g/m*3 13.76 C 9.925 km/h
2215 30-09-2019 06:00:00 13.19167 C 10.65 g/m*3 13.19 C 9.93333 km/h
2216 30-09-2019 07:00:00 13.08333 C 10.34 g/m*3 13.08 C 10.08333 km/h
2217 30-09-2019 08:00:00 13.29167 C 10.07 g/m*3 13.29 C 12.1 km/h
2218 30-09-2019 09:00:00 13.94167 C 10 g/m*3 13.94 C 13.3 km/h
2219 30-09-2019 10:00:00 14.45 C 10.08 g/m*3 14.45 C 14.5 km/h
2220 30-09-2019 11:00:00 15.13333 C 10.09 g/m*3 15.13 C 15.16667 km/h
2221 30-09-2019 12:00:00 15.71667 C 9.81 g/m*3 15.72 C 16.76667 km/h
2222 30-09-2019 13:00:00 16.40833 C 9.68 g/m*3 16.41 C 15.56667 km/h
2223 30-09-2019 14:00:00 17.10833 C 9.71 g/m*3 17.11 C 14.23333 km/h
2224 30-09-2019 15:00:00 17.75833 C 9.83 g/m*3 17.76 C 14.63333 km/h
2225 30-09-2019 16:00:00 18.45833 C 9.85 g/m*3 18.46 C 14.36667 km/h
Sensor: Nr:Datum:Temp:Abs-Feuchte:Windchill:Wind:
Aussen-T/F 2226 30-09-2019 17:00:00 18.45 C 9.54 g/m*3 18.45 C 12.1 km/h
2227 30-09-2019 18:00:00 17.69167 C 10.24 g/m*3 17.69 C 3.34167 km/h
2228 30-09-2019 19:00:00 14.83333 C 10.22 g/m*3 14.83 C 0.4 km/h
2229 30-09-2019 20:00:00 14.20833 C 10.42 g/m*3 14.21 C 3.34167 km/h
2230 30-09-2019 21:00:00 14.69167 C 10.71 g/m*3 14.69 C 3.74167 km/h
2231 30-09-2019 22:00:00 14.68333 C 10.7 g/m*3 14.68 C 3.6 km/h
2232 30-09-2019 23:00:00 14.23333 C 10.44 g/m*3 14.23 C 1.06667 km/h
2233 01-10-2019 00:00:00 14.33333 C 10.41 g/m*3 14.33 C 0.4 km/h
2234 01-10-2019 01:00:00 14.025 C 10.47 g/m*3 14.03 C 1.2 km/h
2235 01-10-2019 02:00:00 13.60833 C 10.24 g/m*3 13.61 C 0 km/h
2236 01-10-2019 03:00:00 12.65 C 9.88 g/m*3 12.65 C 0 km/h
2237 01-10-2019 04:00:00 13.275 C 10.3 g/m*3 13.28 C 3.48333 km/h
2238 01-10-2019 05:00:00 14.40833 C 10.55 g/m*3 14.41 C 7.8 km/h
2239 01-10-2019 06:00:00 15.00833 C 10.98 g/m*3 15.01 C 11.55833 km/h
2240 01-10-2019 07:00:00 15.375 C 11.38 g/m*3 15.38 C 15.56667 km/h
2241 01-10-2019 08:00:00 15.5 C 11.54 g/m*3 15.5 C 14.1 km/h
2242 01-10-2019 09:00:00 16.125 C 11.82 g/m*3 16.13 C 13.7 km/h
2243 01-10-2019 10:00:00 17.09167 C 12.35 g/m*3 17.09 C 14.9 km/h
2244 01-10-2019 11:00:00 17.53333 C 12.69 g/m*3 17.53 C 14.63333 km/h
2245 01-10-2019 12:00:00 17.36667 C 13.11 g/m*3 17.37 C 12.225 km/h
2246 01-10-2019 13:00:00 18.575 C 12.46 g/m*3 18.58 C 9.41667 km/h
2247 01-10-2019 14:00:00 18.35833 C 13.01 g/m*3 18.36 C 8.34167 km/h
2248 01-10-2019 15:00:00 19.08333 C 13.57 g/m*3 19.08 C 11.425 km/h
2249 01-10-2019 16:00:00 18.26667 C 13.78 g/m*3 18.27 C 5.775 km/h
2250 01-10-2019 17:00:00 17.6 C 13.95 g/m*3 17.6 C 0.66667 km/h
Sensor: Nr:Datum:Temp:Abs-Feuchte:Windchill:Wind:
Aussen-T/F 2251 01-10-2019 18:00:00 16.725 C 13.21 g/m*3 16.73 C 1.2 km/h
2252 01-10-2019 19:00:00 16.19167 C 12.98 g/m*3 16.19 C 0 km/h
2253 01-10-2019 20:00:00 15.875 C 12.82 g/m*3 15.88 C 0.66667 km/h
2254 01-10-2019 21:00:00 15.85 C 12.85 g/m*3 15.85 C 1.46667 km/h
2255 01-10-2019 22:00:00 15.5 C 12.56 g/m*3 15.5 C 1.60833 km/h
2256 01-10-2019 23:00:00 15.225 C 12.35 g/m*3 15.23 C 3.06667 km/h
2257 02-10-2019 00:00:00 15.15833 C 12.3 g/m*3 15.16 C 3.35833 km/h
2258 02-10-2019 01:00:00 15.20833 C 12.24 g/m*3 15.21 C 4.14167 km/h
2259 02-10-2019 02:00:00 14.975 C 12 g/m*3 14.98 C 1.2 km/h
2260 02-10-2019 03:00:00 14.95833 C 11.96 g/m*3 14.96 C 7.26667 km/h
2261 02-10-2019 04:00:00 15.08333 C 11.86 g/m*3 15.08 C 4.55 km/h
2262 02-10-2019 05:00:00 14.69167 C 11.66 g/m*3 14.69 C 3.48333 km/h
2263 02-10-2019 06:00:00 13.59167 C 10.82 g/m*3 13.59 C 10.2 km/h
2264 02-10-2019 07:00:00 11.80833 C 9.71 g/m*3 11.81 C 11.3 km/h
2265 02-10-2019 08:00:00 10.74167 C 9.16 g/m*3 9.02 C 13.43333 km/h
2266 02-10-2019 09:00:00 10.46667 C 8.8 g/m*3 9.65 C 7.51667 km/h
2267 02-10-2019 10:00:00 10.86667 C 8.73 g/m*3 10.04 C 7.91667 km/h
2268 02-10-2019 11:00:00 11.33333 C 8.56 g/m*3 11.33 C 11.01667 km/h
2269 02-10-2019 12:00:00 11.86667 C 8.52 g/m*3 11.87 C 9.125 km/h
2270 02-10-2019 13:00:00 12.65833 C 8.48 g/m*3 12.66 C 9.54167 km/h
2271 02-10-2019 14:00:00 13.49167 C 8.19 g/m*3 13.49 C 9.55833 km/h
2272 02-10-2019 15:00:00 13.66667 C 7.87 g/m*3 13.67 C 11.825 km/h
2273 02-10-2019 16:00:00 13.8 C 7.37 g/m*3 13.8 C 14.1 km/h
2274 02-10-2019 17:00:00 14.26667 C 7.55 g/m*3 14.27 C 12.21667 km/h
2275 02-10-2019 18:00:00 12.9 C 7.68 g/m*3 12.9 C 10.89167 km/h
Sensor: Nr:Datum:Temp:Abs-Feuchte:Windchill:Wind:
Aussen-T/F 2276 02-10-2019 19:00:00 11.325 C 7.61 g/m*3 11.33 C 5.76667 km/h
2277 02-10-2019 20:00:00 10.04167 C 7.5 g/m*3 10.04 C 4.825 km/h
2278 02-10-2019 21:00:00 9.875 C 7.51 g/m*3 9.88 C 3.20833 km/h
2279 02-10-2019 22:00:00 8.61667 C 7.37 g/m*3 8.62 C 0.66667 km/h
2280 02-10-2019 23:00:00 8.48333 C 7.43 g/m*3 8.48 C 3.875 km/h
2281 03-10-2019 00:00:00 9.33333 C 7.66 g/m*3 9.33 C 4.41667 km/h
2282 03-10-2019 01:00:00 9.25833 C 7.75 g/m*3 9.26 C 4.68333 km/h
2283 03-10-2019 02:00:00 9.21667 C 7.73 g/m*3 9.22 C 3.73333 km/h
2284 03-10-2019 03:00:00 8.525 C 7.52 g/m*3 8.53 C 1.86667 km/h
2285 03-10-2019 04:00:00 7.63333 C 7.29 g/m*3 7.63 C 1.33333 km/h
2286 03-10-2019 05:00:00 7.94167 C 7.49 g/m*3 7.94 C 4.41667 km/h
2287 03-10-2019 06:00:00 7.45 C 7.26 g/m*3 7.45 C 1.2 km/h
2288 03-10-2019 07:00:00 7.2 C 7.29 g/m*3 7.2 C 1.6 km/h
2289 03-10-2019 08:00:00 7.74167 C 7.49 g/m*3 7.74 C 4.96667 km/h
2290 03-10-2019 09:00:00 9.34167 C 7.9 g/m*3 8.53 C 6.70833 km/h
2291 03-10-2019 10:00:00 10.36667 C 8.23 g/m*3 9.45 C 7.925 km/h
2292 03-10-2019 11:00:00 12.23333 C 8.75 g/m*3 12.23 C 8.725 km/h
2293 03-10-2019 12:00:00 12.55833 C 9.02 g/m*3 12.56 C 6.16667 km/h
2294 03-10-2019 13:00:00 12.225 C 9.57 g/m*3 12.23 C 0.13333 km/h
2295 03-10-2019 14:00:00 11.68333 C 9.65 g/m*3 11.68 C 0.8 km/h
2296 03-10-2019 15:00:00 11.88333 C 10.01 g/m*3 11.88 C 0.8 km/h
2297 03-10-2019 16:00:00 12.15833 C 10.02 g/m*3 12.16 C 2.41667 km/h
2298 03-10-2019 17:00:00 11.75833 C 9.81 g/m*3 11.76 C 0 km/h
2299 03-10-2019 18:00:00 10.81667 C 9.3 g/m*3 10.82 C 1.06667 km/h
2300 03-10-2019 19:00:00 9.90833 C 8.84 g/m*3 9.91 C 0.8 km/h
Sensor: Nr:Datum:Temp:Abs-Feuchte:Windchill:Wind:
Aussen-T/F 2301 03-10-2019 20:00:00 9.36667 C 8.58 g/m*3 9.37 C 0 km/h
2302 03-10-2019 21:00:00 9.00833 C 8.45 g/m*3 9.01 C 0 km/h
2303 03-10-2019 22:00:00 8.625 C 8.26 g/m*3 8.63 C 0 km/h
2304 03-10-2019 23:00:00 8.375 C 8.13 g/m*3 8.38 C 0 km/h
2305 04-10-2019 00:00:00 8.38333 C 8.14 g/m*3 8.38 C 0 km/h
2306 04-10-2019 01:00:00 8.21667 C 8.07 g/m*3 8.22 C 0.13333 km/h
2307 04-10-2019 02:00:00 8.19167 C 8.08 g/m*3 8.19 C 0 km/h
2308 04-10-2019 03:00:00 8.05833 C 8.04 g/m*3 8.06 C 0 km/h
2309 04-10-2019 04:00:00 7.71667 C 7.86 g/m*3 7.72 C 0 km/h
2310 04-10-2019 05:00:00 7.90833 C 7.97 g/m*3 7.91 C 0 km/h
2311 04-10-2019 06:00:00 7.96667 C 8 g/m*3 7.97 C 0.93333 km/h
2312 04-10-2019 07:00:00 8.13333 C 8.09 g/m*3 8.13 C 2.68333 km/h
2313 04-10-2019 08:00:00 8.45833 C 8.26 g/m*3 8.46 C 1.06667 km/h
2314 04-10-2019 09:00:00 8.70833 C 8.39 g/m*3 8.71 C 0.8 km/h
2315 04-10-2019 10:00:00 9.125 C 8.61 g/m*3 9.13 C 3.875 km/h
2316 04-10-2019 11:00:00 9.75833 C 8.88 g/m*3 9.26 C 5.75833 km/h
2317 04-10-2019 12:00:00 10.65 C 9.33 g/m*3 10.65 C 3.06667 km/h
2318 04-10-2019 13:00:00 11.25833 C 9.61 g/m*3 11.26 C 2 km/h
2319 04-10-2019 14:00:00 13.03333 C 10.33 g/m*3 13.03 C 7.53333 km/h
2320 04-10-2019 15:00:00 13.81667 C 10.48 g/m*3 13.82 C 6.98333 km/h
2321 04-10-2019 16:00:00 14.05833 C 10.83 g/m*3 14.06 C 1.875 km/h
2322 04-10-2019 17:00:00 13.36667 C 10.78 g/m*3 13.37 C 2.13333 km/h
2323 04-10-2019 18:00:00 12.35833 C 10.26 g/m*3 12.36 C 1.46667 km/h
2324 04-10-2019 19:00:00 11.70833 C 9.98 g/m*3 11.71 C 1.06667 km/h
2325 04-10-2019 20:00:00 11.63333 C 10 g/m*3 11.63 C 2.53333 km/h
Sensor: Nr:Datum:Temp:Abs-Feuchte:Windchill:Wind:
Aussen-T/F 2326 04-10-2019 21:00:00 11.65833 C 10.01 g/m*3 11.66 C 5.775 km/h
2327 04-10-2019 22:00:00 11.69167 C 9.97 g/m*3 11.69 C 4.29167 km/h
2328 04-10-2019 23:00:00 11.71667 C 9.99 g/m*3 11.72 C 5.9 km/h
2329 05-10-2019 00:00:00 11.96667 C 9.86 g/m*3 11.97 C 7.10833 km/h
2330 05-10-2019 01:00:00 12.09167 C 9.86 g/m*3 12.09 C 6.85833 km/h
2331 05-10-2019 02:00:00 12.225 C 9.8 g/m*3 12.23 C 7.64167 km/h
2332 05-10-2019 03:00:00 12.3 C 9.94 g/m*3 12.3 C 3.20833 km/h
2333 05-10-2019 04:00:00 11.55 C 9.64 g/m*3 11.55 C 5.90833 km/h
2334 05-10-2019 05:00:00 10.75833 C 9.21 g/m*3 10.24 C 6.44167 km/h
2335 05-10-2019 06:00:00 10.20833 C 8.93 g/m*3 10.21 C 2.275 km/h
2336 05-10-2019 07:00:00 9.98333 C 8.77 g/m*3 9.98 C 3.6 km/h
2337 05-10-2019 08:00:00 9.81667 C 8.54 g/m*3 9.82 C 2.26667 km/h
2338 05-10-2019 09:00:00 10.18333 C 8.62 g/m*3 10.18 C 4.94167 km/h
2339 05-10-2019 10:00:00 10.55833 C 8.61 g/m*3 9.6 C 8.325 km/h
2340 05-10-2019 11:00:00 10.70833 C 8.11 g/m*3 9.72 C 8.60833 km/h
2341 05-10-2019 12:00:00 11.2 C 8.17 g/m*3 11.2 C 6.575 km/h
2342 05-10-2019 13:00:00 11.9 C 8.22 g/m*3 11.9 C 4.26667 km/h
2343 05-10-2019 14:00:00 11.89167 C 8.27 g/m*3 11.89 C 2.40833 km/h
2344 05-10-2019 15:00:00 12.23333 C 8.36 g/m*3 12.23 C 0.93333 km/h
2345 05-10-2019 16:00:00 12.3 C 8.75 g/m*3 12.3 C 0.66667 km/h
2346 05-10-2019 17:00:00 12.06667 C 9 g/m*3 12.07 C 0.13333 km/h
2347 05-10-2019 18:00:00 11.125 C 8.64 g/m*3 11.13 C 0 km/h
2348 05-10-2019 19:00:00 9.50833 C 7.87 g/m*3 9.51 C 0.4 km/h
2349 05-10-2019 20:00:00 8.35833 C 7.46 g/m*3 8.36 C 1.33333 km/h
2350 05-10-2019 21:00:00 7.875 C 7.44 g/m*3 7.88 C 0 km/h
Sensor: Nr:Datum:Temp:Abs-Feuchte:Windchill:Wind:
Aussen-T/F 2351 05-10-2019 22:00:00 7.43333 C 7.44 g/m*3 7.43 C 0 km/h
2352 05-10-2019 23:00:00 7.35 C 7.45 g/m*3 7.35 C 0 km/h
2353 06-10-2019 00:00:00 7.13333 C 7.36 g/m*3 7.13 C 0 km/h
2354 06-10-2019 01:00:00 6.55 C 7.11 g/m*3 6.55 C 0 km/h
2355 06-10-2019 02:00:00 6.7 C 7.26 g/m*3 6.7 C 0 km/h
2356 06-10-2019 03:00:00 7.05833 C 7.47 g/m*3 7.06 C 0 km/h
2357 06-10-2019 04:00:00 7.2 C 7.54 g/m*3 7.2 C 0 km/h
2358 06-10-2019 05:00:00 7.18333 C 7.53 g/m*3 7.18 C 0 km/h
2359 06-10-2019 06:00:00 7.38333 C 7.63 g/m*3 7.38 C 0 km/h
2360 06-10-2019 07:00:00 7.65833 C 7.76 g/m*3 7.66 C 0 km/h
2361 06-10-2019 08:00:00 7.84167 C 7.86 g/m*3 7.84 C 0 km/h
2362 06-10-2019 09:00:00 8.31667 C 8.1 g/m*3 8.32 C 0 km/h
2363 06-10-2019 10:00:00 8.63333 C 8.22 g/m*3 8.63 C 0.8 km/h
2364 06-10-2019 11:00:00 8.55833 C 8.21 g/m*3 8.56 C 3.6 km/h
2365 06-10-2019 12:00:00 8.78333 C 8.35 g/m*3 8.78 C 0.26667 km/h
2366 06-10-2019 13:00:00 9.06667 C 8.5 g/m*3 9.07 C 0.66667 km/h
2367 06-10-2019 14:00:00 9.25 C 8.6 g/m*3 9.25 C 1.06667 km/h
2368 06-10-2019 15:00:00 9.45833 C 8.72 g/m*3 9.46 C 0.53333 km/h
2369 06-10-2019 16:00:00 9.61667 C 8.8 g/m*3 9.62 C 1.86667 km/h
2370 06-10-2019 17:00:00 9.51667 C 8.75 g/m*3 9.52 C 0.53333 km/h
2371 06-10-2019 18:00:00 9.325 C 8.64 g/m*3 9.32 C 3.225 km/h
2372 06-10-2019 19:00:00 9.15 C 8.57 g/m*3 9.15 C 3.60833 km/h
2373 06-10-2019 20:00:00 9.1 C 8.61 g/m*3 9.1 C 0.4 km/h
2374 06-10-2019 21:00:00 9.04167 C 8.57 g/m*3 9.04 C 1.74167 km/h
2375 06-10-2019 22:00:00 8.81667 C 8.45 g/m*3 8.82 C 1.875 km/h
Sensor: Nr:Datum:Temp:Abs-Feuchte:Windchill:Wind:
Aussen-T/F 2376 06-10-2019 23:00:00 8.83333 C 8.46 g/m*3 8.83 C 0 km/h
2377 07-10-2019 00:00:00 8.9 C 8.5 g/m*3 8.9 C 0.26667 km/h
2378 07-10-2019 01:00:00 8.725 C 8.4 g/m*3 8.73 C 2.95 km/h
2379 07-10-2019 02:00:00 8.69167 C 8.38 g/m*3 8.69 C 0.13333 km/h
2380 07-10-2019 03:00:00 8.60833 C 8.34 g/m*3 8.61 C 1.33333 km/h
2381 07-10-2019 04:00:00 8.7 C 8.39 g/m*3 8.7 C 0 km/h
2382 07-10-2019 05:00:00 8.64167 C 8.36 g/m*3 8.64 C 1.86667 km/h
2383 07-10-2019 06:00:00 8.6 C 8.34 g/m*3 8.6 C 0.13333 km/h
2384 07-10-2019 07:00:00 8.6 C 8.34 g/m*3 8.6 C 0 km/h
2385 07-10-2019 08:00:00 8.66667 C 8.37 g/m*3 8.67 C 0 km/h
2386 07-10-2019 09:00:00 8.83333 C 8.46 g/m*3 8.83 C 0.26667 km/h
2387 07-10-2019 10:00:00 9.08333 C 8.6 g/m*3 9.08 C 1.06667 km/h
2388 07-10-2019 11:00:00 9.65 C 8.88 g/m*3 9.65 C 3.34167 km/h
2389 07-10-2019 12:00:00 10.51667 C 9.05 g/m*3 10.52 C 2.4 km/h
2390 07-10-2019 13:00:00 10.84167 C 9 g/m*3 10.84 C 2.675 km/h
2391 07-10-2019 14:00:00 11.46667 C 9.1 g/m*3 11.47 C 5.89167 km/h
2392 07-10-2019 15:00:00 12.225 C 9.43 g/m*3 12.23 C 1.86667 km/h
2393 07-10-2019 16:00:00 12.29167 C 9.53 g/m*3 12.29 C 1.33333 km/h
2394 07-10-2019 17:00:00 12.3 C 9.56 g/m*3 12.3 C 2.4 km/h
2395 07-10-2019 18:00:00 11.86667 C 9.56 g/m*3 11.87 C 0.53333 km/h
2396 07-10-2019 19:00:00 11.09167 C 9.35 g/m*3 11.09 C 0 km/h
2397 07-10-2019 20:00:00 10.725 C 9.32 g/m*3 10.73 C 0 km/h
2398 07-10-2019 21:00:00 10.975 C 9.58 g/m*3 10.98 C 0 km/h
2399 07-10-2019 22:00:00 11.1 C 9.67 g/m*3 11.1 C 0.26667 km/h
2400 07-10-2019 23:00:00 11.1 C 9.67 g/m*3 11.1 C 0.26667 km/h
Sensor: Nr:Datum:Temp:Abs-Feuchte:Windchill:Wind:
Aussen-T/F 2401 08-10-2019 00:00:00 11.11667 C 9.75 g/m*3 11.12 C 0.53333 km/h
2402 08-10-2019 01:00:00 11.25 C 9.79 g/m*3 11.25 C 1.33333 km/h
2403 08-10-2019 02:00:00 11.44167 C 9.88 g/m*3 11.44 C 0.93333 km/h
2404 08-10-2019 03:00:00 11.75833 C 10.05 g/m*3 11.76 C 3.75833 km/h
2405 08-10-2019 04:00:00 11.9 C 10.03 g/m*3 11.9 C 3.61667 km/h
2406 08-10-2019 05:00:00 12.31667 C 10 g/m*3 12.32 C 8.46667 km/h
2407 08-10-2019 06:00:00 12.18333 C 9.96 g/m*3 12.18 C 4.3 km/h
2408 08-10-2019 07:00:00 11.79167 C 9.97 g/m*3 11.79 C 2.53333 km/h
2409 08-10-2019 08:00:00 11.825 C 10.1 g/m*3 11.83 C 5.775 km/h
2410 08-10-2019 09:00:00 12.03333 C 10.25 g/m*3 12.03 C 10.05833 km/h
2411 08-10-2019 10:00:00 12.49167 C 10.45 g/m*3 12.49 C 12.76667 km/h
2412 08-10-2019 11:00:00 13.5 C 10.89 g/m*3 13.5 C 13.7 km/h
2413 08-10-2019 12:00:00 13.85833 C 10.95 g/m*3 13.86 C 14.36667 km/h
2414 08-10-2019 13:00:00 14.225 C 11.19 g/m*3 14.23 C 9.93333 km/h
2415 08-10-2019 14:00:00 14.6 C 11.43 g/m*3 14.6 C 10.075 km/h
2416 08-10-2019 15:00:00 14.48333 C 11.47 g/m*3 14.48 C 9.55 km/h
2417 08-10-2019 16:00:00 14.225 C 11.56 g/m*3 14.23 C 6.70833 km/h
2418 08-10-2019 17:00:00 14.05833 C 11.55 g/m*3 14.06 C 3.61667 km/h
2419 08-10-2019 18:00:00 13.86667 C 11.49 g/m*3 13.87 C 3.09167 km/h
2420 08-10-2019 19:00:00 13.79167 C 11.43 g/m*3 13.79 C 1.875 km/h
2421 08-10-2019 20:00:00 13.55 C 11.3 g/m*3 13.55 C 0.53333 km/h
2422 08-10-2019 21:00:00 13.225 C 11.14 g/m*3 13.23 C 0.13333 km/h
2423 08-10-2019 22:00:00 12.825 C 10.88 g/m*3 12.83 C 0 km/h
2424 08-10-2019 23:00:00 11.68333 C 10.05 g/m*3 11.68 C 0.53333 km/h
2425 09-10-2019 00:00:00 10.78333 C 9.56 g/m*3 10.78 C 0.13333 km/h
Sensor: Nr:Datum:Temp:Abs-Feuchte:Windchill:Wind:
Aussen-T/F 2426 09-10-2019 01:00:00 10.34167 C 9.31 g/m*3 10.34 C 0.13333 km/h
2427 09-10-2019 02:00:00 10.35 C 9.33 g/m*3 10.35 C 1.2 km/h
2428 09-10-2019 03:00:00 10.625 C 9.52 g/m*3 10.63 C 3.35833 km/h
2429 09-10-2019 04:00:00 10.98333 C 9.72 g/m*3 10.77 C 5.36667 km/h
2430 09-10-2019 05:00:00 10.79167 C 9.58 g/m*3 10.59 C 5.225 km/h
2431 09-10-2019 06:00:00 10.925 C 9.66 g/m*3 10.37 C 6.69167 km/h
2432 09-10-2019 07:00:00 10.64167 C 9.4 g/m*3 10.64 C 4.54167 km/h
2433 09-10-2019 08:00:00 10.73333 C 9.48 g/m*3 10.73 C 4.95833 km/h
2434 09-10-2019 09:00:00 11.2 C 9.76 g/m*3 11.2 C 5.36667 km/h
2435 09-10-2019 10:00:00 12.55 C 10.19 g/m*3 12.55 C 7.38333 km/h
2436 09-10-2019 11:00:00 13.55833 C 10.43 g/m*3 13.56 C 3.46667 km/h
2437 09-10-2019 12:00:00 13.90833 C 10.64 g/m*3 13.91 C 5.225 km/h
2438 09-10-2019 13:00:00 13.59167 C 10.87 g/m*3 13.59 C 1.34167 km/h
2439 09-10-2019 14:00:00 12.925 C 10.43 g/m*3 12.93 C 3.74167 km/h
2440 09-10-2019 15:00:00 12.28333 C 10.09 g/m*3 12.28 C 9.01667 km/h
2441 09-10-2019 16:00:00 12.775 C 10.02 g/m*3 12.78 C 8.86667 km/h
2442 09-10-2019 17:00:00 12.975 C 9.81 g/m*3 12.98 C 10.20833 km/h
2443 09-10-2019 18:00:00 12.525 C 9.54 g/m*3 12.53 C 11.28333 km/h
2444 09-10-2019 19:00:00 11.84167 C 9.37 g/m*3 11.84 C 9.675 km/h
2445 09-10-2019 20:00:00 11.20833 C 9.09 g/m*3 11.21 C 6.3 km/h
2446 09-10-2019 21:00:00 11.06667 C 9.07 g/m*3 11.07 C 8.2 km/h
2447 09-10-2019 22:00:00 11.10833 C 8.69 g/m*3 11.11 C 14.23333 km/h
2448 09-10-2019 23:00:00 10.8 C 8.53 g/m*3 9.33 C 11.7 km/h
2449 10-10-2019 00:00:00 10.375 C 8.45 g/m*3 8.64 C 12.89167 km/h
2450 10-10-2019 01:00:00 10.15833 C 8.49 g/m*3 9.61 C 6.15833 km/h
Sensor: Nr:Datum:Temp:Abs-Feuchte:Windchill:Wind:
Aussen-T/F 2451 10-10-2019 02:00:00 10.39167 C 8.71 g/m*3 10.39 C 4.825 km/h
2452 10-10-2019 03:00:00 10.68333 C 8.93 g/m*3 10.68 C 4.81667 km/h
2453 10-10-2019 04:00:00 10.56667 C 8.95 g/m*3 9.64 C 8.18333 km/h
2454 10-10-2019 05:00:00 10.40833 C 9.02 g/m*3 10.41 C 3.2 km/h
2455 10-10-2019 06:00:00 10.44167 C 9.05 g/m*3 10.11 C 5.49167 km/h
2456 10-10-2019 07:00:00 10.09167 C 8.79 g/m*3 9.37 C 6.84167 km/h
2457 10-10-2019 08:00:00 9.81667 C 8.56 g/m*3 8.93 C 7.375 km/h
2458 10-10-2019 09:00:00 10.675 C 8.79 g/m*3 9.59 C 9.13333 km/h
2459 10-10-2019 10:00:00 11.29167 C 8.88 g/m*3 11.29 C 11.825 km/h
2460 10-10-2019 11:00:00 12.33333 C 9.13 g/m*3 12.33 C 12.89167 km/h
2461 10-10-2019 12:00:00 13.35 C 9.1 g/m*3 13.35 C 14.1 km/h
2462 10-10-2019 13:00:00 14.28333 C 8.73 g/m*3 14.28 C 16.5 km/h
2463 10-10-2019 14:00:00 14.53333 C 9.12 g/m*3 14.53 C 12.20833 km/h
2464 10-10-2019 15:00:00 15.09167 C 9.33 g/m*3 15.09 C 12.76667 km/h
2465 10-10-2019 16:00:00 15.37778 C 9.32 g/m*3 15.38 C 12.01111 km/h
2466 10-10-2019 17:00:00 13.83333 C 9.62 g/m*3 13.83 C 9.675 km/h
2467 10-10-2019 18:00:00 13.18333 C 9.53 g/m*3 13.18 C 4.15 km/h
2468 10-10-2019 19:00:00 11.68333 C 9.19 g/m*3 11.68 C 3.475 km/h
2469 10-10-2019 20:00:00 11.69167 C 9.23 g/m*3 11.69 C 4.95 km/h
2470 10-10-2019 21:00:00 10.88333 C 9 g/m*3 10.88 C 0.26667 km/h
2471 10-10-2019 22:00:00 10.18333 C 8.9 g/m*3 10.18 C 0.13333 km/h
2472 10-10-2019 23:00:00 9.8 C 8.77 g/m*3 9.8 C 0.93333 km/h
2473 11-10-2019 00:00:00 9.575 C 8.73 g/m*3 9.57 C 1.06667 km/h
2474 11-10-2019 01:00:00 9.19167 C 8.52 g/m*3 9.19 C 0.8 km/h
2475 11-10-2019 02:00:00 8.83333 C 8.36 g/m*3 8.83 C 0 km/h
Sensor: Nr:Datum:Temp:Abs-Feuchte:Windchill:Wind:
Aussen-T/F 2476 11-10-2019 03:00:00 8.98333 C 8.48 g/m*3 8.98 C 1.74167 km/h
2477 11-10-2019 04:00:00 9.49167 C 8.72 g/m*3 9.49 C 3.86667 km/h
2478 11-10-2019 05:00:00 9.45833 C 8.62 g/m*3 9.46 C 2.40833 km/h
2479 11-10-2019 06:00:00 9.43333 C 8.6 g/m*3 9.43 C 0.4 km/h
2480 11-10-2019 07:00:00 9.91667 C 8.89 g/m*3 9.92 C 1.60833 km/h
2481 11-10-2019 08:00:00 10.98333 C 9.5 g/m*3 10.98 C 2.80833 km/h
2482 11-10-2019 09:00:00 12.425 C 10.21 g/m*3 12.43 C 3.21667 km/h
2483 11-10-2019 10:00:00 13.35833 C 10.58 g/m*3 13.36 C 3.34167 km/h
2484 11-10-2019 11:00:00 14.85833 C 10.83 g/m*3 14.86 C 11.68333 km/h
2485 11-10-2019 12:00:00 15.85 C 10.72 g/m*3 15.85 C 16.1 km/h
2486 11-10-2019 13:00:00 16.39167 C 10.82 g/m*3 16.39 C 11.15 km/h
2487 11-10-2019 14:00:00 16.29167 C 10.86 g/m*3 16.29 C 11.275 km/h
2488 11-10-2019 15:00:00 16.56667 C 10.9 g/m*3 16.57 C 11.03333 km/h
2489 11-10-2019 16:00:00 16.6 C 11.02 g/m*3 16.6 C 10.61667 km/h
2490 11-10-2019 17:00:00 16.66667 C 11.09 g/m*3 16.67 C 9 km/h
2491 11-10-2019 18:00:00 16.04167 C 11.1 g/m*3 16.04 C 4.03333 km/h
2492 11-10-2019 19:00:00 14.19167 C 10.81 g/m*3 14.19 C 0.4 km/h
2493 11-10-2019 20:00:00 13.55833 C 10.81 g/m*3 13.56 C 0 km/h
2494 11-10-2019 21:00:00 12.80833 C 10.44 g/m*3 12.81 C 0 km/h
2495 11-10-2019 22:00:00 12.075 C 10.11 g/m*3 12.08 C 0 km/h
2496 11-10-2019 23:00:00 11.81667 C 10.03 g/m*3 11.82 C 0 km/h
2497 12-10-2019 00:00:00 11.11667 C 9.59 g/m*3 11.12 C 0 km/h
2498 12-10-2019 01:00:00 10.63333 C 9.39 g/m*3 10.63 C 0 km/h
2499 12-10-2019 02:00:00 10.30833 C 9.2 g/m*3 10.31 C 0.13333 km/h
2500 12-10-2019 03:00:00 9.95833 C 9 g/m*3 9.96 C 0 km/h
Sensor: Nr:Datum:Temp:Abs-Feuchte:Windchill:Wind:
Aussen-T/F 2501 12-10-2019 04:00:00 10.01667 C 9.12 g/m*3 10.02 C 0 km/h
2502 12-10-2019 05:00:00 9.58333 C 8.84 g/m*3 9.58 C 0 km/h
2503 12-10-2019 06:00:00 8.89167 C 8.49 g/m*3 8.89 C 0 km/h
2504 12-10-2019 07:00:00 8.74167 C 8.41 g/m*3 8.74 C 0 km/h
2505 12-10-2019 08:00:00 8.86667 C 8.48 g/m*3 8.87 C 0 km/h
2506 12-10-2019 09:00:00 9.28333 C 8.73 g/m*3 9.28 C 0.93333 km/h
2507 12-10-2019 10:00:00 11.75 C 10.28 g/m*3 11.75 C 5.225 km/h
2508 12-10-2019 11:00:00 14.25 C 11.36 g/m*3 14.25 C 9.80833 km/h
2509 12-10-2019 12:00:00 16.45 C 11.47 g/m*3 16.45 C 7.79167 km/h
2510 12-10-2019 13:00:00 17.975 C 11.63 g/m*3 17.98 C 11.825 km/h
2511 12-10-2019 14:00:00 19.40833 C 11.8 g/m*3 19.41 C 13.56667 km/h
2512 12-10-2019 15:00:00 19.93333 C 11.86 g/m*3 19.93 C 14.76667 km/h
2513 12-10-2019 16:00:00 19.6 C 12.11 g/m*3 19.6 C 13.7 km/h
2514 12-10-2019 17:00:00 18.85 C 12.1 g/m*3 18.85 C 9.26667 km/h
2515 12-10-2019 18:00:00 17.225 C 12.21 g/m*3 17.23 C 0.26667 km/h
2516 12-10-2019 19:00:00 15.61667 C 11.8 g/m*3 15.62 C 0 km/h
2517 12-10-2019 20:00:00 14.93333 C 11.5 g/m*3 14.93 C 0 km/h
2518 12-10-2019 21:00:00 14.51667 C 11.56 g/m*3 14.52 C 1.6 km/h
2519 12-10-2019 22:00:00 14.925 C 11.72 g/m*3 14.93 C 0.26667 km/h
2520 12-10-2019 23:00:00 14.375 C 11.54 g/m*3 14.38 C 0 km/h
2521 13-10-2019 00:00:00 13.65 C 11.13 g/m*3 13.65 C 0.13333 km/h
2522 13-10-2019 01:00:00 13.11667 C 10.87 g/m*3 13.12 C 0 km/h
2523 13-10-2019 02:00:00 13.30833 C 11.14 g/m*3 13.31 C 0 km/h
2524 13-10-2019 03:00:00 13.40833 C 11.18 g/m*3 13.41 C 0 km/h
2525 13-10-2019 04:00:00 13 C 10.94 g/m*3 13 C 0.26667 km/h
Sensor: Nr:Datum:Temp:Abs-Feuchte:Windchill:Wind:
Aussen-T/F 2526 13-10-2019 05:00:00 13.54167 C 11.37 g/m*3 13.54 C 0 km/h
2527 13-10-2019 06:00:00 13.79167 C 11.55 g/m*3 13.79 C 0 km/h
2528 13-10-2019 07:00:00 13.76667 C 11.53 g/m*3 13.77 C 0 km/h
2529 13-10-2019 08:00:00 13.11667 C 11.08 g/m*3 13.12 C 0.4 km/h
2530 13-10-2019 09:00:00 13.46667 C 11.38 g/m*3 13.47 C 0 km/h
2531 13-10-2019 10:00:00 14.23333 C 11.98 g/m*3 14.23 C 0 km/h
2532 13-10-2019 11:00:00 15.63333 C 13.06 g/m*3 15.63 C 1.2 km/h
2533 13-10-2019 12:00:00 17.325 C 14.43 g/m*3 17.33 C 2.14167 km/h
2534 13-10-2019 13:00:00 19.45833 C 15.3 g/m*3 19.46 C 2.00833 km/h
2535 13-10-2019 14:00:00 21.65833 C 14.76 g/m*3 21.66 C 4.54167 km/h
2536 13-10-2019 15:00:00 22.03333 C 14.76 g/m*3 22.03 C 4.025 km/h
2537 13-10-2019 16:00:00 21.96667 C 14.92 g/m*3 21.97 C 2.54167 km/h
2538 13-10-2019 17:00:00 21.125 C 14.87 g/m*3 21.13 C 0.93333 km/h
2539 13-10-2019 18:00:00 19.51667 C 14.41 g/m*3 19.52 C 0.8 km/h
2540 13-10-2019 19:00:00 18.45 C 13.93 g/m*3 18.45 C 0.4 km/h
2541 13-10-2019 20:00:00 18.11667 C 13.66 g/m*3 18.12 C 0.26667 km/h
2542 13-10-2019 21:00:00 17.41667 C 13.24 g/m*3 17.42 C 0.26667 km/h
2543 13-10-2019 22:00:00 17.06667 C 12.86 g/m*3 17.07 C 0.13333 km/h
2544 13-10-2019 23:00:00 16.56667 C 12.52 g/m*3 16.57 C 0.26667 km/h
2545 14-10-2019 00:00:00 15.825 C 12.14 g/m*3 15.83 C 0 km/h
2546 14-10-2019 01:00:00 15.41667 C 11.97 g/m*3 15.42 C 0 km/h
2547 14-10-2019 02:00:00 14.91667 C 11.73 g/m*3 14.92 C 0 km/h
2548 14-10-2019 03:00:00 14.14167 C 11.33 g/m*3 14.14 C 0.26667 km/h
2549 14-10-2019 04:00:00 13.45833 C 11 g/m*3 13.46 C 0 km/h
2550 14-10-2019 05:00:00 13.36667 C 11.08 g/m*3 13.37 C 0.26667 km/h
Sensor: Nr:Datum:Temp:Abs-Feuchte:Windchill:Wind:
Aussen-T/F 2551 14-10-2019 06:00:00 12.9 C 10.73 g/m*3 12.9 C 0 km/h
2552 14-10-2019 07:00:00 12.75 C 10.7 g/m*3 12.75 C 1.2 km/h
2553 14-10-2019 08:00:00 12.88333 C 10.81 g/m*3 12.88 C 0 km/h
2554 14-10-2019 09:00:00 13.24167 C 11.07 g/m*3 13.24 C 0 km/h
2555 14-10-2019 10:00:00 13.64167 C 11.39 g/m*3 13.64 C 0 km/h
2556 14-10-2019 11:00:00 14.90833 C 12.37 g/m*3 14.91 C 0 km/h
2557 14-10-2019 12:00:00 16.49167 C 13.51 g/m*3 16.49 C 0 km/h
2558 14-10-2019 13:00:00 18.55833 C 14.17 g/m*3 18.56 C 1.73333 km/h
2559 14-10-2019 14:00:00 21.1 C 14.13 g/m*3 21.1 C 3.75 km/h
2560 14-10-2019 15:00:00 21.11667 C 13.92 g/m*3 21.12 C 2.675 km/h
2561 14-10-2019 16:00:00 20.775 C 13.38 g/m*3 20.78 C 2.81667 km/h
2562 14-10-2019 17:00:00 19.81667 C 13.44 g/m*3 19.82 C 0 km/h
2563 14-10-2019 18:00:00 18.93333 C 13.13 g/m*3 18.93 C 0.26667 km/h
2564 14-10-2019 19:00:00 17.43333 C 12.92 g/m*3 17.43 C 0.26667 km/h
2565 14-10-2019 20:00:00 16.71667 C 12.54 g/m*3 16.72 C 0.13333 km/h
2566 14-10-2019 21:00:00 15.88333 C 12.05 g/m*3 15.88 C 0 km/h
2567 14-10-2019 22:00:00 14.875 C 11.7 g/m*3 14.88 C 0.26667 km/h
2568 14-10-2019 23:00:00 15.075 C 11.86 g/m*3 15.08 C 0.26667 km/h
2569 15-10-2019 00:00:00 15.08333 C 11.86 g/m*3 15.08 C 0.13333 km/h
2570 15-10-2019 01:00:00 14.4 C 11.41 g/m*3 14.4 C 0.13333 km/h
2571 15-10-2019 02:00:00 13.43333 C 10.9 g/m*3 13.43 C 0 km/h
2572 15-10-2019 03:00:00 12.725 C 10.54 g/m*3 12.73 C 0 km/h
2573 15-10-2019 04:00:00 12.38333 C 10.41 g/m*3 12.38 C 0.8 km/h
2574 15-10-2019 05:00:00 11.95833 C 10.18 g/m*3 11.96 C 0 km/h
2575 15-10-2019 06:00:00 12.09167 C 10.35 g/m*3 12.09 C 0.26667 km/h
Sensor: Nr:Datum:Temp:Abs-Feuchte:Windchill:Wind:
Aussen-T/F 2576 15-10-2019 07:00:00 11.96667 C 10.24 g/m*3 11.97 C 0 km/h
2577 15-10-2019 08:00:00 11.79167 C 10.19 g/m*3 11.79 C 0 km/h
2578 15-10-2019 09:00:00 12.36667 C 10.58 g/m*3 12.37 C 0 km/h
2579 15-10-2019 10:00:00 13.25833 C 11.18 g/m*3 13.26 C 0.8 km/h
2580 15-10-2019 11:00:00 15.375 C 12.54 g/m*3 15.38 C 2.54167 km/h
2581 15-10-2019 12:00:00 17.68333 C 12.87 g/m*3 17.68 C 6.58333 km/h
2582 15-10-2019 13:00:00 18.10833 C 12.43 g/m*3 18.11 C 9 km/h
2583 15-10-2019 14:00:00 17.73333 C 12.25 g/m*3 17.73 C 7.11667 km/h
2584 15-10-2019 15:00:00 17.21667 C 12.02 g/m*3 17.22 C 5.625 km/h
2585 15-10-2019 16:00:00 16.65833 C 12.09 g/m*3 16.66 C 1.86667 km/h
2586 15-10-2019 17:00:00 16.28333 C 12.2 g/m*3 16.28 C 0.13333 km/h
2587 15-10-2019 18:00:00 15.11667 C 11.88 g/m*3 15.12 C 0.66667 km/h
2588 15-10-2019 19:00:00 14.29167 C 11.58 g/m*3 14.29 C 0 km/h
2589 15-10-2019 20:00:00 13.925 C 11.41 g/m*3 13.93 C 0 km/h
2590 15-10-2019 21:00:00 13.65 C 11.27 g/m*3 13.65 C 0 km/h
2591 15-10-2019 22:00:00 13.41667 C 11.17 g/m*3 13.42 C 2.275 km/h
2592 15-10-2019 23:00:00 12.925 C 10.73 g/m*3 12.93 C 7.39167 km/h
2593 16-10-2019 00:00:00 12.10833 C 10.18 g/m*3 12.11 C 3.48333 km/h
2594 16-10-2019 01:00:00 11.85833 C 10.11 g/m*3 11.86 C 0.13333 km/h
2595 16-10-2019 02:00:00 11.8 C 10.1 g/m*3 11.8 C 0.26667 km/h
2596 16-10-2019 03:00:00 11.775 C 10.09 g/m*3 11.78 C 4.425 km/h
2597 16-10-2019 04:00:00 11.625 C 9.99 g/m*3 11.63 C 2.675 km/h
2598 16-10-2019 05:00:00 11.425 C 9.87 g/m*3 11.43 C 1.33333 km/h
2599 16-10-2019 06:00:00 11.18333 C 9.63 g/m*3 11.18 C 6.975 km/h
2600 16-10-2019 07:00:00 10.95833 C 9.38 g/m*3 10.96 C 2.26667 km/h
Sensor: Nr:Datum:Temp:Abs-Feuchte:Windchill:Wind:
Aussen-T/F 2601 16-10-2019 08:00:00 10.65 C 9.2 g/m*3 10.65 C 2.81667 km/h
2602 16-10-2019 09:00:00 10.925 C 9.44 g/m*3 10.93 C 1.6 km/h
2603 16-10-2019 10:00:00 12.44167 C 9.99 g/m*3 12.44 C 3.2 km/h
2604 16-10-2019 11:00:00 13.79167 C 10.29 g/m*3 13.79 C 5.9 km/h
2605 16-10-2019 12:00:00 14.55 C 10.54 g/m*3 14.55 C 5.64167 km/h
2606 16-10-2019 13:00:00 14.08333 C 11.05 g/m*3 14.08 C 0.53333 km/h
2607 16-10-2019 14:00:00 13.51667 C 11.02 g/m*3 13.52 C 2.275 km/h
2608 16-10-2019 15:00:00 13.91667 C 11.37 g/m*3 13.92 C 1.73333 km/h
2609 16-10-2019 16:00:00 14.34167 C 11.6 g/m*3 14.34 C 2.4 km/h
2610 16-10-2019 17:00:00 14.36667 C 11.66 g/m*3 14.37 C 0.26667 km/h
2611 16-10-2019 18:00:00 13.90833 C 11.39 g/m*3 13.91 C 0.13333 km/h
2612 16-10-2019 19:00:00 13.53333 C 11.25 g/m*3 13.53 C 0 km/h
2613 16-10-2019 20:00:00 13.25 C 11.06 g/m*3 13.25 C 0.26667 km/h
2614 16-10-2019 21:00:00 12.71667 C 10.7 g/m*3 12.72 C 0.26667 km/h
2615 16-10-2019 22:00:00 12.55833 C 10.59 g/m*3 12.56 C 0.26667 km/h
2616 16-10-2019 23:00:00 12.4 C 10.53 g/m*3 12.4 C 0.66667 km/h
2617 17-10-2019 00:00:00 12.64167 C 10.65 g/m*3 12.64 C 0.26667 km/h
2618 17-10-2019 01:00:00 12.61667 C 10.63 g/m*3 12.62 C 0.26667 km/h
2619 17-10-2019 02:00:00 12.375 C 10.47 g/m*3 12.38 C 0.26667 km/h
2620 17-10-2019 03:00:00 12.76667 C 10.67 g/m*3 12.77 C 1.2 km/h
2621 17-10-2019 04:00:00 13.575 C 10.86 g/m*3 13.58 C 1.6 km/h
2622 17-10-2019 05:00:00 14.19167 C 10.9 g/m*3 14.19 C 3.20833 km/h
2623 17-10-2019 06:00:00 14.23333 C 10.88 g/m*3 14.23 C 4.00833 km/h
2624 17-10-2019 07:00:00 14.24167 C 10.97 g/m*3 14.24 C 2.68333 km/h
2625 17-10-2019 08:00:00 14.58333 C 10.96 g/m*3 14.58 C 6.85 km/h
Sensor: Nr:Datum:Temp:Abs-Feuchte:Windchill:Wind:
Aussen-T/F 2626 17-10-2019 09:00:00 15.36667 C 11.12 g/m*3 15.37 C 7.39167 km/h
2627 17-10-2019 10:00:00 15.86667 C 11.24 g/m*3 15.87 C 9.39167 km/h
2628 17-10-2019 11:00:00 16.65833 C 11.61 g/m*3 16.66 C 3.88333 km/h
2629 17-10-2019 12:00:00 16.65833 C 11.92 g/m*3 16.66 C 2.26667 km/h
2630 17-10-2019 13:00:00 16.81667 C 11.88 g/m*3 16.82 C 5.50833 km/h
2631 17-10-2019 14:00:00 16.84167 C 12.29 g/m*3 16.84 C 0.93333 km/h
2632 17-10-2019 15:00:00 16.63333 C 12.31 g/m*3 16.63 C 0.8 km/h
2633 17-10-2019 16:00:00 15.85 C 12.31 g/m*3 15.85 C 0.26667 km/h
2634 17-10-2019 17:00:00 15.14167 C 12.15 g/m*3 15.14 C 0.13333 km/h
2635 17-10-2019 18:00:00 14.61667 C 11.9 g/m*3 14.62 C 0.26667 km/h
2636 17-10-2019 19:00:00 14.15833 C 11.65 g/m*3 14.16 C 0 km/h
2637 17-10-2019 20:00:00 14.08333 C 11.64 g/m*3 14.08 C 0.4 km/h
2638 17-10-2019 21:00:00 13.9 C 11.6 g/m*3 13.9 C 0.53333 km/h
2639 17-10-2019 22:00:00 13.85 C 11.59 g/m*3 13.85 C 0.13333 km/h
2640 17-10-2019 23:00:00 13.89167 C 11.62 g/m*3 13.89 C 0.66667 km/h
2641 18-10-2019 00:00:00 13.825 C 11.58 g/m*3 13.83 C 0.93333 km/h
2642 18-10-2019 01:00:00 12.83333 C 10.88 g/m*3 12.83 C 0.4 km/h
2643 18-10-2019 02:00:00 12.125 C 10.42 g/m*3 12.13 C 0 km/h
2644 18-10-2019 03:00:00 11.58333 C 10.07 g/m*3 11.58 C 0.4 km/h
2645 18-10-2019 04:00:00 11.49167 C 10.01 g/m*3 11.49 C 0.26667 km/h
2646 18-10-2019 05:00:00 11.80833 C 10.25 g/m*3 11.81 C 0.66667 km/h
2647 18-10-2019 06:00:00 12.7 C 10.91 g/m*3 12.7 C 1.6 km/h
2648 18-10-2019 07:00:00 12.60833 C 10.81 g/m*3 12.61 C 0.13333 km/h
2649 18-10-2019 08:00:00 12.8 C 10.98 g/m*3 12.8 C 0.26667 km/h
2650 18-10-2019 09:00:00 13.4 C 11.39 g/m*3 13.4 C 0 km/h
Sensor: Nr:Datum:Temp:Abs-Feuchte:Windchill:Wind:
Aussen-T/F 2651 18-10-2019 10:00:00 14.38333 C 12.1 g/m*3 14.38 C 1.33333 km/h
2652 18-10-2019 11:00:00 14.66667 C 12.23 g/m*3 14.67 C 3.88333 km/h
2653 18-10-2019 12:00:00 15.46667 C 11.78 g/m*3 15.47 C 7.25 km/h
2654 18-10-2019 13:00:00 14.95833 C 10.73 g/m*3 14.96 C 15.175 km/h
2655 18-10-2019 14:00:00 12.91667 C 9.64 g/m*3 12.92 C 16.50833 km/h
2656 18-10-2019 15:00:00 13.8 C 9.6 g/m*3 13.8 C 12.89167 km/h
2657 18-10-2019 16:00:00 14.23333 C 9.29 g/m*3 14.23 C 15.425 km/h
2658 18-10-2019 17:00:00 14.40833 C 9.06 g/m*3 14.41 C 9.8 km/h
2659 18-10-2019 18:00:00 12.64167 C 8.93 g/m*3 12.64 C 2.41667 km/h
2660 18-10-2019 19:00:00 10.63333 C 8.68 g/m*3 10.63 C 0.26667 km/h
2661 18-10-2019 20:00:00 9.75833 C 8.5 g/m*3 9.76 C 0 km/h
2662 18-10-2019 21:00:00 9.20833 C 8.34 g/m*3 9.21 C 0 km/h
2663 18-10-2019 22:00:00 9.23333 C 8.49 g/m*3 9.23 C 0 km/h
2664 18-10-2019 23:00:00 9.14167 C 8.45 g/m*3 9.14 C 0 km/h
2665 19-10-2019 00:00:00 9.14167 C 8.47 g/m*3 9.14 C 0.66667 km/h
2666 19-10-2019 01:00:00 9.64167 C 8.68 g/m*3 9.64 C 0.4 km/h
2667 19-10-2019 02:00:00 9.65833 C 8.67 g/m*3 9.66 C 0 km/h
2668 19-10-2019 03:00:00 9.875 C 8.76 g/m*3 9.88 C 0 km/h
2669 19-10-2019 04:00:00 10.10833 C 8.89 g/m*3 10.11 C 0.53333 km/h
2670 19-10-2019 05:00:00 10.68333 C 9.21 g/m*3 10.68 C 0.93333 km/h
2671 19-10-2019 06:00:00 10.70833 C 9.19 g/m*3 10.71 C 0 km/h
2672 19-10-2019 07:00:00 10.64167 C 9.23 g/m*3 10.64 C 0 km/h
2673 19-10-2019 08:00:00 11.05 C 9.54 g/m*3 11.05 C 0.26667 km/h
2674 19-10-2019 09:00:00 11.875 C 9.97 g/m*3 11.88 C 0.4 km/h
2675 19-10-2019 10:00:00 13.025 C 10.3 g/m*3 13.03 C 1.2 km/h
Sensor: Nr:Datum:Temp:Abs-Feuchte:Windchill:Wind:
Aussen-T/F 2676 19-10-2019 11:00:00 13.825 C 10.9 g/m*3 13.83 C 3.35 km/h
2677 19-10-2019 12:00:00 15.40833 C 11.24 g/m*3 15.41 C 3.34167 km/h
2678 19-10-2019 13:00:00 16.2 C 11.32 g/m*3 16.2 C 4.95833 km/h
2679 19-10-2019 14:00:00 16.9 C 11.41 g/m*3 16.9 C 7.5 km/h
2680 19-10-2019 15:00:00 17.24167 C 11.33 g/m*3 17.24 C 6.30833 km/h
2681 19-10-2019 16:00:00 17.15 C 11.4 g/m*3 17.15 C 1.475 km/h
2682 19-10-2019 17:00:00 16.84167 C 11.6 g/m*3 16.84 C 2.00833 km/h
2683 19-10-2019 18:00:00 15.16364 C 11.61 g/m*3 15.16 C 0.87273 km/h
2684 19-10-2019 19:00:00 14.03333 C 11.32 g/m*3 14.03 C 0 km/h
2685 19-10-2019 20:00:00 13.625 C 11.19 g/m*3 13.63 C 0 km/h
2686 19-10-2019 21:00:00 13.43333 C 11.14 g/m*3 13.43 C 0.53333 km/h
2687 19-10-2019 22:00:00 13.21667 C 11.03 g/m*3 13.22 C 0 km/h
2688 19-10-2019 23:00:00 13.00833 C 10.89 g/m*3 13.01 C 0 km/h
2689 20-10-2019 00:00:00 13 C 10.96 g/m*3 13 C 0 km/h
2690 20-10-2019 01:00:00 13.13333 C 11.09 g/m*3 13.13 C 0 km/h
2691 20-10-2019 02:00:00 13.11667 C 11.08 g/m*3 13.12 C 0 km/h
2692 20-10-2019 03:00:00 13.1 C 11.07 g/m*3 13.1 C 0 km/h
2693 20-10-2019 04:00:00 13.16667 C 11.11 g/m*3 13.17 C 0 km/h
2694 20-10-2019 05:00:00 12.96667 C 10.98 g/m*3 12.97 C 0.26667 km/h
2695 20-10-2019 06:00:00 12.74167 C 10.83 g/m*3 12.74 C 0 km/h
2696 20-10-2019 07:00:00 12.65 C 10.76 g/m*3 12.65 C 0 km/h
2697 20-10-2019 08:00:00 12.70833 C 10.8 g/m*3 12.71 C 0 km/h
2698 20-10-2019 09:00:00 12.84167 C 10.96 g/m*3 12.84 C 0.13333 km/h
2699 20-10-2019 10:00:00 13.04167 C 11.1 g/m*3 13.04 C 0.13333 km/h
2700 20-10-2019 11:00:00 13.25833 C 11.26 g/m*3 13.26 C 0.53333 km/h
Sensor: Nr:Datum:Temp:Abs-Feuchte:Windchill:Wind:
Aussen-T/F 2701 20-10-2019 12:00:00 13.69167 C 11.6 g/m*3 13.69 C 0 km/h
2702 20-10-2019 13:00:00 13.96667 C 11.8 g/m*3 13.97 C 0.13333 km/h
2703 20-10-2019 14:00:00 14.275 C 12.02 g/m*3 14.28 C 0.53333 km/h
2704 20-10-2019 15:00:00 14.525 C 12.21 g/m*3 14.53 C 0 km/h
2705 20-10-2019 16:00:00 14.83333 C 12.44 g/m*3 14.83 C 0.26667 km/h
2706 20-10-2019 17:00:00 14.85 C 12.45 g/m*3 14.85 C 0 km/h
2707 20-10-2019 18:00:00 14.45833 C 12.16 g/m*3 14.46 C 0 km/h
2708 20-10-2019 19:00:00 14.20833 C 11.97 g/m*3 14.21 C 0 km/h
2709 20-10-2019 20:00:00 14.03333 C 11.85 g/m*3 14.03 C 0 km/h
2710 20-10-2019 21:00:00 14.05833 C 11.86 g/m*3 14.06 C 0.26667 km/h
2711 20-10-2019 22:00:00 13.90909 C 11.76 g/m*3 13.91 C 0 km/h
2712 20-10-2019 23:00:00 13.925 C 11.77 g/m*3 13.93 C 0.26667 km/h
2713 21-10-2019 00:00:00 14.24167 C 12 g/m*3 14.24 C 4.95833 km/h
2714 21-10-2019 01:00:00 14.14167 C 11.92 g/m*3 14.14 C 0 km/h
2715 21-10-2019 02:00:00 13.74167 C 11.63 g/m*3 13.74 C 0 km/h
2716 21-10-2019 03:00:00 13.66667 C 11.58 g/m*3 13.67 C 0 km/h
2717 21-10-2019 04:00:00 13.11667 C 11.19 g/m*3 13.12 C 0 km/h
2718 21-10-2019 05:00:00 13.21667 C 11.26 g/m*3 13.22 C 0.13333 km/h
2719 21-10-2019 06:00:00 13.60833 C 11.54 g/m*3 13.61 C 0 km/h
2720 21-10-2019 07:00:00 13.31667 C 11.33 g/m*3 13.32 C 0 km/h
2721 21-10-2019 08:00:00 12.70833 C 10.91 g/m*3 12.71 C 0 km/h
2722 21-10-2019 09:00:00 12.9 C 11.05 g/m*3 12.9 C 0 km/h
2723 21-10-2019 10:00:00 13.49167 C 11.49 g/m*3 13.49 C 0.4 km/h
2724 21-10-2019 11:00:00 14.00833 C 11.83 g/m*3 14.01 C 2 km/h
2725 21-10-2019 12:00:00 14.60833 C 12.29 g/m*3 14.61 C 3.35 km/h
Sensor: Nr:Datum:Temp:Abs-Feuchte:Windchill:Wind:
Aussen-T/F 2726 21-10-2019 13:00:00 15.91667 C 12.04 g/m*3 15.92 C 11.025 km/h
2727 21-10-2019 14:00:00 16.70833 C 11.69 g/m*3 16.71 C 6.31667 km/h
2728 21-10-2019 15:00:00 16.375 C 11.27 g/m*3 16.38 C 6.96667 km/h
2729 21-10-2019 16:00:00 15.86667 C 10.94 g/m*3 15.87 C 4.95 km/h
2730 21-10-2019 17:00:00 14.73333 C 10.79 g/m*3 14.73 C 1.60833 km/h
2731 21-10-2019 18:00:00 13.72727 C 10.33 g/m*3 13.73 C 0.87273 km/h
2732 21-10-2019 19:00:00 12.49167 C 9.92 g/m*3 12.49 C 0 km/h
2733 21-10-2019 20:00:00 11.75 C 9.69 g/m*3 11.75 C 0 km/h
2734 21-10-2019 21:00:00 11.38333 C 9.6 g/m*3 11.38 C 0 km/h
2735 21-10-2019 22:00:00 11.325 C 9.6 g/m*3 11.33 C 0 km/h
2736 21-10-2019 23:00:00 11.21667 C 9.52 g/m*3 11.22 C 0 km/h
2737 22-10-2019 00:00:00 10.825 C 9.36 g/m*3 10.83 C 0 km/h
2738 22-10-2019 01:00:00 11.01667 C 9.52 g/m*3 11.02 C 0.26667 km/h
2739 22-10-2019 02:00:00 10.94167 C 9.47 g/m*3 10.94 C 0 km/h
2740 22-10-2019 03:00:00 10.875 C 9.42 g/m*3 10.88 C 0 km/h
2741 22-10-2019 04:00:00 10.66667 C 9.29 g/m*3 10.67 C 0 km/h
2742 22-10-2019 05:00:00 10 C 8.92 g/m*3 10 C 0 km/h
2743 22-10-2019 06:00:00 10.1 C 9.08 g/m*3 10.1 C 0 km/h
2744 22-10-2019 07:00:00 9.975 C 8.95 g/m*3 9.98 C 0 km/h
2745 22-10-2019 08:00:00 9.875 C 8.95 g/m*3 9.88 C 0 km/h
2746 22-10-2019 09:00:00 10.44167 C 9.25 g/m*3 10.44 C 1.2 km/h
2747 22-10-2019 10:00:00 11.36667 C 9.62 g/m*3 11.37 C 3.6 km/h
2748 22-10-2019 11:00:00 12.78333 C 9.88 g/m*3 12.78 C 4.675 km/h
2749 22-10-2019 12:00:00 13.61667 C 10 g/m*3 13.62 C 1.06667 km/h
2750 22-10-2019 13:00:00 14.35714 C 10.15 g/m*3 14.36 C 1.82857 km/h
Sensor: Nr:Datum:Temp:Abs-Feuchte:Windchill:Wind:
Aussen-T/F 2751 22-10-2019 14:00:00 15.08333 C 9.99 g/m*3 15.08 C 3.2 km/h
2752 22-10-2019 15:00:00 14.68333 C 10.31 g/m*3 14.68 C 0.26667 km/h
2753 22-10-2019 16:00:00 13.78333 C 10.36 g/m*3 13.78 C 0 km/h
2754 22-10-2019 17:00:00 13.31667 C 10.17 g/m*3 13.32 C 0.13333 km/h
2755 22-10-2019 18:00:00 12.55 C 9.64 g/m*3 12.55 C 1.33333 km/h
2756 22-10-2019 19:00:00 11.74167 C 9.48 g/m*3 11.74 C 0 km/h
2757 22-10-2019 20:00:00 10.70833 C 9.16 g/m*3 10.71 C 0 km/h
2758 22-10-2019 21:00:00 10.125 C 8.96 g/m*3 10.13 C 0 km/h
2759 22-10-2019 22:00:00 10.20833 C 9.13 g/m*3 10.21 C 0 km/h
2760 22-10-2019 23:00:00 9.9 C 8.94 g/m*3 9.9 C 0 km/h
2761 23-10-2019 00:00:00 8.98333 C 8.43 g/m*3 8.98 C 0 km/h
2762 23-10-2019 01:00:00 8.61667 C 8.26 g/m*3 8.62 C 0 km/h
2763 23-10-2019 02:00:00 8.20833 C 8.04 g/m*3 8.21 C 0 km/h
2764 23-10-2019 03:00:00 8.00833 C 8 g/m*3 8.01 C 0 km/h
2765 23-10-2019 04:00:00 7.83333 C 7.93 g/m*3 7.83 C 0 km/h
2766 23-10-2019 05:00:00 8.16667 C 8.11 g/m*3 8.17 C 0 km/h
2767 23-10-2019 06:00:00 8.13333 C 8.09 g/m*3 8.13 C 0 km/h
2768 23-10-2019 07:00:00 7.95 C 7.99 g/m*3 7.95 C 0 km/h
2769 23-10-2019 08:00:00 7.86667 C 7.97 g/m*3 7.87 C 0.13333 km/h
2770 23-10-2019 09:00:00 8.70833 C 8.47 g/m*3 8.71 C 1.06667 km/h
2771 23-10-2019 10:00:00 9.60833 C 8.98 g/m*3 9.61 C 0.13333 km/h
2772 23-10-2019 11:00:00 10.98333 C 9.8 g/m*3 10.98 C 3.20833 km/h
2773 23-10-2019 12:00:00 11.825 C 10.16 g/m*3 11.83 C 7.11667 km/h
2774 23-10-2019 13:00:00 12.95833 C 10.43 g/m*3 12.96 C 5.50833 km/h
2775 23-10-2019 14:00:00 13.84167 C 10.72 g/m*3 13.84 C 6.975 km/h
Sensor: Nr:Datum:Temp:Abs-Feuchte:Windchill:Wind:
Aussen-T/F 2776 23-10-2019 15:00:00 14.3 C 10.94 g/m*3 14.3 C 3.34167 km/h
2777 23-10-2019 16:00:00 14.79167 C 11.3 g/m*3 14.79 C 0.93333 km/h
2778 23-10-2019 17:00:00 14.94167 C 11.51 g/m*3 14.94 C 0.13333 km/h
2779 23-10-2019 18:00:00 14.175 C 11.18 g/m*3 14.18 C 0 km/h
2780 23-10-2019 19:00:00 13.39167 C 10.86 g/m*3 13.39 C 0.13333 km/h
2781 23-10-2019 20:00:00 13.24167 C 10.86 g/m*3 13.24 C 0 km/h
2782 23-10-2019 21:00:00 13.19167 C 10.9 g/m*3 13.19 C 0 km/h
2783 23-10-2019 22:00:00 12.94167 C 10.73 g/m*3 12.94 C 0 km/h
2784 23-10-2019 23:00:00 12.76667 C 10.62 g/m*3 12.77 C 0 km/h
2785 24-10-2019 00:00:00 12.39167 C 10.44 g/m*3 12.39 C 0 km/h
2786 24-10-2019 01:00:00 12.15833 C 10.33 g/m*3 12.16 C 0.66667 km/h
2787 24-10-2019 02:00:00 12.25833 C 10.43 g/m*3 12.26 C 0 km/h
2788 24-10-2019 03:00:00 11.81667 C 10.11 g/m*3 11.82 C 0 km/h
2789 24-10-2019 04:00:00 11.59167 C 10.06 g/m*3 11.59 C 0 km/h
2790 24-10-2019 05:00:00 11.85 C 10.24 g/m*3 11.85 C 0.13333 km/h
2791 24-10-2019 06:00:00 11.89167 C 10.28 g/m*3 11.89 C 0.53333 km/h
2792 24-10-2019 07:00:00 12.33333 C 10.56 g/m*3 12.33 C 0.66667 km/h
2793 24-10-2019 08:00:00 12.49167 C 10.66 g/m*3 12.49 C 0.66667 km/h
2794 24-10-2019 09:00:00 13.01667 C 11.01 g/m*3 13.02 C 0 km/h
2795 24-10-2019 10:00:00 13.58333 C 11.38 g/m*3 13.58 C 0.93333 km/h
2796 24-10-2019 11:00:00 14.51667 C 11.65 g/m*3 14.52 C 0.53333 km/h
2797 24-10-2019 12:00:00 15.175 C 12 g/m*3 15.18 C 0 km/h
2798 24-10-2019 13:00:00 16.45833 C 12.57 g/m*3 16.46 C 1.74167 km/h
2799 24-10-2019 14:00:00 17.46667 C 12.93 g/m*3 17.47 C 0.66667 km/h
2800 24-10-2019 15:00:00 18.525 C 13.34 g/m*3 18.52 C 1.2 km/h
Sensor: Nr:Datum:Temp:Abs-Feuchte:Windchill:Wind:
Aussen-T/F 2801 24-10-2019 16:00:00 18.44167 C 12.48 g/m*3 18.44 C 4.01667 km/h
2802 24-10-2019 17:00:00 17.525 C 12.19 g/m*3 17.52 C 2.28333 km/h
2803 24-10-2019 18:00:00 15.70833 C 11.42 g/m*3 15.71 C 1.86667 km/h
2804 24-10-2019 19:00:00 14.69167 C 11.11 g/m*3 14.69 C 1.06667 km/h
2805 24-10-2019 20:00:00 13.85833 C 10.81 g/m*3 13.86 C 0.66667 km/h
2806 24-10-2019 21:00:00 13.54167 C 10.67 g/m*3 13.54 C 0.26667 km/h
2807 24-10-2019 22:00:00 13.075 C 10.53 g/m*3 13.08 C 0 km/h
2808 24-10-2019 23:00:00 13.18333 C 10.74 g/m*3 13.18 C 0 km/h
2809 25-10-2019 00:00:00 12.40833 C 10.23 g/m*3 12.41 C 0 km/h
2810 25-10-2019 01:00:00 11.95 C 10.09 g/m*3 11.95 C 0 km/h
2811 25-10-2019 02:00:00 11.49167 C 9.82 g/m*3 11.49 C 1.075 km/h
2812 25-10-2019 03:00:00 12.34167 C 10.22 g/m*3 12.34 C 1.875 km/h
2813 25-10-2019 04:00:00 12.88333 C 10.32 g/m*3 12.88 C 1.73333 km/h
2814 25-10-2019 05:00:00 12.65833 C 10.09 g/m*3 12.66 C 2.95 km/h
2815 25-10-2019 06:00:00 12.63333 C 10.2 g/m*3 12.63 C 1.86667 km/h
2816 25-10-2019 07:00:00 13.175 C 10.39 g/m*3 13.18 C 2.40833 km/h
2817 25-10-2019 08:00:00 12.68333 C 10.19 g/m*3 12.68 C 1.46667 km/h
2818 25-10-2019 09:00:00 12.93333 C 10.5 g/m*3 12.93 C 1.86667 km/h
2819 25-10-2019 10:00:00 13.775 C 10.6 g/m*3 13.78 C 6.30833 km/h
2820 25-10-2019 11:00:00 14.90833 C 10.52 g/m*3 14.91 C 9.40833 km/h
2821 25-10-2019 12:00:00 15.275 C 10.34 g/m*3 15.28 C 9.95833 km/h
2822 25-10-2019 13:00:00 16.19167 C 10.17 g/m*3 16.19 C 9.275 km/h
2823 25-10-2019 14:00:00 16.29167 C 10.24 g/m*3 16.29 C 7.525 km/h
2824 25-10-2019 15:00:00 16.43333 C 9.86 g/m*3 16.43 C 9.68333 km/h
2825 25-10-2019 16:00:00 16.05833 C 10 g/m*3 16.06 C 6.575 km/h
Sensor: Nr:Datum:Temp:Abs-Feuchte:Windchill:Wind:
Aussen-T/F 2826 25-10-2019 17:00:00 14.56667 C 10.21 g/m*3 14.57 C 0.66667 km/h
2827 25-10-2019 18:00:00 13.01667 C 9.81 g/m*3 13.02 C 0.8 km/h
2828 25-10-2019 19:00:00 11.99167 C 9.58 g/m*3 11.99 C 0.13333 km/h
2829 25-10-2019 20:00:00 11.45 C 9.4 g/m*3 11.45 C 0 km/h
2830 25-10-2019 21:00:00 11.025 C 9.26 g/m*3 11.03 C 0 km/h
2831 25-10-2019 22:00:00 11.3 C 9.56 g/m*3 11.3 C 0.53333 km/h
2832 25-10-2019 23:00:00 12.46667 C 10.12 g/m*3 12.47 C 1.6 km/h
2833 26-10-2019 00:00:00 13.48333 C 10.42 g/m*3 13.48 C 1.46667 km/h
2834 26-10-2019 01:00:00 13.675 C 10.41 g/m*3 13.68 C 1.2 km/h
2835 26-10-2019 02:00:00 13.53333 C 10.28 g/m*3 13.53 C 1.06667 km/h
2836 26-10-2019 03:00:00 12.26667 C 9.88 g/m*3 12.27 C 0.53333 km/h
2837 26-10-2019 04:00:00 11.59167 C 9.73 g/m*3 11.59 C 1.74167 km/h
2838 26-10-2019 05:00:00 12.29167 C 10.1 g/m*3 12.29 C 2.28333 km/h
2839 26-10-2019 06:00:00 11.86667 C 9.86 g/m*3 11.87 C 0.13333 km/h
2840 26-10-2019 07:00:00 11.1 C 9.47 g/m*3 11.1 C 0 km/h
2841 26-10-2019 08:00:00 10.15833 C 8.99 g/m*3 10.16 C 0 km/h
2842 26-10-2019 09:00:00 10.325 C 9.21 g/m*3 10.33 C 0 km/h
2843 26-10-2019 10:00:00 11.26667 C 9.84 g/m*3 11.27 C 0 km/h
2844 26-10-2019 11:00:00 12.475 C 10.63 g/m*3 12.48 C 0 km/h
2845 26-10-2019 12:00:00 13.81667 C 11.34 g/m*3 13.82 C 1.2 km/h
2846 26-10-2019 13:00:00 15.18333 C 11.66 g/m*3 15.18 C 0.93333 km/h
2847 26-10-2019 14:00:00 16.53333 C 11.97 g/m*3 16.53 C 2.26667 km/h
2848 26-10-2019 15:00:00 16.78333 C 12.09 g/m*3 16.78 C 0.66667 km/h
2849 26-10-2019 16:00:00 16.53333 C 12.06 g/m*3 16.53 C 1.06667 km/h
2850 26-10-2019 17:00:00 15.31667 C 11.43 g/m*3 15.32 C 1.6 km/h
Sensor: Nr:Datum:Temp:Abs-Feuchte:Windchill:Wind:
Aussen-T/F 2851 26-10-2019 18:00:00 13.925 C 10.7 g/m*3 13.93 C 0.53333 km/h
2852 26-10-2019 19:00:00 12.975 C 10.3 g/m*3 12.98 C 0.26667 km/h
2853 26-10-2019 20:00:00 12.86667 C 10.42 g/m*3 12.87 C 0.4 km/h
2854 26-10-2019 21:00:00 12.99167 C 10.44 g/m*3 12.99 C 0 km/h
2855 26-10-2019 22:00:00 12.64167 C 10.32 g/m*3 12.64 C 0 km/h
2856 26-10-2019 23:00:00 12.625 C 10.4 g/m*3 12.63 C 0.4 km/h
2857 27-10-2019 00:00:00 13.45833 C 10.54 g/m*3 13.46 C 3.35 km/h
2858 27-10-2019 01:00:00 13.74167 C 10.39 g/m*3 13.74 C 0.8 km/h
2859 27-10-2019 02:00:00 12.98333 C 10.14 g/m*3 12.98 C 2 km/h
2860 27-10-2019 04:00:00 12.17391 C 9.93 g/m*3 12.17 C 1.04348 km/h
2861 27-10-2019 05:00:00 12.87692 C 10.27 g/m*3 12.88 C 0.98462 km/h
2862 27-10-2019 06:00:00 14.125 C 10.45 g/m*3 14.13 C 7.10833 km/h
2863 27-10-2019 07:00:00 14.16667 C 10.64 g/m*3 14.17 C 9.66667 km/h
2864 27-10-2019 08:00:00 11.975 C 9.77 g/m*3 11.98 C 10.89167 km/h
2865 27-10-2019 09:00:00 10.425 C 8.96 g/m*3 9.15 C 9.93333 km/h
2866 27-10-2019 10:00:00 9.44167 C 8.49 g/m*3 9.44 C 1.6 km/h
2867 27-10-2019 11:00:00 9.75833 C 8.74 g/m*3 9.76 C 0.93333 km/h
2868 27-10-2019 12:00:00 10 C 8.87 g/m*3 10 C 0.4 km/h
2869 27-10-2019 13:00:00 9.9 C 8.84 g/m*3 9.9 C 0 km/h
2870 27-10-2019 14:00:00 9.53333 C 8.6 g/m*3 9.53 C 0.4 km/h
2871 27-10-2019 15:00:00 9.43333 C 8.61 g/m*3 9.43 C 0 km/h
2872 27-10-2019 16:00:00 9.16667 C 8.47 g/m*3 9.17 C 0 km/h
2873 27-10-2019 17:00:00 8.55 C 8.17 g/m*3 8.55 C 0 km/h
2874 27-10-2019 18:00:00 8.35 C 8.12 g/m*3 8.35 C 0 km/h
2875 27-10-2019 19:00:00 8.275 C 8.08 g/m*3 8.28 C 0 km/h
Sensor: Nr:Datum:Temp:Abs-Feuchte:Windchill:Wind:
Aussen-T/F 2876 27-10-2019 20:00:00 7.50833 C 7.69 g/m*3 7.51 C 0 km/h
2877 27-10-2019 21:00:00 6.91667 C 7.4 g/m*3 6.92 C 0.4 km/h
2878 27-10-2019 22:00:00 5.925 C 6.93 g/m*3 5.93 C 0 km/h
2879 27-10-2019 23:00:00 5.125 C 6.6 g/m*3 5.13 C 0.26667 km/h
2880 28-10-2019 00:00:00 5.325 C 6.73 g/m*3 5.33 C 0.13333 km/h
2881 28-10-2019 01:00:00 5.8 C 6.95 g/m*3 5.8 C 0.13333 km/h
2882 28-10-2019 02:00:00 5.59167 C 6.85 g/m*3 5.59 C 0 km/h
2883 28-10-2019 03:00:00 5.44167 C 6.79 g/m*3 5.44 C 0.26667 km/h
2884 28-10-2019 04:00:00 5.30833 C 6.73 g/m*3 5.31 C 0 km/h
2885 28-10-2019 05:00:00 5.2 C 6.68 g/m*3 5.2 C 0 km/h
2886 28-10-2019 06:00:00 5.13333 C 6.65 g/m*3 5.13 C 0 km/h
2887 28-10-2019 07:00:00 5.26667 C 6.71 g/m*3 5.27 C 0.8 km/h
2888 28-10-2019 08:00:00 5.51667 C 6.84 g/m*3 5.52 C 2 km/h
2889 28-10-2019 09:00:00 5.8 C 7.02 g/m*3 5.8 C 1.2 km/h
2890 28-10-2019 10:00:00 6.18333 C 7.2 g/m*3 6.18 C 2.26667 km/h
2891 28-10-2019 11:00:00 6.38333 C 7.29 g/m*3 6.38 C 1.6 km/h
2892 28-10-2019 12:00:00 6.5 C 7.33 g/m*3 5.48 C 5.88333 km/h
2893 28-10-2019 13:00:00 6.725 C 7.38 g/m*3 6.73 C 1.86667 km/h
2894 28-10-2019 14:00:00 7.39167 C 7.68 g/m*3 7.39 C 0.13333 km/h
2895 28-10-2019 15:00:00 8.01667 C 7.88 g/m*3 8.02 C 0.13333 km/h
2896 28-10-2019 16:00:00 7.79167 C 7.74 g/m*3 7.79 C 0 km/h
2897 28-10-2019 17:00:00 7 C 7.39 g/m*3 7 C 0 km/h
2898 28-10-2019 18:00:00 7.175 C 7.52 g/m*3 7.18 C 0 km/h
2899 28-10-2019 19:00:00 7.15833 C 7.52 g/m*3 7.16 C 0 km/h
2900 28-10-2019 20:00:00 6.99167 C 7.47 g/m*3 6.99 C 0 km/h
Sensor: Nr:Datum:Temp:Abs-Feuchte:Windchill:Wind:
Aussen-T/F 2901 28-10-2019 21:00:00 6.94167 C 7.46 g/m*3 6.94 C 0 km/h
2902 28-10-2019 22:00:00 6.78333 C 7.41 g/m*3 6.78 C 0.53333 km/h
2903 28-10-2019 23:00:00 6.7 C 7.33 g/m*3 6.7 C 1.73333 km/h
2904 29-10-2019 00:00:00 6.68333 C 7.29 g/m*3 6.68 C 2.4 km/h
2905 29-10-2019 01:00:00 6.41667 C 7.16 g/m*3 6.42 C 3.73333 km/h
2906 29-10-2019 02:00:00 6.3 C 7.11 g/m*3 6.3 C 0.26667 km/h
2907 29-10-2019 03:00:00 6.275 C 7.09 g/m*3 6.28 C 1.2 km/h
2908 29-10-2019 04:00:00 6.2 C 7.06 g/m*3 6.2 C 0.93333 km/h
2909 29-10-2019 05:00:00 6.2 C 7.06 g/m*3 6.2 C 1.46667 km/h
2910 29-10-2019 06:00:00 6.10833 C 7 g/m*3 6.11 C 1.06667 km/h
2911 29-10-2019 07:00:00 5.975 C 6.91 g/m*3 5.98 C 0.8 km/h
2912 29-10-2019 08:00:00 6.225 C 7.04 g/m*3 6.23 C 0.66667 km/h
2913 29-10-2019 09:00:00 6.69167 C 7.2 g/m*3 6.69 C 0 km/h
2914 29-10-2019 10:00:00 7.475 C 7.41 g/m*3 7.48 C 0.53333 km/h
2915 29-10-2019 11:00:00 8.23333 C 7.6 g/m*3 8.23 C 0 km/h
2916 29-10-2019 12:00:00 8.925 C 7.75 g/m*3 8.93 C 0.66667 km/h
2917 29-10-2019 13:00:00 9.74167 C 7.8 g/m*3 9.74 C 3.88333 km/h
2918 29-10-2019 14:00:00 10.59167 C 7.45 g/m*3 9.92 C 6.96667 km/h
2919 29-10-2019 15:00:00 9.575 C 7.35 g/m*3 9.57 C 1.74167 km/h
2920 29-10-2019 16:00:00 8.275 C 7.43 g/m*3 8.28 C 0.4 km/h
2921 29-10-2019 17:00:00 6.94167 C 6.9 g/m*3 6.94 C 1.86667 km/h
2922 29-10-2019 18:00:00 5.96667 C 6.58 g/m*3 5.97 C 0.66667 km/h
2923 29-10-2019 19:00:00 4.96667 C 6.27 g/m*3 4.97 C 0 km/h
2924 29-10-2019 20:00:00 4.425 C 6.15 g/m*3 4.43 C 0 km/h
2925 29-10-2019 21:00:00 3.63333 C 5.84 g/m*3 3.63 C 0 km/h
Sensor: Nr:Datum:Temp:Abs-Feuchte:Windchill:Wind:
Aussen-T/F 2926 29-10-2019 22:00:00 2.99167 C 5.65 g/m*3 2.99 C 0 km/h
2927 29-10-2019 23:00:00 2.775 C 5.61 g/m*3 2.78 C 0 km/h
2928 30-10-2019 00:00:00 2.20833 C 5.4 g/m*3 2.21 C 0 km/h
2929 30-10-2019 01:00:00 1.98333 C 5.33 g/m*3 1.98 C 0 km/h
2930 30-10-2019 02:00:00 1.98333 C 5.33 g/m*3 1.98 C 0 km/h
2931 30-10-2019 03:00:00 1.51667 C 5.16 g/m*3 1.52 C 0 km/h
2932 30-10-2019 04:00:00 1.14167 C 5.05 g/m*3 1.14 C 0 km/h
2933 30-10-2019 05:00:00 1.35 C 5.14 g/m*3 1.35 C 0.26667 km/h
2934 30-10-2019 06:00:00 1.4 C 5.17 g/m*3 1.4 C 0 km/h
2935 30-10-2019 07:00:00 1.45833 C 5.19 g/m*3 1.46 C 0.26667 km/h
2936 30-10-2019 08:00:00 1.85833 C 5.34 g/m*3 1.86 C 0.26667 km/h
2937 30-10-2019 09:00:00 2.4 C 5.54 g/m*3 2.4 C 0.13333 km/h
2938 30-10-2019 10:00:00 3.69167 C 6.09 g/m*3 3.69 C 0 km/h
2939 30-10-2019 11:00:00 4.94167 C 6.63 g/m*3 4.94 C 0.66667 km/h
2940 30-10-2019 12:00:00 5.71667 C 6.9 g/m*3 5.72 C 0.26667 km/h
2941 30-10-2019 13:00:00 6.63333 C 6.88 g/m*3 6.63 C 2.66667 km/h
2942 30-10-2019 14:00:00 7.58333 C 6.8 g/m*3 7.58 C 2.675 km/h
2943 30-10-2019 15:00:00 7.75 C 6.86 g/m*3 7.75 C 0.4 km/h
2944 30-10-2019 16:00:00 7.01667 C 6.83 g/m*3 7.02 C 0 km/h
2945 30-10-2019 17:00:00 5.76667 C 6.37 g/m*3 5.77 C 0 km/h
2946 30-10-2019 18:00:00 4.46667 C 5.94 g/m*3 4.47 C 0.26667 km/h
2947 30-10-2019 19:00:00 3.8 C 5.77 g/m*3 3.8 C 0 km/h
2948 30-10-2019 20:00:00 3.23333 C 5.64 g/m*3 3.23 C 0.66667 km/h
2949 30-10-2019 21:00:00 2.70833 C 5.5 g/m*3 2.71 C 0.53333 km/h
2950 30-10-2019 22:00:00 2.25 C 5.35 g/m*3 2.25 C 0.13333 km/h
Sensor: Nr:Datum:Temp:Abs-Feuchte:Windchill:Wind:
Aussen-T/F 2951 30-10-2019 23:00:00 1.80833 C 5.21 g/m*3 1.81 C 0 km/h
2952 31-10-2019 00:00:00 1.025 C 4.94 g/m*3 1.02 C 0 km/h
2953 31-10-2019 01:00:00 0.89167 C 4.94 g/m*3 0.89 C 0 km/h
2954 31-10-2019 02:00:00 0.53333 C 4.83 g/m*3 0.53 C 0 km/h
2955 31-10-2019 03:00:00 0.28333 C 4.74 g/m*3 0.28 C 0 km/h
2956 31-10-2019 04:00:00 0.06667 C 4.67 g/m*3 0.07 C 0 km/h
2957 31-10-2019 05:00:00 -0.325 C 4.55 g/m*3 -0.33 C 0 km/h
2958 31-10-2019 06:00:00 -0.50833 C 4.49 g/m*3 -0.51 C 0 km/h
2959 31-10-2019 07:00:00 -0.75 C 4.43 g/m*3 -0.75 C 0 km/h
2960 31-10-2019 08:00:00 -0.61667 C 4.48 g/m*3 -0.62 C 0 km/h
2961 31-10-2019 09:00:00 0.05 C 4.72 g/m*3 0.05 C 0 km/h
2962 31-10-2019 10:00:00 1.13333 C 5.09 g/m*3 1.13 C 0.93333 km/h
2963 31-10-2019 11:00:00 2.85833 C 5.76 g/m*3 2.86 C 0.53333 km/h
2964 31-10-2019 12:00:00 4.16667 C 6.28 g/m*3 4.17 C 1.2 km/h
2965 31-10-2019 13:00:00 5.60833 C 6.68 g/m*3 5.61 C 4.55833 km/h
2966 31-10-2019 14:00:00 7.29167 C 6.65 g/m*3 7.29 C 3.875 km/h
2967 31-10-2019 15:00:00 7.44167 C 6.65 g/m*3 7.44 C 2.54167 km/h
2968 31-10-2019 16:00:00 6.125 C 6.4 g/m*3 6.13 C 1.73333 km/h
2969 31-10-2019 17:00:00 4.63333 C 5.86 g/m*3 4.63 C 0.8 km/h
2970 31-10-2019 18:00:00 3.70833 C 5.55 g/m*3 3.71 C 0 km/h
2971 31-10-2019 19:00:00 3.175 C 5.44 g/m*3 3.18 C 0 km/h
2972 31-10-2019 20:00:00 2.325 C 5.23 g/m*3 2.33 C 0 km/h
2973 31-10-2019 21:00:00 1.71667 C 5.11 g/m*3 1.72 C 0 km/h
2974 31-10-2019 22:00:00 1.48333 C 5.06 g/m*3 1.48 C 0 km/h
2975 31-10-2019 23:00:00 1.30833 C 5.04 g/m*3 1.31 C 0 km/h
Sensor: Nr:Datum:Temp:Abs-Feuchte:Windchill:Wind:
Aussen-T/F 2976 01-11-2019 00:00:00 0.88333 C 4.89 g/m*3 0.88 C 0 km/h
2977 01-11-2019 01:00:00 0.6 C 4.81 g/m*3 0.6 C 0 km/h
2978 01-11-2019 02:00:00 0.55833 C 4.83 g/m*3 0.56 C 0 km/h
2979 01-11-2019 03:00:00 0.44167 C 4.8 g/m*3 0.44 C 0 km/h
2980 01-11-2019 04:00:00 1.03333 C 5.02 g/m*3 1.03 C 0 km/h
2981 01-11-2019 05:00:00 2.16667 C 5.45 g/m*3 2.17 C 0 km/h
2982 01-11-2019 06:00:00 2.85833 C 5.71 g/m*3 2.86 C 0 km/h
2983 01-11-2019 07:00:00 3.55 C 5.98 g/m*3 3.55 C 0 km/h
2984 01-11-2019 08:00:00 4.35833 C 6.32 g/m*3 4.36 C 0 km/h
2985 01-11-2019 09:00:00 5.40833 C 6.77 g/m*3 5.41 C 0 km/h
2986 01-11-2019 10:00:00 6.38333 C 7.22 g/m*3 6.38 C 0.8 km/h
2987 01-11-2019 11:00:00 7.29167 C 7.55 g/m*3 7.29 C 1.86667 km/h
2988 01-11-2019 12:00:00 8.09167 C 7.76 g/m*3 8.09 C 3.35 km/h
2989 01-11-2019 13:00:00 8.53333 C 7.96 g/m*3 8.53 C 1.06667 km/h
2990 01-11-2019 14:00:00 8.73333 C 8.2 g/m*3 8.73 C 1.33333 km/h
2991 01-11-2019 15:00:00 8.7 C 8.27 g/m*3 8.7 C 1.46667 km/h
2992 01-11-2019 16:00:00 8.8 C 8.36 g/m*3 8.8 C 0 km/h
2993 01-11-2019 17:00:00 8.85833 C 8.39 g/m*3 8.86 C 1.2 km/h
2994 01-11-2019 18:00:00 8.86667 C 8.41 g/m*3 8.87 C 0.4 km/h
2995 01-11-2019 19:00:00 8.93333 C 8.52 g/m*3 8.93 C 0 km/h
2996 01-11-2019 20:00:00 9.225 C 8.68 g/m*3 9.23 C 0 km/h
2997 01-11-2019 21:00:00 9.64167 C 8.92 g/m*3 9.64 C 0 km/h
2998 01-11-2019 22:00:00 10.15 C 9.3 g/m*3 10.15 C 0.26667 km/h
2999 01-11-2019 23:00:00 10.525 C 9.52 g/m*3 10.53 C 0 km/h
3000 02-11-2019 00:00:00 11.18333 C 9.92 g/m*3 11.18 C 0 km/h
Sensor: Nr:Datum:Temp:Abs-Feuchte:Windchill:Wind:
Aussen-T/F 3001 02-11-2019 01:00:00 11.96667 C 10.42 g/m*3 11.97 C 0.93333 km/h
3002 02-11-2019 02:00:00 12.21667 C 10.59 g/m*3 12.22 C 1.33333 km/h
3003 02-11-2019 03:00:00 12.28333 C 10.63 g/m*3 12.28 C 2.13333 km/h
3004 02-11-2019 04:00:00 12.25 C 10.61 g/m*3 12.25 C 2 km/h
3005 02-11-2019 05:00:00 12.65833 C 10.88 g/m*3 12.66 C 1.46667 km/h
3006 02-11-2019 06:00:00 13.1 C 11.18 g/m*3 13.1 C 2.94167 km/h
3007 02-11-2019 07:00:00 13.48333 C 11.45 g/m*3 13.48 C 0.93333 km/h
3008 02-11-2019 08:00:00 13.84167 C 11.71 g/m*3 13.84 C 2.275 km/h
3009 02-11-2019 09:00:00 14.30833 C 12.03 g/m*3 14.31 C 12.21667 km/h
3010 02-11-2019 10:00:00 14.925 C 11.87 g/m*3 14.93 C 14.625 km/h
3011 02-11-2019 11:00:00 15.74167 C 11.57 g/m*3 15.74 C 16.5 km/h
3012 02-11-2019 12:00:00 16.15833 C 11.05 g/m*3 16.16 C 20.23333 km/h
3013 02-11-2019 13:00:00 16.04167 C 10.29 g/m*3 16.04 C 15.03333 km/h
3014 02-11-2019 14:00:00 15.8 C 10.01 g/m*3 15.8 C 10.35833 km/h
3015 02-11-2019 15:00:00 15.10833 C 9.97 g/m*3 15.11 C 5.35833 km/h
3016 02-11-2019 16:00:00 14.55833 C 9.75 g/m*3 14.56 C 8.06667 km/h
3017 02-11-2019 17:00:00 13.78333 C 9.71 g/m*3 13.78 C 11.28333 km/h
3018 02-11-2019 18:00:00 11.90833 C 9.55 g/m*3 11.91 C 2.66667 km/h
3019 02-11-2019 19:00:00 11.425 C 9.44 g/m*3 11.43 C 2.13333 km/h
3020 02-11-2019 20:00:00 11.30833 C 9.3 g/m*3 11.31 C 4.01667 km/h
3021 02-11-2019 21:00:00 11.15 C 8.96 g/m*3 11.15 C 4.55 km/h
3022 02-11-2019 22:00:00 10.98333 C 8.84 g/m*3 10.98 C 1.06667 km/h
3023 02-11-2019 23:00:00 10.56667 C 8.68 g/m*3 10.57 C 3.625 km/h
3024 03-11-2019 00:00:00 10.475 C 8.55 g/m*3 10.48 C 0.53333 km/h
3025 03-11-2019 01:00:00 10.41667 C 8.7 g/m*3 10.42 C 0.4 km/h
Sensor: Nr:Datum:Temp:Abs-Feuchte:Windchill:Wind:
Aussen-T/F 3026 03-11-2019 02:00:00 10.03333 C 8.62 g/m*3 10.03 C 0.26667 km/h
3027 03-11-2019 03:00:00 10 C 8.75 g/m*3 10 C 0.8 km/h
3028 03-11-2019 04:00:00 10.26667 C 9.02 g/m*3 10.27 C 0.66667 km/h
3029 03-11-2019 05:00:00 10.25 C 9.07 g/m*3 10.25 C 0.8 km/h
3030 03-11-2019 06:00:00 10.3 C 9.19 g/m*3 10.3 C 0 km/h
3031 03-11-2019 07:00:00 10.325 C 9.21 g/m*3 10.33 C 0 km/h
3032 03-11-2019 08:00:00 10.48333 C 9.37 g/m*3 10.48 C 0 km/h
3033 03-11-2019 09:00:00 11.3 C 9.89 g/m*3 11.3 C 0 km/h
3034 03-11-2019 10:00:00 12.26667 C 10.36 g/m*3 12.27 C 0.93333 km/h
3035 03-11-2019 11:00:00 13.53333 C 10.65 g/m*3 13.53 C 2.675 km/h
3036 03-11-2019 12:00:00 14.85 C 10.6 g/m*3 14.85 C 4.55 km/h
3037 03-11-2019 13:00:00 15.39167 C 10.7 g/m*3 15.39 C 6.30833 km/h
3038 03-11-2019 14:00:00 15.46667 C 10.78 g/m*3 15.47 C 5.08333 km/h
3039 03-11-2019 15:00:00 14.81667 C 10.57 g/m*3 14.82 C 6.83333 km/h
3040 03-11-2019 16:00:00 14.00833 C 10.41 g/m*3 14.01 C 2 km/h
3041 03-11-2019 17:00:00 13.00833 C 10.25 g/m*3 13.01 C 0.4 km/h
3042 03-11-2019 18:00:00 12.35833 C 10.22 g/m*3 12.36 C 0.13333 km/h
3043 03-11-2019 19:00:00 11.71667 C 9.95 g/m*3 11.72 C 0.53333 km/h
3044 03-11-2019 20:00:00 11.075 C 9.63 g/m*3 11.08 C 0.53333 km/h
3045 03-11-2019 21:00:00 10.75833 C 9.46 g/m*3 10.76 C 1.46667 km/h
3046 03-11-2019 22:00:00 10.7 C 9.43 g/m*3 10.7 C 0.8 km/h
3047 03-11-2019 23:00:00 10.60833 C 9.37 g/m*3 10.61 C 4.96667 km/h
3048 04-11-2019 00:00:00 11.075 C 9.31 g/m*3 11.08 C 10.475 km/h
3049 04-11-2019 01:00:00 11.025 C 9.11 g/m*3 11.03 C 6.44167 km/h
3050 04-11-2019 02:00:00 10.15833 C 8.79 g/m*3 10.16 C 2.00833 km/h
Sensor: Nr:Datum:Temp:Abs-Feuchte:Windchill:Wind:
Aussen-T/F 3051 04-11-2019 03:00:00 9.9 C 8.78 g/m*3 9.9 C 1.61667 km/h
3052 04-11-2019 04:00:00 10.18333 C 9.03 g/m*3 10.18 C 2.13333 km/h
3053 04-11-2019 05:00:00 10.38333 C 9.12 g/m*3 9.94 C 5.9 km/h
3054 04-11-2019 06:00:00 9.79167 C 8.76 g/m*3 9.79 C 2.8 km/h
3055 04-11-2019 07:00:00 9.26667 C 8.51 g/m*3 9.27 C 2.66667 km/h
3056 04-11-2019 08:00:00 9.5 C 8.69 g/m*3 9.5 C 0.13333 km/h
3057 04-11-2019 09:00:00 10.00833 C 8.83 g/m*3 10.01 C 1.475 km/h
3058 04-11-2019 10:00:00 10.875 C 9.14 g/m*3 10.88 C 1.73333 km/h
3059 04-11-2019 11:00:00 10.91667 C 9.26 g/m*3 10.92 C 1.33333 km/h
3060 04-11-2019 12:00:00 11.25 C 9.46 g/m*3 11.25 C 1.86667 km/h
3061 04-11-2019 13:00:00 12.025 C 9.75 g/m*3 12.03 C 5.23333 km/h
3062 04-11-2019 14:00:00 12.58333 C 9.58 g/m*3 12.58 C 13.56667 km/h
3063 04-11-2019 15:00:00 12.625 C 9.37 g/m*3 12.63 C 6.31667 km/h
3064 04-11-2019 16:00:00 11.44167 C 9.06 g/m*3 11.44 C 0.93333 km/h
3065 04-11-2019 17:00:00 10.275 C 8.76 g/m*3 10.28 C 0.66667 km/h
3066 04-11-2019 18:00:00 9.60833 C 8.5 g/m*3 9.61 C 0 km/h
3067 04-11-2019 19:00:00 9.18333 C 8.43 g/m*3 9.18 C 0.94167 km/h
3068 04-11-2019 20:00:00 9.5 C 8.71 g/m*3 9.5 C 0 km/h
3069 04-11-2019 21:00:00 9.24167 C 8.58 g/m*3 9.24 C 0.13333 km/h
3070 04-11-2019 22:00:00 8.29167 C 8.07 g/m*3 8.29 C 0.4 km/h
3071 04-11-2019 23:00:00 8.89167 C 8.48 g/m*3 8.42 C 5.24167 km/h
3072 05-11-2019 00:00:00 9.275 C 8.49 g/m*3 9.28 C 4.275 km/h
3073 05-11-2019 01:00:00 9.14167 C 8.29 g/m*3 9.14 C 3.74167 km/h
3074 05-11-2019 02:00:00 9.225 C 8.34 g/m*3 9.23 C 1.875 km/h
3075 05-11-2019 03:00:00 9.40833 C 8.27 g/m*3 8.9 C 5.625 km/h
Sensor: Nr:Datum:Temp:Abs-Feuchte:Windchill:Wind:
Aussen-T/F 3076 05-11-2019 04:00:00 9.46667 C 8.14 g/m*3 9.47 C 4.40833 km/h
3077 05-11-2019 05:00:00 9.525 C 8.15 g/m*3 9.53 C 4.95833 km/h
3078 05-11-2019 06:00:00 9.25 C 8.13 g/m*3 9.25 C 4.14167 km/h
3079 05-11-2019 07:00:00 9.15833 C 8.1 g/m*3 9.16 C 1.86667 km/h
3080 05-11-2019 08:00:00 8.95833 C 8.07 g/m*3 8.96 C 2.675 km/h
3081 05-11-2019 09:00:00 9.45833 C 8.15 g/m*3 9.46 C 2.26667 km/h
3082 05-11-2019 10:00:00 10.48333 C 8.33 g/m*3 10.48 C 3.625 km/h
3083 05-11-2019 11:00:00 11.225 C 8.32 g/m*3 11.23 C 5.5 km/h
3084 05-11-2019 12:00:00 11.83333 C 8.23 g/m*3 11.83 C 9.275 km/h
3085 05-11-2019 13:00:00 11.89167 C 8.41 g/m*3 11.89 C 4.68333 km/h
3086 05-11-2019 14:00:00 12.06667 C 8.62 g/m*3 12.07 C 1.86667 km/h
3087 05-11-2019 15:00:00 11.875 C 8.69 g/m*3 11.88 C 2.14167 km/h
3088 05-11-2019 16:00:00 10.85833 C 8.62 g/m*3 10.86 C 0 km/h
3089 05-11-2019 17:00:00 9.85833 C 8.46 g/m*3 9.86 C 0.13333 km/h
3090 05-11-2019 18:00:00 9.025 C 8.18 g/m*3 9.03 C 0 km/h
3091 05-11-2019 19:00:00 8.54167 C 8.03 g/m*3 8.54 C 0.13333 km/h
3092 05-11-2019 20:00:00 8.425 C 8.02 g/m*3 8.43 C 0.13333 km/h
3093 05-11-2019 21:00:00 7.95833 C 7.83 g/m*3 7.96 C 0 km/h
3094 05-11-2019 22:00:00 8.00833 C 7.88 g/m*3 8.01 C 0 km/h
3095 05-11-2019 23:00:00 8.11667 C 8 g/m*3 8.12 C 0 km/h
3096 06-11-2019 00:00:00 8.2 C 8.04 g/m*3 8.2 C 0 km/h
3097 06-11-2019 01:00:00 8.2 C 8.04 g/m*3 8.2 C 1.06667 km/h
3098 06-11-2019 02:00:00 8.175 C 8.05 g/m*3 8.18 C 0.26667 km/h
3099 06-11-2019 03:00:00 7.79167 C 7.83 g/m*3 7.79 C 0.13333 km/h
3100 06-11-2019 04:00:00 7.45 C 7.7 g/m*3 7.45 C 0 km/h
Sensor: Nr:Datum:Temp:Abs-Feuchte:Windchill:Wind:
Aussen-T/F 3101 06-11-2019 05:00:00 7.49167 C 7.76 g/m*3 7.49 C 0.26667 km/h
3102 06-11-2019 06:00:00 7.65 C 7.84 g/m*3 7.65 C 0.4 km/h
3103 06-11-2019 07:00:00 7.65 C 7.84 g/m*3 7.65 C 0.13333 km/h
3104 06-11-2019 08:00:00 7.975 C 8.01 g/m*3 7.98 C 0.53333 km/h
3105 06-11-2019 09:00:00 8.81667 C 8.42 g/m*3 8.82 C 4.15 km/h
3106 06-11-2019 10:00:00 9.68333 C 8.51 g/m*3 8.83 C 7.13333 km/h
3107 06-11-2019 11:00:00 10.15 C 8.71 g/m*3 9.64 C 6.025 km/h
3108 06-11-2019 12:00:00 10.35 C 8.85 g/m*3 9.87 C 6.03333 km/h
3109 06-11-2019 13:00:00 10.6 C 8.84 g/m*3 9.76 C 7.78333 km/h
3110 06-11-2019 14:00:00 10.43333 C 8.83 g/m*3 10.43 C 4.40833 km/h
3111 06-11-2019 15:00:00 10.24167 C 8.91 g/m*3 10.24 C 0.66667 km/h
3112 06-11-2019 16:00:00 10 C 8.84 g/m*3 10 C 0.13333 km/h
3113 06-11-2019 17:00:00 9.68333 C 8.75 g/m*3 9.68 C 0 km/h
3114 06-11-2019 18:00:00 9.6 C 8.77 g/m*3 9.6 C 0 km/h
3115 06-11-2019 19:00:00 9.40833 C 8.69 g/m*3 9.41 C 0 km/h
3116 06-11-2019 20:00:00 9.13333 C 8.54 g/m*3 9.13 C 0 km/h
3117 06-11-2019 21:00:00 8.975 C 8.51 g/m*3 8.98 C 0 km/h
3118 06-11-2019 22:00:00 8.9 C 8.42 g/m*3 8.9 C 0 km/h
3119 06-11-2019 23:00:00 8.85833 C 8.47 g/m*3 8.86 C 0.53333 km/h
3120 07-11-2019 00:00:00 8.51667 C 8.29 g/m*3 8.52 C 0 km/h
3121 07-11-2019 01:00:00 8.06667 C 8.05 g/m*3 8.07 C 0 km/h
3122 07-11-2019 02:00:00 7.98333 C 8.01 g/m*3 7.98 C 0 km/h
3123 07-11-2019 03:00:00 7.91667 C 7.98 g/m*3 7.92 C 0 km/h
3124 07-11-2019 04:00:00 7.49167 C 7.76 g/m*3 7.49 C 0 km/h
3125 07-11-2019 05:00:00 7.55 C 7.79 g/m*3 7.55 C 0.4 km/h
Sensor: Nr:Datum:Temp:Abs-Feuchte:Windchill:Wind:
Aussen-T/F 3126 07-11-2019 06:00:00 7.375 C 7.7 g/m*3 7.38 C 0 km/h
3127 07-11-2019 07:00:00 7.59167 C 7.84 g/m*3 7.59 C 0.4 km/h
3128 07-11-2019 08:00:00 8.24167 C 8.23 g/m*3 8.24 C 0.26667 km/h
3129 07-11-2019 09:00:00 8.875 C 8.57 g/m*3 8.88 C 1.06667 km/h
3130 07-11-2019 10:00:00 9.29167 C 8.77 g/m*3 9.29 C 3.35 km/h
3131 07-11-2019 11:00:00 9.39167 C 8.69 g/m*3 9.39 C 2.8 km/h
3132 07-11-2019 12:00:00 9.31667 C 8.52 g/m*3 9.32 C 2.95 km/h
3133 07-11-2019 13:00:00 9.625 C 8.55 g/m*3 9.63 C 4.00833 km/h
3134 07-11-2019 14:00:00 9.375 C 8.35 g/m*3 9.38 C 4.41667 km/h
3135 07-11-2019 15:00:00 9.76667 C 8.64 g/m*3 9.77 C 4.41667 km/h
3136 07-11-2019 16:00:00 9.65 C 8.24 g/m*3 7.67 C 13.55833 km/h
3137 07-11-2019 17:00:00 8.55833 C 7.73 g/m*3 7.46 C 7.38333 km/h
3138